[[{"header":{"parameterUnit":"m.s-1","parameterCategory":1,"la1":30.6,"la2":29.2853,"lo1":-89.7004,"lo2":-87.6739,"dy":0.0162,"dx":0.0183,"nx":112,"ny":82,"refTime":"2023-09-16T18:00:00:Z","depth":0,"parameterNumber":2,"parameterNumberName":"U-component_of_WINDS"},"data":[0.0,0.0,0.0,0.0,0.0,0.0,0.0,0.0,0.0,0.0,0.0,0.0,0.0,0.0,0.0,0.0,0.0,0.0,0.0,0.0,0.0,0.0,0.0,0.0,0.0,0.0,0.0,0.0,0.0,0.0,0.0,0.0,0.0,0.0,0.0,0.0,0.0,0.0,0.0,0.0,0.0,0.0,0.0,0.0,0.0,0.0,0.0,0.0,0.0,0.0,0.0,0.0,0.0,0.0,0.0,0.0,0.0,0.0,0.0,0.0,0.0,0.0,0.0,0.0,0.0,0.0,0.0,0.0,0.0,0.0,0.0,0.0,0.0,0.0,0.0,0.0,0.0,0.0,0.0,0.0,0.0,0.0,0.0,0.0,0.0,0.0,0.0,0.0,0.0,0.0,1.2395,1.2919,1.3892,1.4515,1.4515,1.4515,1.4225,1.3569,0.0,0.0,0.0,0.0,0.0,0.0,0.0,0.0,0.0,0.0,0.0,0.0,0.0,0.0,0.0,0.0,0.0,0.0,0.0,0.0,0.0,0.0,0.0,0.0,0.0,0.0,0.0,0.0,0.0,0.0,0.0,0.0,0.0,0.0,0.0,0.0,0.0,0.0,0.0,0.0,0.0,0.0,0.0,0.0,0.0,0.0,0.0,0.0,0.0,0.0,0.0,0.0,0.0,0.0,0.0,0.0,0.0,0.0,0.0,0.0,0.0,0.0,0.0,0.0,0.0,0.0,0.0,0.0,0.0,0.0,0.0,0.0,0.0,0.0,0.0,0.0,0.0,0.0,0.0,0.0,0.0,0.0,0.0,0.0,0.0,0.0,0.0,0.0,0.0,0.0,0.0,0.0,0.0,0.0,0.0,0.0,0.0,0.0,0.0,0.0,0.0,0.0,0.0,0.0,1.3029,1.4112,1.4405,1.4515,1.4515,1.4515,1.4254,1.3705,0.0,0.0,0.0,0.0,0.0,0.0,0.0,0.0,0.0,0.0,0.0,0.0,0.0,0.0,0.0,0.0,0.0,0.0,0.0,0.0,0.0,0.0,0.0,0.0,0.0,0.0,0.0,0.0,0.0,0.0,0.0,0.0,0.0,0.0,0.0,0.0,0.0,0.0,0.0,0.0,0.0,0.0,0.0,0.0,0.0,0.0,0.0,0.0,0.0,0.0,0.0,0.0,0.0,0.0,0.0,0.0,0.0,0.0,0.0,0.0,0.0,0.0,0.0,0.0,0.0,0.0,0.0,0.0,0.0,0.0,0.0,0.0,0.0,0.0,0.0,0.0,0.0,0.0,0.0,0.0,0.0,0.0,0.0,0.0,0.0,0.0,0.0,0.0,0.0,0.0,0.0,0.0,0.0,0.0,0.0,0.0,0.0,0.0,0.0,0.0,0.0,0.0,0.0,1.2577,1.3387,1.4375,1.4515,1.4598,1.4808,1.4836,1.4606,1.4063,1.4043,0.0,0.0,0.0,0.0,0.0,0.0,0.0,0.0,0.0,0.0,0.0,0.0,0.0,0.0,0.0,0.0,0.0,0.0,0.0,0.0,0.0,0.0,0.0,0.0,0.0,0.0,0.0,0.0,0.0,0.0,0.0,0.0,0.0,0.0,0.0,0.0,0.0,0.0,0.0,0.0,0.0,0.0,0.0,0.0,0.0,0.0,0.0,0.0,0.0,0.0,0.0,0.0,0.0,0.0,0.0,0.0,0.0,0.0,0.0,0.0,0.0,0.0,0.0,0.0,0.0,0.0,0.0,0.0,0.0,0.0,0.0,0.0,0.0,0.0,0.0,0.0,0.0,0.0,0.0,0.0,0.0,0.0,0.0,0.0,0.0,0.0,0.0,0.0,0.0,0.0,0.0,0.0,0.0,0.0,0.0,0.0,0.0,0.0,0.0,0.0,0.0,0.0,1.3295,1.3855,1.4579,1.4653,1.4808,1.5212,1.5239,1.5013,1.4487,1.4336,0.0,0.0,0.0,0.0,0.0,0.0,0.0,0.0,0.0,0.0,0.0,0.0,0.0,0.0,0.0,0.0,0.0,0.0,0.0,0.0,0.0,0.0,0.0,0.0,0.0,0.0,0.0,0.0,0.0,0.0,0.0,0.0,0.0,0.0,0.0,0.0,0.0,0.0,0.0,0.0,0.0,0.0,0.0,0.0,0.0,0.0,0.0,0.0,0.0,0.0,0.0,0.0,0.0,0.0,0.0,0.0,0.0,0.0,0.0,0.0,0.0,0.0,0.0,0.0,0.0,0.0,0.0,0.0,0.0,0.0,0.0,0.0,0.0,0.0,0.0,0.0,0.0,0.0,0.0,0.0,0.0,0.0,0.0,0.0,0.0,0.0,0.0,0.0,0.0,0.0,0.0,0.0,0.0,0.0,0.0,0.0,0.0,0.0,0.0,0.0,0.0,0.0,1.3937,1.4588,1.501,1.5056,1.5221,1.5615,1.5643,1.5429,1.4902,1.4496,0.0,0.0,0.0,0.0,0.0,0.0,0.0,0.0,0.0,0.0,0.0,0.0,0.0,0.0,0.0,0.0,0.0,0.0,0.0,0.0,0.0,0.0,0.0,0.0,0.0,0.0,0.0,0.0,0.0,0.0,0.0,0.0,0.0,0.0,0.0,0.0,0.0,0.0,0.0,0.0,0.0,0.0,0.0,0.0,0.0,0.0,0.0,0.0,0.0,0.0,0.0,0.0,0.0,0.0,0.0,0.0,0.0,0.0,0.0,0.0,0.0,0.0,0.0,0.0,0.0,0.0,0.0,0.0,0.0,0.0,0.0,0.0,0.0,0.0,0.0,0.0,0.0,0.0,0.0,0.0,0.0,0.0,0.0,0.0,0.0,0.0,0.0,0.0,0.0,0.0,0.0,0.0,0.0,0.0,0.0,0.0,0.0,0.0,0.0,0.0,0.0,0.0,1.4157,1.4753,1.5395,1.5469,1.5634,1.6046,1.6083,1.5864,1.5317,0.0,0.0,0.0,0.0,0.0,0.0,0.0,0.0,0.0,0.0,0.0,0.0,0.0,0.0,0.0,0.0,0.0,0.0,0.0,0.0,0.0,0.0,0.0,0.0,0.0,0.0,0.0,0.0,0.0,0.0,0.0,0.0,0.0,0.0,0.0,0.0,0.0,0.0,0.0,0.0,0.0,0.0,0.0,0.0,0.0,0.0,0.0,0.0,0.0,0.0,0.0,0.0,0.0,0.0,0.0,0.0,0.0,0.0,0.0,0.0,0.0,0.0,0.0,0.0,0.0,0.0,0.0,0.0,0.0,0.0,0.0,0.0,0.0,0.0,0.0,0.0,0.0,0.0,0.0,0.0,0.0,0.0,0.0,0.0,0.0,0.0,0.0,0.0,0.0,0.0,0.0,0.0,0.0,0.0,0.0,0.0,0.0,0.0,0.0,0.0,0.0,0.0,1.3801,1.4469,1.5139,1.5817,1.589,1.6056,1.6468,1.6505,1.628,1.576,0.0,0.0,0.0,0.0,0.0,0.0,0.0,0.0,0.0,0.0,0.0,0.0,0.0,0.0,0.0,0.0,0.0,0.0,0.0,0.0,0.0,0.0,0.0,0.0,0.0,0.0,0.0,0.0,0.0,0.0,0.0,0.0,0.0,0.0,0.0,0.0,0.0,0.0,0.0,0.0,0.0,0.0,0.0,0.0,0.0,0.0,0.0,0.0,0.0,0.0,0.0,0.0,0.0,0.0,0.0,0.0,0.0,0.0,0.0,0.0,0.0,0.0,0.0,0.0,0.0,0.0,0.0,0.0,0.0,0.0,0.0,0.0,0.0,0.0,0.0,0.0,0.0,0.0,0.0,0.0,0.0,0.0,0.0,0.0,0.0,0.0,0.0,0.0,0.0,0.0,0.0,0.0,0.0,0.0,0.0,0.0,0.0,0.0,0.0,0.0,0.0,0.0,1.3911,1.4946,1.5854,1.6251,1.6321,1.6486,1.6872,1.6908,1.6705,0.0,0.0,0.0,0.0,0.0,0.0,0.0,0.0,0.0,0.0,0.0,0.0,0.0,0.0,0.0,0.0,0.0,0.0,0.0,0.0,0.0,0.0,0.0,0.0,0.0,0.0,0.0,0.0,0.0,0.0,0.0,0.0,0.0,0.0,0.0,0.0,0.0,0.0,0.0,0.0,0.0,0.0,0.0,0.0,0.0,0.0,0.0,0.0,0.0,0.0,0.0,0.0,0.0,0.0,0.0,0.0,0.0,0.0,0.0,0.0,0.0,0.0,0.0,0.0,0.0,0.0,0.0,0.0,0.0,0.0,0.0,0.0,0.0,0.0,0.0,0.0,0.0,0.0,0.0,0.0,0.0,0.0,0.0,0.0,0.0,0.0,0.0,0.0,0.0,0.0,0.0,0.0,0.0,0.0,0.0,0.0,0.0,0.0,0.0,0.0,0.0,0.0,0.0,1.3874,1.5203,1.6285,1.6688,1.6734,1.678,1.6899,1.6908,1.6747,1.6445,0.0,0.0,0.0,0.0,0.0,0.0,0.0,0.0,0.0,0.0,0.0,0.0,0.0,0.0,0.0,0.0,0.0,0.0,0.0,0.0,0.0,0.0,0.0,0.0,0.0,0.0,0.0,0.0,0.0,0.0,0.0,0.0,0.0,0.0,0.0,0.0,0.0,0.0,0.0,0.0,0.0,0.0,0.0,0.0,0.0,0.0,0.0,0.0,0.0,0.0,0.0,0.0,0.0,0.0,0.0,0.0,0.0,0.0,0.0,0.0,0.0,0.0,0.0,0.0,0.0,0.0,0.0,0.0,0.0,0.0,0.0,0.0,0.0,0.0,0.0,0.0,0.0,0.0,0.0,0.0,0.0,0.0,0.0,0.0,0.0,0.0,0.0,0.0,0.0,0.0,0.0,0.0,0.0,0.0,0.0,0.0,0.0,0.0,0.0,0.0,0.0,0.0,1.4341,1.5643,1.6642,1.6881,1.6908,1.6908,1.6908,1.6908,1.6793,1.6513,0.0,0.0,0.0,0.0,0.0,0.0,0.0,0.0,0.0,0.0,0.0,0.0,0.0,0.0,0.0,0.0,0.0,0.0,0.0,0.0,0.0,0.0,0.0,0.0,0.0,0.0,0.0,0.0,0.0,0.0,0.0,0.0,0.0,0.0,0.0,0.0,0.0,0.0,0.0,0.0,0.0,0.0,0.0,0.0,0.0,0.0,0.0,0.0,0.0,0.0,0.0,0.0,0.0,0.0,0.0,0.0,0.0,0.0,0.0,0.0,0.0,0.0,0.0,0.0,0.0,0.0,0.0,0.0,0.0,0.0,0.0,0.0,0.0,0.0,0.0,0.0,0.0,0.0,0.0,0.0,0.0,0.0,0.0,0.0,0.0,0.0,0.0,0.0,0.0,0.0,0.0,0.0,0.0,0.0,0.0,0.0,0.0,0.0,0.0,0.0,0.0,0.0,1.5047,1.6138,1.6908,1.6908,1.6908,1.6908,1.6908,1.6908,1.6812,1.6559,0.0,0.0,0.0,0.0,0.0,0.0,0.0,0.0,0.0,0.0,0.0,0.0,0.0,0.0,0.0,0.0,0.0,0.0,0.0,0.0,0.0,0.0,0.0,0.0,0.0,0.0,0.0,0.0,0.0,0.0,0.0,0.0,0.0,0.0,0.0,0.0,0.0,0.0,0.0,0.0,0.0,0.0,0.0,0.0,0.0,0.0,0.0,0.0,0.0,0.0,0.0,0.0,0.0,0.0,0.0,0.0,0.0,0.0,0.0,0.0,0.8343,0.0,0.0,0.0,0.0,0.0,0.0,0.0,0.0,0.0,0.0,0.0,0.0,0.0,0.0,0.0,0.0,0.0,0.0,0.0,0.0,0.0,0.0,0.0,0.0,0.0,0.0,0.0,0.0,0.0,0.0,0.0,0.0,0.0,0.0,0.0,0.0,0.0,0.0,0.0,0.0,0.0,1.4634,1.5964,1.6908,1.6908,1.6908,1.6908,1.6908,1.6908,1.6872,1.6814,1.6671,0.0,0.0,0.0,0.0,0.0,0.0,0.0,0.0,0.0,0.0,0.0,0.0,0.0,0.0,0.0,0.0,0.0,0.0,0.0,0.0,0.0,0.0,0.0,0.0,0.0,0.0,0.0,0.0,0.0,0.0,0.0,0.0,0.0,0.0,0.0,0.0,0.0,0.0,0.0,0.0,0.0,0.0,0.0,0.0,0.0,0.0,0.0,0.0,0.0,0.0,0.0,0.0,0.0,0.0,0.0,0.0,0.0,0.0,0.0,0.0,0.8654,0.0,0.0,0.0,0.0,0.0,0.0,0.0,0.0,0.0,0.0,0.0,0.0,0.0,0.0,0.0,0.0,0.0,0.0,0.0,0.0,0.0,0.0,0.0,0.0,0.0,0.0,0.0,0.0,0.0,0.0,0.0,0.0,0.0,0.0,0.0,0.0,0.0,0.0,0.0,0.0,1.5056,1.6147,1.6908,1.6908,1.6908,1.6908,1.6908,1.6908,1.6908,1.6908,1.6868,0.0,0.0,0.0,0.0,0.0,0.0,0.0,0.0,0.0,0.0,0.0,0.0,0.0,0.0,0.0,0.0,0.0,0.0,0.0,0.0,0.0,0.0,0.0,0.0,0.0,0.0,0.0,0.0,0.0,0.0,0.0,0.0,0.0,0.0,0.0,0.0,0.0,0.0,0.0,0.0,0.0,0.0,0.0,0.0,0.0,0.0,0.0,0.0,0.0,0.0,0.0,0.0,0.0,0.9769,0.974,0.952,0.952,1.0045,1.0887,1.0304,1.0352,1.0803,0.936,0.0,0.0,0.0,0.0,0.0,0.0,0.0,0.0,0.0,0.0,0.0,0.0,0.0,0.0,0.0,0.0,0.0,0.0,0.0,0.0,0.0,0.0,0.0,0.0,1.1301,1.1743,1.0681,0.0,0.0,0.0,0.0,0.0,0.0,0.0,0.0,0.0,0.0,0.0,1.5744,1.6373,1.6839,1.6908,1.6795,1.676,1.6908,1.6656,1.6612,1.6874,1.6934,1.7028,0.0,0.0,0.0,0.0,0.0,0.0,0.0,0.0,0.0,0.0,0.0,0.0,0.0,0.0,0.0,0.0,0.0,0.0,0.0,0.0,0.0,0.0,0.0,0.0,0.0,0.0,0.0,0.0,0.0,0.0,0.0,0.0,1.2246,1.21,0.0,0.0,0.0,0.0,0.0,0.0,0.0,0.0,0.0,0.0,0.0,0.0,0.0,1.0492,1.048,1.1086,1.1182,1.0778,1.1445,1.1844,1.2034,1.2034,1.2261,1.2656,1.256,0.0,1.0539,1.0318,0.0,0.0,0.0,0.0,0.0,0.0,0.0,0.0,0.0,0.0,0.0,0.0,0.0,0.0,0.0,0.0,0.0,0.0,0.0,0.0,0.0,0.0,1.2766,1.3036,1.302,1.2892,0.0,1.1979,1.1486,1.1809,1.2157,0.0,0.0,0.0,0.0,0.0,0.0,0.0,1.6108,1.6316,1.6517,1.6874,1.6333,1.6193,1.6839,1.5675,1.5463,1.6839,1.6333,1.6359,1.7166,1.7235,0.0,0.0,0.0,0.0,0.0,0.0,0.0,0.0,0.0,0.0,0.0,0.0,0.0,0.0,0.0,0.0,0.0,0.0,0.0,0.0,0.0,0.0,0.0,0.0,0.0,0.0,0.0,0.0,0.0,1.1131,1.1376,1.1106,1.0663,1.009,0.0,0.0,0.0,0.0,0.0,0.0,0.0,0.0,0.0,1.0306,1.0542,1.0724,1.0877,1.1308,1.1231,1.0632,1.1553,1.1798,1.1525,1.2287,1.2692,1.2838,1.3162,1.2766,1.1888,1.1511,1.0931,1.0249,0.0,0.0,0.0,0.0,0.9392,0.9467,0.9909,1.0083,1.0,0.9541,0.0,0.0,0.0,0.0,0.0,0.0,0.0,0.0,0.0,0.0,1.2329,1.2909,1.3084,1.3139,1.333,1.3164,1.2801,0.0,1.1975,1.1936,1.1877,0.0,0.0,0.0,0.0,1.5083,1.5871,1.6171,1.6307,1.6298,1.5974,1.5939,1.6263,1.5648,1.5754,1.683,1.6586,1.6621,1.7003,1.7132,1.7073,0.0,0.0,0.0,0.0,0.0,0.0,0.0,0.0,0.0,0.0,0.0,0.0,0.0,0.0,0.0,0.0,0.0,0.0,0.0,0.0,0.0,0.0,0.0,0.0,0.0,0.0,0.0,0.0,1.1107,1.1462,1.093,1.0973,1.0565,0.0,0.0,0.0,0.0,0.0,0.0,0.9533,1.0127,1.0449,1.0345,1.0702,1.0907,1.0917,1.1145,1.0889,1.0114,1.0966,1.1105,1.0626,1.1686,1.219,1.2307,1.2685,1.2725,1.248,1.2053,1.1735,1.1455,1.0653,1.0371,1.0379,1.025,1.0339,1.0559,1.0857,1.0967,1.0865,1.0492,1.0329,1.0193,0.957,0.0,0.0,0.0,0.0,1.0339,1.1118,1.1707,1.2334,1.302,1.3368,1.3621,1.3942,1.4053,1.3793,0.0,1.2298,1.209,1.1936,0.0,0.0,0.0,1.4077,1.4832,1.5428,1.5696,1.5736,1.5436,1.5286,1.5294,1.5471,1.533,1.5613,1.6551,1.6621,1.6691,1.6908,1.7038,1.6992,1.6676,0.0,0.0,0.0,0.0,0.0,0.0,0.0,0.0,0.0,0.0,0.0,0.0,0.0,0.0,0.0,0.0,0.0,0.0,0.0,0.0,0.0,0.0,0.0,0.0,0.0,0.0,0.0,0.0,0.0,1.3048,1.251,0.0,0.0,0.0,0.0,0.9779,1.0151,1.0449,1.0604,1.0648,1.0792,1.1058,1.1322,1.1092,1.0362,1.06,1.0347,0.954,0.9798,1.0045,1.0323,1.0516,1.079,1.1095,1.1107,1.1107,1.1135,1.1404,1.1031,1.0178,0.9202,0.8873,0.905,0.9567,1.0193,1.0777,1.0882,1.0876,1.0711,1.0111,0.989,0.9933,1.0541,1.0354,0.0,0.0,1.1153,1.1639,1.2691,1.3439,1.4011,1.4628,1.4751,1.4803,1.5057,1.4577,1.4188,0.0,1.4439,1.4313,1.3933,0.0,1.4496,1.4501,1.4555,1.4671,1.4901,1.4796,1.4625,1.4414,1.3918,1.389,1.4601,1.4034,1.425,1.5762,1.5868,1.6158,1.6874,1.6908,1.6994,1.7173,1.7354,0.0,0.0,0.0,0.0,0.0,0.0,0.0,0.0,0.0,0.0,0.0,0.0,0.0,0.0,0.0,0.0,0.0,0.0,0.0,0.0,0.0,0.0,0.0,0.0,0.0,0.0,0.0,0.0,1.1412,1.1635,0.0,1.0335,1.0304,1.0351,1.025,1.0408,1.0515,1.0465,0.9982,0.9849,1.0054,0.9823,0.9696,0.965,0.9933,0.9723,0.9049,0.9836,0.9993,0.9612,1.0549,1.1026,1.1155,1.1477,1.1538,1.1269,1.0768,1.0628,1.0693,1.0308,1.0301,1.0495,1.0484,1.0713,1.1026,1.0896,1.0826,1.0754,1.0565,1.0855,1.1308,1.156,1.1504,1.1546,1.2361,1.2751,1.299,1.3377,1.3754,1.4038,1.4262,1.446,1.4651,1.4905,1.4591,1.4494,1.5172,1.476,1.422,1.4076,1.4595,1.4896,1.4638,1.4644,1.4934,1.5711,1.4797,1.4476,1.5485,1.4365,1.403,1.5194,1.4524,1.4396,1.5296,1.5353,1.5607,1.6167,1.6193,1.6438,1.7003,1.721,1.7382,0.0,0.0,0.0,0.0,0.0,0.0,0.0,0.0,0.0,0.0,0.0,0.0,0.0,0.0,0.0,0.0,0.0,0.0,0.0,0.0,0.0,0.0,0.0,0.0,0.0,1.1411,1.1894,1.0433,1.1089,1.1215,1.0138,1.0305,1.0501,1.0546,1.0537,1.0387,1.0079,0.9612,0.9259,0.9151,0.8942,0.8818,0.8825,0.9143,0.8968,0.8324,0.9068,0.9165,0.8687,0.9785,1.0295,1.0305,1.0829,1.0888,1.0654,0.9966,0.9946,1.0348,1.0017,1.0108,1.0374,1.017,1.0303,1.0596,1.033,1.0233,1.0233,1.0313,1.0833,1.1444,1.1444,1.1444,1.1552,1.2184,1.2544,1.2849,1.3149,1.354,1.3967,1.4359,1.469,1.4963,1.5196,1.513,1.5249,1.5834,1.5044,1.4382,1.4605,1.4846,1.4967,1.4843,1.4547,1.4586,1.5218,1.4478,1.4179,1.4857,1.4192,1.4002,1.4693,1.4484,1.4464,1.4811,1.5381,1.5783,1.5915,1.6236,1.6599,1.711,1.7311,1.742,1.7505,0.0,0.0,0.0,0.0,0.0,0.0,0.0,0.0,0.0,0.0,0.0,0.0,0.0,0.0,0.0,0.0,0.0,0.0,0.0,0.0,0.0,0.0,0.0,1.0815,1.1311,1.137,1.0548,1.106,1.1198,1.0574,1.0172,1.0187,1.0619,1.0473,1.0104,0.9586,0.9544,0.9165,0.8388,0.881,0.867,0.7889,0.8279,0.8098,0.7341,0.7501,0.7617,0.7629,0.8228,0.8473,0.8526,0.8926,0.9096,0.9096,0.9096,0.9096,0.8966,0.8101,0.8075,0.8512,0.8512,0.8928,0.9474,0.9202,0.9133,0.917,0.9359,0.971,1.0108,1.0137,1.0137,1.0143,1.0178,1.0569,1.1179,1.2092,1.2947,1.3872,1.4973,1.542,1.5692,1.5963,1.6196,1.6312,1.6353,1.549,1.4925,1.559,1.5157,1.4826,1.5127,1.4344,0.0,1.3355,1.3772,1.3601,1.2452,1.3286,1.3648,1.3022,1.3879,1.4399,1.4268,1.5872,1.6625,1.6209,1.7036,1.7513,1.7513,1.7711,1.7739,1.7542,0.0,0.0,0.0,0.0,0.0,0.0,0.0,0.0,0.0,0.0,0.0,0.0,0.0,0.0,0.0,0.0,0.0,0.0,0.0,0.0,0.0,0.9761,1.0139,1.0727,1.1246,1.151,1.1348,1.0973,1.0712,1.0732,1.0101,0.9775,0.988,0.9226,0.8732,0.8584,0.8166,0.788,0.7838,0.7667,0.7597,0.7684,0.7777,0.7804,0.7722,0.7889,0.7968,0.7975,0.8226,0.8366,0.8366,0.8462,0.8528,0.8528,0.8528,0.8552,0.8603,0.8662,0.8899,0.9152,0.9152,0.9408,0.9693,0.9481,0.9823,1.0299,0.9568,0.9851,1.0495,1.0699,1.074,1.0898,1.1746,1.2091,1.2281,1.2533,1.2777,1.3029,1.3323,1.3464,1.3782,1.4685,1.451,1.4503,1.5477,1.542,1.5294,1.5619,1.5546,1.5305,1.4899,1.4179,0.0,1.424,1.3424,1.3332,1.4739,1.4452,1.4332,1.4765,1.4983,1.4758,1.383,1.4847,1.5566,1.5834,1.6664,1.7381,1.7908,1.8128,1.8219,0.0,0.0,0.0,0.0,0.0,0.0,0.0,0.0,0.0,0.0,0.0,0.0,0.0,0.0,0.0,0.0,0.0,0.0,0.0,0.0,0.0,0.0,0.9827,1.0109,1.0577,1.0884,1.0929,1.0679,1.0248,0.9935,0.98,0.9254,0.8941,0.9141,0.863,0.8217,0.8004,0.7696,0.7462,0.7224,0.7035,0.7088,0.7307,0.7368,0.7483,0.7688,0.7786,0.7819,0.7891,0.8139,0.8255,0.8259,0.8416,0.8494,0.8494,0.8494,0.8533,0.0,0.0,0.0,0.0,0.0,0.9142,0.9311,0.9249,0.9602,0.9969,0.9424,0.9602,1.0014,1.01,1.0119,1.0285,1.1043,1.1321,1.1548,1.208,1.2319,1.2443,1.2875,1.2879,1.3022,1.3673,1.3491,1.3444,1.4245,1.4455,0.0,1.4559,1.5193,1.5523,1.4972,1.4239,1.3895,1.4434,1.3544,1.3304,1.4447,1.4365,1.4282,1.4481,1.454,0.0,0.0,0.0,1.5975,1.6941,1.7438,0.0,0.0,0.0,1.8424,1.8258,0.0,0.0,0.0,1.7707,1.7665,0.0,0.0,0.0,0.0,0.0,0.0,0.0,0.0,0.0,0.0,0.0,0.0,0.0,0.0,0.0,0.0,0.9754,1.0234,1.0165,1.0162,0.994,0.9355,0.9277,0.9073,0.8512,0.8093,0.8038,0.8416,0.8348,0.8104,0.7601,0.7698,0.0,0.0,0.0,0.6916,0.6937,0.697,0.7062,0.7256,0.7135,0.7164,0.7297,0.7629,0.7893,0.8001,0.8269,0.8425,0.8528,0.8528,0.8623,0.8735,0.8582,0.8594,0.8731,0.8731,0.8731,0.8726,0.888,0.0,0.0,0.9151,0.9187,0.9156,0.8996,0.8944,0.903,0.9287,0.9495,0.9883,1.1122,1.1554,1.1935,1.2791,1.2849,1.278,1.2862,1.2897,1.2887,1.2936,1.3143,1.3185,1.2875,1.43,1.5381,1.4966,1.4227,1.3765,1.3988,1.3776,1.3379,1.2832,0.0,0.0,1.3305,1.3561,1.4139,1.5011,1.6032,1.7243,1.8722,1.8779,1.8614,1.8228,1.8605,1.8605,1.8219,1.8219,1.8331,1.8481,1.784,1.7713,0.0,0.0,0.0,0.0,0.0,0.0,0.0,0.0,0.0,0.0,0.0,0.0,0.0,0.0,0.0,0.8544,0.8924,0.9113,0.8677,0.8679,0.8939,0.9619,0.8975,0.8591,0.8779,0.816,0.7812,0.7994,0.7404,0.6992,0.6898,0.701,0.7009,0.6885,0.698,0.716,0.7285,0.6494,0.6107,0.6274,0.0,0.0,0.5209,0.5353,0.5946,0.6702,0.5917,0.6077,0.6883,0.6883,0.7484,0.8524,0.8879,0.9211,0.9421,0.9421,0.9421,0.9401,0.9345,0.9296,0.9272,0.9174,0.9133,0.9125,0.9271,0.9304,0.0,0.962,0.9738,0.9865,1.0361,1.0491,1.0616,1.1027,1.1089,1.1283,1.1962,1.2106,1.2193,1.2384,1.2913,1.294,1.1828,1.3112,1.407,1.3302,1.348,1.3542,1.3056,1.2923,1.2965,1.3074,1.386,1.4324,1.4261,1.4871,1.5281,1.5304,1.6531,1.7817,1.9143,1.9191,1.9155,1.9072,1.9146,1.9155,1.9072,1.9072,1.9072,1.9093,1.8471,1.8247,0.0,0.0,0.0,0.0,0.0,0.0,0.0,0.0,0.0,0.0,0.0,0.8668,0.9194,0.0,0.8566,0.8695,0.8685,0.8563,0.8274,0.8033,0.8049,0.8419,0.8182,0.7923,0.772,0.7379,0.7015,0.6633,0.6296,0.5876,0.541,0.5521,0.5586,0.5586,0.5652,0.5743,0.585,0.5354,0.5153,0.53,0.4821,0.4622,0.4712,0.4756,0.5074,0.5579,0.5027,0.5127,0.5579,0.5579,0.6079,0.683,0.708,0.8081,0.9381,0.9381,0.948,0.9567,0.9522,0.949,0.9478,0.9388,0.9364,0.9344,0.9393,0.9411,0.9458,0.9742,0.9789,0.9858,1.0192,1.041,1.0548,1.0648,1.0712,1.0871,1.1293,1.1338,1.1268,1.1424,1.1719,1.1779,1.1245,1.2192,1.2973,1.2851,1.313,1.3307,1.3222,1.2918,1.2741,1.2943,1.3633,1.3946,1.364,1.449,1.5164,1.5394,1.6542,1.7732,1.8962,1.9002,1.9073,1.9301,1.9301,1.9301,1.9301,1.9301,1.9301,1.9292,1.9005,1.8859,0.0,0.0,0.0,0.0,0.0,0.0,0.0,0.8302,0.8327,0.9123,0.8831,0.8676,0.95,0.8682,0.8083,0.8634,0.8336,0.8019,0.7912,0.7567,0.7169,0.6757,0.7134,0.7165,0.6387,0.642,0.6077,0.517,0.5215,0.492,0.4185,0.4251,0.4297,0.4314,0.4294,0.4302,0.4338,0.4218,0.4199,0.433,0.4135,0.4067,0.4175,0.4175,0.4273,0.4474,0.4474,0.4474,0.4474,0.4474,0.4726,0.5129,0.5129,0.6478,0.8432,0.873,0.8981,0.9225,0.9426,0.9579,0.9579,0.9579,0.9579,0.96,0.9453,0.9457,0.9505,0.9694,0.9742,0.9829,1.0222,1.0462,1.0654,1.0806,1.0828,1.0905,1.0957,1.0816,1.073,1.0687,1.0683,1.0709,1.0905,1.1349,1.1954,1.2576,1.2875,1.3088,1.3349,1.296,1.2705,1.2705,1.3173,1.3349,1.2918,1.3884,1.4797,1.5447,1.6459,1.7499,1.8507,1.867,1.8954,1.9379,1.942,1.946,1.954,1.954,1.954,1.954,1.954,1.9457,0.9094,0.9081,0.9478,0.947,0.9579,0.9754,0.0,0.9976,0.9771,0.9294,0.923,0.9083,0.8492,0.8131,0.7765,0.7391,0.7261,0.7074,0.6594,0.6592,0.6278,0.5342,0.6045,0.6369,0.569,0.5638,0.53,0.4473,0.4446,0.4406,0.4273,0.4283,0.4279,0.4314,0.428,0.4408,0.4568,0.3605,0.3202,0.3363,0.2413,0.1965,0.1969,0.1969,0.2471,0.3374,0.3374,0.3374,0.3374,0.3374,0.3974,0.4824,0.4824,0.5177,0.5779,0.6974,0.7571,0.7965,0.8928,0.9381,0.9579,0.9579,0.9579,0.9575,0.9604,0.9596,0.9596,0.96,0.9645,0.9698,0.9965,1.0068,1.0216,1.0708,1.0788,1.0867,1.1112,1.1142,1.1071,1.0891,1.0858,1.0839,1.0667,1.0721,1.09,1.1435,1.2357,1.279,1.2272,1.2491,1.2705,1.2705,1.279,1.3003,1.3519,1.4467,1.5219,1.5726,1.6695,1.7463,1.7981,1.8683,1.9288,1.972,1.972,1.9973,2.0383,2.0383,2.0383,2.0383,2.0383,1.9989,0.994,0.946,0.9206,0.9425,0.9538,0.965,0.9851,0.9487,0.9148,0.9287,0.8911,0.8457,0.8293,0.7812,0.7408,0.7334,0.6525,0.5816,0.5568,0.5191,0.4742,0.4283,0.476,0.5007,0.4712,0.4596,0.4202,0.3307,0.34,0.3193,0.2459,0.2598,0.2669,0.2677,0.271,0.2748,0.2843,0.2429,0.2203,0.227,0.1818,0.1626,0.1643,0.1625,0.1869,0.227,0.227,0.227,0.227,0.227,0.2521,0.2923,0.2923,0.3024,0.3325,0.5327,0.6326,0.6822,0.7922,0.8421,0.8772,0.9377,0.9579,0.9579,0.9579,0.9579,0.9579,0.9579,0.9579,0.9628,0.9727,0.9871,1.0068,1.0265,1.056,1.085,1.0949,1.1096,1.117,1.1085,1.1071,1.1005,1.0797,1.0764,1.08,1.0895,1.1451,1.1805,1.1756,1.1931,1.2382,1.3177,1.2942,1.3119,1.4094,1.416,1.4402,1.5014,1.5839,1.6661,1.7537,1.8284,1.8896,1.9376,1.9376,1.9504,1.9708,1.9708,1.9844,2.0099,2.0099,2.0045,0.9683,0.9106,0.8636,0.9011,0.9034,0.9015,0.9186,0.8745,0.8375,0.8689,0.8234,0.7779,0.7736,0.7277,0.6912,0.7038,0.5896,0.4967,0.4841,0.4234,0.3652,0.3364,0.3441,0.3455,0.328,0.3412,0.3129,0.2284,0.2342,0.2048,0.1248,0.1396,0.146,0.1442,0.1462,0.1477,0.1485,0.1505,0.152,0.1629,0.1629,0.1645,0.1673,0.1643,0.1629,0.1629,0.162,0.1617,0.1617,0.1617,0.1617,0.1617,0.1617,0.1617,0.1818,0.3575,0.4728,0.5627,0.667,0.7468,0.812,0.8924,0.9377,0.9579,0.9579,0.9579,0.9579,0.9579,0.9579,0.9579,0.9579,0.9723,0.992,0.9969,1.0314,1.0609,1.0654,1.09,1.1096,1.1096,1.1145,1.1146,1.1005,1.0976,1.0905,1.0693,1.0859,1.1101,1.1481,1.165,1.2114,1.3142,1.2808,1.2905,1.3902,1.3619,1.3662,1.4294,1.5318,1.6271,1.7071,1.8005,1.8762,1.9243,1.9252,1.9287,1.9426,1.9426,1.96,1.9965,1.9965,2.0129,0.7457,0.748,0.7516,0.8157,0.8151,0.8001,0.82,0.8265,0.8093,0.7335,0.7338,0.7276,0.6521,0.6331,0.6251,0.598,0.5431,0.4847,0.4475,0.4004,0.3379,0.2464,0.2252,0.1923,0.1254,0.2015,0.2239,0.148,0.1279,0.1248,0.148,0.1508,0.1394,0.1225,0.1227,0.1189,0.1211,0.1212,0.1376,0.1713,0.1713,0.1675,0.1702,0.1674,0.1713,0.1711,0.163,0.1617,0.1617,0.1617,0.1617,0.1617,0.1617,0.1617,0.1617,0.1667,0.2722,0.4225,0.5275,0.6672,0.8021,0.8024,0.8775,0.9579,0.9579,0.9579,0.9579,0.9579,0.9579,0.9579,0.9579,0.9628,0.9677,0.9924,1.0019,1.0117,1.0364,1.0605,1.0806,1.0806,1.0998,1.1194,1.1189,1.1184,1.1118,1.0915,1.0882,1.0986,1.1277,1.1706,1.1986,1.2038,1.2038,1.2226,1.2723,1.2991,1.3321,1.3894,1.5591,1.6608,1.6608,1.8002,1.9018,1.9559,1.9559,1.9795,2.0257,2.0257,2.0257,2.0303,2.0303,2.0303,0.6677,0.6933,0.7184,0.7882,0.8103,0.8184,0.8255,0.7991,0.7647,0.7269,0.669,0.5992,0.5177,0.4879,0.4654,0.4284,0.3641,0.3096,0.2967,0.2465,0.1875,0.1325,0.1473,0.148,0.1121,0.1389,0.139,0.0987,0.1189,0.0977,0.0047,0.0144,-0.0098,-0.0897,-0.0948,-0.0851,-0.0656,-0.0714,-0.0309,0.0571,0.1382,0.1769,0.1705,0.1769,0.1752,0.1714,0.1652,0.1635,0.1617,0.1617,0.1617,0.1617,0.1617,0.1617,0.1617,0.1617,0.207,0.2874,0.4124,0.5027,0.5777,0.6672,0.767,0.8524,0.8524,0.9027,0.9579,0.9579,0.9579,0.9579,0.9579,0.9579,0.9628,0.9727,0.9871,1.0019,1.0117,1.0364,1.0511,1.0511,1.0752,1.0949,1.0949,1.1096,1.1175,1.1104,1.0981,1.0915,1.1033,1.1282,1.1604,1.1944,1.1992,1.2464,1.3649,1.4004,1.4296,1.4652,1.6331,1.7091,1.6629,1.8032,1.8874,1.9058,1.9058,1.9142,1.9279,1.9279,1.9509,1.9828,1.9828,2.0011,0.6458,0.6613,0.6789,0.7445,0.7497,0.7397,0.7426,0.7125,0.6773,0.6634,0.5825,0.4997,0.4448,0.4042,0.3644,0.326,0.2622,0.2136,0.1994,0.1395,0.0799,0.0356,0.0493,0.0448,0.0,0.0,0.0091,0.0408,0.0231,-0.0283,-0.12,-0.1077,-0.1342,-0.2113,-0.2064,-0.192,-0.1832,-0.1852,-0.1458,-0.0634,0.0599,0.1152,0.1085,0.1582,0.1783,0.1746,0.1734,0.1666,0.1647,0.1637,0.1633,0.1632,0.1621,0.1617,0.1617,0.1617,0.1718,0.197,0.2975,0.3776,0.4529,0.5427,0.6473,0.7521,0.7872,0.8223,0.8524,0.8924,0.9023,0.9023,0.9023,0.9327,0.9579,0.9579,0.9727,0.9875,0.9875,1.0068,1.0265,1.0265,1.0556,1.0801,1.0801,1.0998,1.1194,1.1194,1.1085,1.1005,1.1005,1.1113,1.134,1.1683,1.1731,1.217,1.3377,1.3661,1.4094,1.4921,1.6001,1.6615,1.6588,1.7746,1.8404,1.8404,1.8689,1.8781,1.8781,1.8781,1.8966,1.9325,1.9325,1.9463,0.6656,0.6456,0.6229,0.6856,0.6355,0.5733,0.587,0.5705,0.5511,0.5451,0.4823,0.4263,0.4079,0.3617,0.3128,0.2735,0.2356,0.1967,0.1523,0.0787,0.0082,-0.0444,-0.0672,-0.1121,-0.2017,-0.2099,-0.1618,-0.0417,-0.1557,-0.2257,-0.2198,-0.2141,-0.2214,-0.2516,-0.2318,-0.2238,-0.2328,-0.2281,-0.2112,-0.1858,-0.0667,-0.0112,-0.0056,0.1103,0.1642,0.1693,0.1665,0.1652,0.1702,0.1675,0.1717,0.1714,0.1633,0.1622,0.1622,0.1622,0.1622,0.1622,0.1875,0.2981,0.4279,0.4329,0.5227,0.6473,0.7531,0.7182,0.6634,0.7643,0.7995,0.7995,0.7995,0.8798,0.9657,0.9657,0.9648,0.9591,0.9591,0.983,0.9965,0.9957,1.0391,1.0725,1.0788,1.0984,1.1184,1.1194,1.1194,1.1194,1.1194,1.1194,1.1194,1.1194,1.1194,1.1438,1.198,1.2024,1.2791,1.4519,1.4704,1.5283,1.6487,1.7225,1.7638,1.7692,1.8404,1.8735,1.8735,1.8781,1.8781,1.8781,1.8781,1.8781,0.5657,0.5676,0.5663,0.5989,0.5844,0.563,0.5667,0.5172,0.4651,0.4496,0.3654,0.2798,0.2144,0.1759,0.14,0.1008,0.0859,0.0499,-0.0286,-0.0289,-0.0674,-0.1822,-0.17,-0.1711,-0.2193,-0.2898,-0.327,-0.3078,-0.2664,-0.2774,-0.3569,-0.3535,-0.3775,-0.4483,-0.4433,-0.4371,-0.4296,-0.3505,-0.3101,-0.3113,-0.19,-0.1344,-0.1344,-0.1004,-0.0387,0.0437,0.0435,0.0916,0.1703,0.1697,0.1693,0.1692,0.1685,0.1682,0.1682,0.1682,0.1682,0.1682,0.1734,0.2118,0.2675,0.3077,0.3979,0.4991,0.5516,0.6047,0.6524,0.6875,0.7629,0.8312,0.8312,0.9194,1.0026,1.0026,0.992,0.9819,0.9819,0.9767,0.9686,0.9595,0.9697,0.9983,1.0512,1.0635,1.0782,1.1175,1.1194,1.1194,1.1194,1.1194,1.1194,1.1194,1.1194,1.158,1.2446,1.2689,1.3076,1.3752,1.4501,1.5263,1.5994,1.6177,1.6741,1.7692,1.7878,1.7971,1.7971,1.8542,1.8781,1.8781,1.8781,1.8781,0.5497,0.5548,0.5521,0.5743,0.5381,0.4941,0.4952,0.4236,0.3516,0.3344,0.2599,0.175,0.097,0.072,0.0323,-0.0615,-0.0452,-0.0526,-0.1373,-0.1345,-0.1628,-0.2662,-0.2751,-0.2961,-0.3685,-0.4221,-0.4639,-0.4884,-0.4208,-0.4076,-0.4701,-0.4604,-0.4734,-0.519,-0.513,-0.5113,-0.509,-0.4575,-0.4325,-0.4367,-0.3189,-0.2574,-0.2574,-0.2015,-0.1448,-0.0773,0.0,-0.011,0.098,0.0972,0.1293,0.1722,0.171,0.1704,0.1704,0.1704,0.1704,0.1704,0.1704,0.1787,0.1965,0.2534,0.3203,0.393,0.4694,0.5022,0.5243,0.5767,0.6363,0.6893,0.6893,0.8157,0.9425,0.9425,0.9716,0.9985,0.99,0.975,0.9551,0.9482,0.949,0.9716,1.0382,1.0514,1.0674,1.1116,1.1194,1.1194,1.1194,1.1194,1.1194,1.1194,1.1194,1.1433,1.2014,1.2155,1.2592,1.327,1.3547,1.407,1.493,1.4978,1.5501,1.6687,1.7117,1.7598,1.8032,1.8465,1.8658,1.8658,1.855,1.8504,0.5719,0.5666,0.5556,0.5628,0.4836,0.404,0.3928,0.3072,0.2291,0.2179,0.1624,0.0909,0.0176,0.0092,-0.0349,-0.187,-0.1498,-0.1297,-0.2143,-0.237,-0.2693,-0.3442,-0.3776,-0.439,-0.5519,-0.5563,-0.5591,-0.5845,-0.5603,-0.5497,-0.5532,-0.5338,-0.5196,-0.5159,-0.5058,-0.5084,-0.5188,-0.5335,-0.5382,-0.5382,-0.4367,-0.3861,-0.3805,-0.2742,-0.2183,-0.2015,-0.2015,-0.1288,0.0,0.0,0.0713,0.1808,0.1727,0.1716,0.1716,0.1716,0.1716,0.1716,0.1716,0.1716,0.1876,0.2348,0.2717,0.3197,0.437,0.4111,0.3584,0.4546,0.4919,0.5026,0.5026,0.6621,0.8272,0.8431,0.926,0.9996,0.9989,0.9766,0.9535,0.9409,0.941,0.96,1.0294,1.0426,1.0599,1.1112,1.1194,1.1194,1.1194,1.1194,1.1194,1.1194,1.1194,1.1194,1.1194,1.1194,1.1678,1.2786,1.2262,1.2452,1.3734,1.3686,1.4118,1.5162,1.617,1.7178,1.8094,1.8334,1.8435,1.8427,1.8234,1.8087,0.5694,0.5547,0.5204,0.4574,0.4126,0.3659,0.293,0.2112,0.1508,0.1478,0.0818,0.0029,-0.0597,-0.0699,-0.1009,-0.1962,-0.1842,-0.2099,-0.3382,-0.3362,-0.3699,-0.4949,-0.4961,-0.5065,-0.5628,-0.5562,-0.5522,-0.5653,-0.5413,-0.5272,-0.529,-0.524,-0.5126,-0.5049,-0.511,-0.5158,-0.519,-0.5335,-0.5382,-0.5382,-0.5212,-0.5098,-0.5098,-0.4875,-0.4255,-0.3301,-0.3301,0.0,0.0,0.0,0.0726,0.1787,0.1781,0.1779,0.1779,0.1779,0.1779,0.1779,0.1779,0.1947,0.2104,0.2151,0.2398,0.2778,0.3252,0.3428,0.3546,0.3762,0.455,0.5324,0.5324,0.6311,0.7572,0.8568,0.8909,0.9187,1.013,0.9847,0.9343,0.8984,0.8845,0.9029,0.9875,0.9983,1.0292,1.1088,1.1194,1.1194,1.1194,1.1194,1.1194,1.1194,1.1194,1.1194,1.1194,1.1194,1.1292,1.1531,1.1389,1.1917,1.3167,1.2646,1.2931,1.416,1.5162,1.5738,1.5934,1.7419,1.8179,1.8179,1.8133,1.8087,0.5469,0.5054,0.46,0.4196,0.3311,0.2376,0.1981,0.1241,0.0612,0.0627,0.0029,-0.0657,-0.1264,-0.138,-0.1737,-0.286,-0.273,-0.2839,-0.3911,-0.4078,-0.4318,-0.4889,-0.5091,-0.5272,-0.5469,-0.5377,-0.534,-0.5384,-0.5138,-0.5037,-0.519,-0.5137,-0.5074,-0.511,-0.5144,-0.5213,-0.5314,-0.5359,-0.5382,-0.5382,-0.5382,-0.5382,-0.5382,-0.5382,-0.5098,-0.4536,-0.4536,-0.3527,-0.1847,-0.1176,-0.0224,0.0953,0.157,0.1795,0.1795,0.1795,0.1795,0.1795,0.1795,0.1964,0.2182,0.2146,0.2463,0.2905,0.3261,0.3434,0.3549,0.3579,0.4033,0.4479,0.4479,0.5314,0.6366,0.6924,0.7822,0.8646,0.8954,0.9144,0.9116,0.8759,0.8621,0.8811,0.9587,0.9791,1.0157,1.0888,1.1096,1.1194,1.1194,1.1194,1.1194,1.1194,1.1194,1.1194,1.1194,1.1194,1.1194,1.1194,1.1194,1.1482,1.2111,1.178,1.2111,1.3258,1.3878,1.4453,1.4978,1.5839,1.656,1.7091,1.699,1.7178,0.5021,0.4429,0.3872,0.3572,0.2423,0.1271,0.1055,0.0482,-0.0031,-0.0171,-0.0561,-0.1121,-0.1846,-0.1999,-0.2413,-0.3696,-0.3524,-0.3457,-0.4128,-0.4451,-0.4599,-0.4554,-0.494,-0.5232,-0.5232,-0.5174,-0.514,-0.514,-0.4954,-0.4916,-0.517,-0.5074,-0.5096,-0.5186,-0.5209,-0.5308,-0.538,-0.5382,-0.5382,-0.5382,-0.5382,-0.5382,-0.5382,-0.5382,-0.5382,-0.5382,-0.5382,-0.4706,-0.3525,-0.2295,-0.1064,0.0112,0.1346,0.1795,0.1795,0.1795,0.1795,0.1795,0.1795,0.202,0.23,0.23,0.2691,0.3138,0.3418,0.3531,0.3587,0.3587,0.3587,0.3587,0.3587,0.4313,0.5089,0.5347,0.6802,0.8004,0.7553,0.8183,0.871,0.8327,0.8432,0.8811,0.9406,0.9655,1.0063,1.0693,1.1002,1.1149,1.1194,1.1194,1.1194,1.1194,1.1194,1.1194,1.1194,1.1194,1.1194,1.1194,1.1194,1.1194,1.1194,1.1194,1.158,1.2344,1.278,1.3403,1.4172,1.4411,1.4991,1.5805,1.5561,1.5893,0.4107,0.3757,0.3147,0.1865,0.1509,0.1251,0.0327,0.0063,-0.0152,-0.0712,-0.087,-0.126,-0.2402,-0.2603,-0.2893,-0.3774,-0.3719,-0.3732,-0.4216,-0.4315,-0.4409,-0.465,-0.4851,-0.4944,-0.4944,-0.4875,-0.4834,-0.4834,-0.4912,-0.501,-0.501,-0.5124,-0.5172,-0.5188,-0.5326,-0.5373,-0.5382,-0.5382,-0.5382,-0.5382,-0.5382,-0.5382,-0.5382,-0.5382,-0.5382,-0.5382,-0.5382,-0.4706,0.0,-0.2295,-0.1064,0.0112,0.1346,0.1795,0.1795,0.1795,0.1795,0.1795,0.1795,0.2188,0.2637,0.2637,0.2859,0.3081,0.3137,0.3362,0.3587,0.3587,0.3587,0.3587,0.3587,0.3699,0.4018,0.5049,0.6315,0.7085,0.6564,0.7227,0.7804,0.7313,0.7984,0.8811,0.9406,0.9512,0.9828,1.0644,1.0801,1.09,1.1145,1.1194,1.1194,1.1194,1.1194,1.1194,1.1194,1.1194,1.1194,1.1194,1.1194,1.1194,1.1194,1.1194,1.1243,1.134,1.2252,1.278,1.2872,1.3836,1.4364,1.4459,1.4459,1.4507,0.3433,0.2887,0.2283,0.1608,0.1082,0.0641,0.0127,-0.0276,-0.0621,-0.0849,-0.1484,-0.2124,-0.2625,-0.2933,-0.3293,-0.3768,-0.3648,-0.3564,-0.3832,-0.4247,-0.4457,-0.4183,-0.4727,-0.5043,-0.4759,-0.4779,-0.4857,-0.4912,-0.5002,-0.5077,-0.5132,-0.515,-0.5215,-0.5326,-0.5363,-0.5382,-0.5382,-0.5382,-0.5382,-0.5382,-0.5382,-0.5382,-0.5382,-0.5382,-0.5382,-0.5382,-0.5382,-0.51,0.0,-0.3358,-0.2183,-0.0952,0.0224,0.1177,0.1795,0.1795,0.1907,0.202,0.202,0.2411,0.2915,0.2915,0.3139,0.3418,0.3418,0.3475,0.3587,0.3587,0.3587,0.3587,0.3587,0.3587,0.3684,0.4112,0.5028,0.5748,0.5353,0.6051,0.6673,0.6314,0.7051,0.7864,0.8327,0.8995,0.9686,1.0258,1.0605,1.085,1.0949,1.1096,1.1194,1.1194,1.1194,1.1194,1.1194,1.1194,1.1194,1.1194,1.1194,1.1194,1.1194,1.1194,1.1194,1.1194,1.158,1.1819,1.1819,1.2252,1.2732,1.3355,1.3355,1.3692,0.2982,0.2196,0.1452,0.1218,0.0713,0.0197,-0.0125,-0.0572,-0.096,-0.1242,-0.2015,-0.2691,-0.2886,-0.3178,-0.3473,0.0,-0.358,-0.3466,-0.3602,-0.4103,-0.427,-0.3793,-0.4491,-0.486,-0.453,-0.47,-0.4883,-0.5004,-0.5071,-0.5159,-0.5277,-0.5284,-0.5314,-0.538,-0.5382,-0.5382,-0.5382,-0.5382,-0.5382,-0.5382,-0.5382,-0.5382,-0.5382,-0.5382,-0.5382,-0.5382,-0.5382,-0.5382,0.0,-0.4086,-0.291,-0.1679,-0.0448,0.0729,0.1795,0.1795,0.1964,0.2188,0.2188,0.2579,0.3081,0.3081,0.3306,0.3587,0.3587,0.3587,0.3587,0.3587,0.3587,0.3587,0.3587,0.3574,0.3545,0.3486,0.4011,0.4423,0.4208,0.4912,0.5543,0.5358,0.6053,0.6921,0.7579,0.8383,0.921,0.9915,1.0413,1.0703,1.0801,1.1047,1.1194,1.1194,1.1194,1.1194,1.1194,1.1194,1.1194,1.1194,1.1194,1.1194,1.1194,1.1194,1.1194,1.1194,1.1194,1.1194,1.1194,1.1194,1.158,1.2252,1.2252,1.2684,0.2714,0.1779,0.0742,0.0405,0.0297,0.0128,-0.0528,-0.0812,-0.1135,-0.2001,-0.2352,-0.2715,-0.336,-0.338,-0.3441,-0.3823,-0.363,-0.3458,-0.3659,-0.3817,-0.3821,-0.3643,-0.3951,-0.4222,-0.4275,-0.4624,-0.4859,-0.5094,-0.5106,-0.5188,-0.5369,-0.538,-0.538,-0.5382,-0.5382,-0.5382,-0.5382,-0.5382,-0.5382,-0.5382,-0.5382,-0.5382,-0.5382,-0.5382,-0.5382,-0.5382,-0.5382,-0.5382,0.0,-0.4086,-0.291,-0.1679,-0.0448,0.0729,0.1795,0.1795,0.1964,0.2188,0.2188,0.2579,0.3081,0.3081,0.3306,0.3587,0.3587,0.3587,0.3587,0.3587,0.3587,0.3587,0.3587,0.3542,0.3484,0.3427,0.3367,0.3289,0.3166,0.3859,0.4487,0.4442,0.512,0.6155,0.7486,0.7728,0.8259,0.9768,1.0216,1.0507,1.0757,1.1047,1.1194,1.1194,1.1194,1.1194,1.1194,1.1194,1.1194,1.1194,1.1194,1.1194,1.1194,1.1194,1.1194,1.1194,1.1194,1.1194,1.1194,1.1194,1.1194,1.1243,1.1243,1.1243,0.1425,0.0977,0.0699,0.0476,0.0186,-0.0121,-0.042,-0.1245,-0.1993,-0.2293,-0.2741,-0.3182,-0.3394,-0.3308,-0.3341,-0.3634,-0.3463,-0.331,-0.3473,-0.3802,-0.393,-0.3649,-0.4103,-0.451,-0.4565,-0.4792,-0.4977,-0.5098,-0.5165,-0.5253,-0.5375,-0.5382,-0.5382,-0.5382,-0.5382,-0.5382,-0.5382,-0.5382,-0.5382,-0.5382,-0.5382,-0.5382,-0.5382,-0.5382,-0.5382,-0.5382,-0.5382,-0.5382,-0.5382,-0.4987,-0.3639,-0.1735,-0.14,0.0,0.1795,0.202,0.2244,0.258,0.2747,0.3082,0.3418,0.3418,0.3531,0.3587,0.3587,0.3587,0.3587,0.3587,0.3587,0.3587,0.3587,0.3542,0.3482,0.3425,0.3365,0.3288,0.3117,0.3331,0.3501,0.3478,0.4131,0.4942,0.5469,0.6782,0.7923,0.8523,0.9468,1.0216,1.0511,1.0752,1.0998,1.1194,1.1194,1.1194,1.1194,1.1194,1.1194,1.1194,1.1194,1.1194,1.1194,1.1194,1.1194,1.1194,1.1194,1.1194,1.1194,1.1194,1.1194,1.1194,1.1194,1.1194,0.1162,0.0797,0.0626,0.0507,0.0059,-0.0376,-0.0636,-0.1574,-0.2442,-0.253,-0.2955,-0.3338,-0.3377,-0.3257,-0.329,-0.3617,-0.3576,-0.3505,-0.3475,-0.396,-0.4181,-0.3866,-0.4212,-0.4506,-0.4596,-0.4828,-0.501,-0.51,-0.514,-0.5284,-0.5375,-0.5382,-0.5382,-0.5382,-0.5382,-0.5382,-0.5382,-0.5382,-0.5382,-0.5382,-0.5382,-0.5382,-0.5382,-0.5382,-0.5382,-0.5382,-0.5382,-0.5382,0.0,-0.5382,-0.4255,-0.2406,-0.1959,-0.0616,0.1234,0.1908,0.2413,0.275,0.3026,0.3306,0.3587,0.3587,0.3587,0.3587,0.3587,0.3587,0.3587,0.3587,0.3587,0.3582,0.3559,0.351,0.345,0.3392,0.3331,0.3215,0.314,0.3108,0.3086,0.3047,0.3428,0.395,0.4532,0.5695,0.6774,0.7332,0.8517,0.9464,0.9612,1.0207,1.0703,1.09,1.0998,1.1047,1.1047,1.1145,1.1194,1.1194,1.1194,1.1194,1.1194,1.1194,1.1194,1.1194,1.1194,1.1194,1.1194,1.1194,1.1194,1.1194,1.1194,1.1194,0.0,0.1081,0.0585,0.0446,-0.0056,-0.0642,-0.1086,-0.1838,0.0,-0.2777,-0.3032,-0.325,-0.3375,-0.323,-0.3257,-0.3675,-0.3854,-0.3854,-0.3622,-0.4132,-0.4483,-0.4284,-0.4282,-0.4349,-0.4474,-0.4817,-0.5016,-0.5102,-0.5144,-0.5292,-0.5377,-0.5382,-0.5382,-0.5382,-0.5382,-0.5382,-0.5382,-0.5382,-0.5382,-0.5382,-0.5382,-0.5382,-0.5382,-0.5382,-0.5382,0.0,-0.5382,-0.5382,-0.5382,-0.5382,-0.4704,-0.3469,-0.2295,-0.1064,0.0168,0.1683,0.2413,0.275,0.3026,0.3362,0.3587,0.3587,0.3587,0.3587,0.3587,0.3587,0.3587,0.3587,0.3587,0.3574,0.3512,0.3454,0.3397,0.3337,0.3223,0.318,0.318,0.3135,0.3097,0.3097,0.3001,0.3273,0.4393,0.4658,0.5054,0.614,0.7419,0.8266,0.8262,0.9361,1.0162,1.0261,1.0507,1.0703,1.0757,1.1047,1.1194,1.1194,1.1194,1.1194,1.1194,1.1194,1.1194,1.1194,1.1194,1.1194,1.1194,1.1194,1.1194,1.1194,1.1194,1.1194,0.1062,0.0,0.0725,0.0595,-0.0132,-0.0835,0.0,-0.1955,-0.2863,-0.2954,-0.3084,-0.3201,-0.3224,-0.3195,-0.3201,-0.3322,-0.3333,-0.3344,-0.3444,-0.3805,-0.4252,-0.4768,-0.4656,-0.4676,-0.5131,-0.5125,-0.5086,-0.5106,-0.5259,-0.5359,-0.538,-0.5382,-0.5382,-0.5382,-0.5382,-0.5382,-0.5382,-0.5382,-0.5382,-0.5382,-0.5382,-0.5382,-0.5382,-0.5382,-0.5382,-0.5382,-0.5382,-0.5382,-0.5382,-0.5382,-0.4704,-0.3469,-0.2295,-0.1064,0.0224,0.1964,0.2637,0.275,0.3307,0.3531,0.3587,0.3587,0.3587,0.3587,0.3587,0.3587,0.3587,0.3587,0.3587,0.3574,0.3512,0.3454,0.3397,0.3337,0.3223,0.318,0.318,0.3135,0.3097,0.3097,0.3001,0.3002,0.3405,0.4138,0.4816,0.5153,0.6126,0.6968,0.7164,0.7462,0.806,0.9057,0.9255,0.9604,1.0408,1.0949,1.1194,1.1194,1.1194,1.1194,1.1194,1.1194,1.1194,1.1194,1.1194,1.1194,1.1194,1.1194,1.1194,1.1194,1.1194,1.1194,0.0931,0.0673,0.067,0.0311,-0.0349,-0.1013,-0.1219,-0.2161,-0.3015,-0.3015,-0.3099,-0.3192,-0.3192,-0.326,-0.3345,-0.3534,-0.3623,-0.3769,-0.418,-0.4449,-0.4723,-0.5024,-0.4909,-0.4911,-0.5086,-0.512,-0.5108,-0.5108,-0.5277,-0.5382,-0.5382,-0.5382,-0.5382,-0.5382,-0.5382,-0.5382,-0.5382,-0.5382,-0.5382,-0.5382,-0.5382,-0.5382,-0.5382,-0.5382,-0.5382,-0.5382,-0.5382,-0.5382,-0.5382,-0.5382,-0.5043,-0.4255,-0.2295,-0.1176,-0.0336,0.2017,0.2859,0.2971,0.3419,0.3587,0.3587,0.3587,0.3587,0.3587,0.3587,0.3587,0.3587,0.3587,0.3587,0.3567,0.348,0.3436,0.339,0.3301,0.3204,0.318,0.318,0.3157,0.3082,0.3102,0.3022,0.2987,0.308,0.3571,0.4002,0.4061,0.4981,0.5727,0.5877,0.6321,0.6915,0.7614,0.7813,0.811,0.8711,0.9604,1.0346,1.0998,1.1002,1.1047,1.1194,1.1194,1.1194,1.1194,1.1194,1.1194,1.1194,1.1194,1.1194,1.1194,1.1194,1.1194,0.0975,0.0635,0.0433,-0.0045,-0.0592,-0.1101,-0.1581,-0.2348,-0.2968,-0.2981,-0.3099,-0.3196,-0.321,-0.3299,-0.3494,-0.3864,-0.4064,-0.4386,-0.4914,-0.5157,-0.5262,-0.5144,-0.5053,-0.4986,-0.4913,-0.5035,-0.5108,-0.5108,-0.5277,-0.5382,-0.5382,-0.5382,-0.5382,-0.5382,-0.5382,-0.5382,-0.5382,-0.5382,-0.5382,-0.5382,-0.5382,-0.5382,-0.5382,-0.5382,-0.5382,-0.5382,0.0,0.0,-0.5382,-0.5382,-0.5382,-0.5156,-0.2407,-0.1343,-0.0951,0.196,0.3082,0.3138,0.3475,0.3587,0.3587,0.3587,0.3587,0.3587,0.3587,0.3587,0.3587,0.3587,0.3587,0.356,0.3443,0.3413,0.3382,0.3208,0.318,0.318,0.318,0.3133,0.3121,0.3109,0.3054,0.3034,0.3087,0.3105,0.3101,0.3214,0.3982,0.4533,0.4533,0.5329,0.5974,0.6124,0.6371,0.6567,0.6716,0.776,0.8954,1.01,1.0551,1.0801,1.0949,1.1047,1.1096,1.1002,1.1149,1.1194,1.1194,1.1194,1.1194,1.1194,1.1194,1.1194,0.0856,0.0283,-0.0122,-0.0046,-0.0487,-0.1041,-0.1573,-0.228,-0.2866,-0.297,-0.3099,-0.325,-0.3362,-0.3291,-0.3302,-0.347,-0.3598,-0.3789,-0.3999,-0.4307,-0.4676,-0.5137,-0.4924,-0.4923,-0.5372,-0.5216,-0.5108,-0.5108,-0.5277,-0.5382,-0.5382,-0.5382,-0.5382,-0.5382,-0.5382,-0.5382,-0.5382,-0.5382,-0.5382,-0.5382,-0.5382,-0.5382,-0.5382,-0.5382,-0.5382,-0.5382,0.0,-0.5382,-0.5382,-0.5382,-0.5382,-0.5156,-0.2687,-0.1567,-0.0952,0.1737,0.2915,0.3138,0.3475,0.3587,0.3587,0.3587,0.3587,0.3587,0.3587,0.3587,0.3587,0.3587,0.3587,0.356,0.3443,0.3413,0.3382,0.3208,0.318,0.318,0.318,0.3133,0.3121,0.3109,0.3088,0.3086,0.3095,0.3091,0.3101,0.3169,0.3331,0.343,0.343,0.3581,0.4031,0.4933,0.5081,0.5479,0.6373,0.667,0.6968,0.7412,0.9308,1.0261,0.9854,1.0502,1.0659,1.0167,1.0855,1.1194,1.1194,1.1194,1.1194,1.1194,1.1194,1.1194,0.0831,0.03,-0.0213,-0.0477,-0.104,-0.167,-0.2189,-0.2634,-0.2981,-0.3051,-0.3134,-0.3254,-0.3381,-0.3371,-0.3436,-0.3624,-0.4211,-0.4539,-0.43,-0.4768,-0.5099,-0.5132,-0.5053,-0.5029,-0.509,-0.5105,-0.5108,-0.5108,-0.5277,-0.5382,-0.5382,-0.5382,-0.5382,-0.5382,-0.5382,-0.5382,-0.5382,-0.5382,-0.5382,-0.5382,-0.5382,-0.5382,-0.5382,-0.5382,-0.5382,-0.5382,0.0,-0.5382,-0.5382,-0.5382,-0.4929,-0.3973,-0.2069,-0.0727,0.0336,0.2409,0.3251,0.3418,0.3531,0.3587,0.3582,0.3549,0.3538,0.3533,0.3501,0.3493,0.3493,0.3493,0.3515,0.3519,0.3435,0.3388,0.3341,0.3201,0.318,0.318,0.318,0.3158,0.3161,0.3115,0.3123,0.3087,0.3102,0.3127,0.316,0.3219,0.3308,0.3328,0.3328,0.3328,0.3484,0.4001,0.4052,0.4259,0.4719,0.5284,0.5934,0.6769,0.7965,0.8563,0.8315,0.8913,0.9164,0.892,1.001,1.0556,1.0556,1.0998,1.1194,1.1194,1.1194,1.1194,0.0787,0.025,-0.0352,-0.088,-0.1512,-0.2144,-0.2665,-0.2948,-0.3096,-0.3087,-0.3181,-0.3281,-0.3385,-0.3438,-0.3573,-0.3799,-0.4557,-0.4981,-0.4642,-0.5128,-0.5382,-0.5023,-0.5062,-0.5038,-0.4814,-0.5,-0.5108,-0.5108,-0.5277,-0.5382,-0.5382,-0.5382,-0.5382,-0.5382,-0.5382,-0.5382,-0.5382,-0.5382,-0.5382,-0.5382,-0.5382,-0.5382,-0.5382,-0.5382,-0.5382,-0.5382,-0.5382,-0.5382,-0.5382,-0.5382,-0.4693,-0.3448,-0.1667,0.0111,0.1826,0.3101,0.3546,0.3546,0.3546,0.3546,0.3538,0.3492,0.3477,0.3469,0.3425,0.3413,0.3413,0.3413,0.3433,0.3446,0.3402,0.3357,0.3307,0.3195,0.318,0.318,0.318,0.318,0.3199,0.3091,0.312,0.3146,0.31,0.3181,0.3221,0.3334,0.3383,0.3413,0.3413,0.3413,0.3413,0.3413,0.3413,0.3413,0.3413,0.4098,0.5015,0.6156,0.6956,0.7325,0.7226,0.7773,0.8024,0.7925,0.9122,0.9821,1.0019,1.0609,1.1002,1.1194,1.1194,1.1194,0.0719,-0.0095,-0.096,-0.1078,-0.1403,-0.1909,-0.2625,-0.2897,-0.3018,-0.3073,-0.3265,-0.3391,-0.3397,-0.3438,-0.3532,-0.3592,-0.3862,-0.4073,-0.4214,-0.4509,-0.468,-0.4645,-0.4751,-0.4812,-0.4782,-0.5,-0.5108,-0.5108,-0.5277,-0.5382,-0.5382,-0.5382,-0.5382,-0.5382,-0.5382,-0.5382,-0.5382,-0.5382,-0.5382,-0.5382,-0.5382,-0.5382,-0.5382,-0.5382,-0.5382,-0.5382,-0.5382,-0.5382,-0.5382,-0.5382,-0.5275,-0.4815,-0.235,0.0379,0.2942,0.3264,0.3425,0.3425,0.3425,0.3425,0.3424,0.342,0.3418,0.3418,0.3414,0.3413,0.3413,0.3413,0.3375,0.3334,0.333,0.3324,0.3307,0.3195,0.318,0.318,0.318,0.318,0.3161,0.3097,0.3133,0.3172,0.3218,0.3271,0.3335,0.3397,0.341,0.3413,0.3413,0.3413,0.3413,0.3413,0.3413,0.3413,0.3413,0.3461,0.3773,0.4455,0.6664,0.7736,0.7235,0.7932,0.8131,0.763,0.8474,0.927,1.0019,1.0068,1.0462,1.1194,1.1194,1.1194,0.0697,-0.0143,-0.1012,-0.1027,-0.1685,-0.2435,-0.2899,-0.306,-0.3134,-0.3169,-0.3275,-0.3416,-0.3438,-0.3612,-0.3759,-0.3791,-0.395,-0.4132,-0.4312,-0.4473,-0.4594,-0.4651,-0.4763,-0.4784,-0.4784,-0.4949,-0.5047,-0.5104,-0.5224,-0.532,-0.5377,-0.5382,-0.5382,-0.5382,-0.5382,-0.5382,-0.5382,-0.5382,-0.5382,-0.5382,-0.5382,-0.5382,-0.5382,-0.5382,-0.5382,-0.5377,-0.532,-0.5296,-0.5237,-0.4854,-0.4164,-0.3007,-0.0215,0.1821,0.3252,0.3358,0.3413,0.3413,0.3413,0.3413,0.3406,0.3368,0.3356,0.3349,0.3311,0.3298,0.3298,0.3298,0.3232,0.3223,0.3312,0.3293,0.3208,0.3185,0.318,0.318,0.318,0.318,0.3162,0.3102,0.3169,0.3224,0.3187,0.3342,0.3439,0.3462,0.3497,0.3521,0.3521,0.3521,0.3521,0.3521,0.3521,0.3506,0.3467,0.379,0.4204,0.4741,0.5357,0.5782,0.5938,0.6559,0.6817,0.6608,0.7743,0.8419,0.8625,0.9632,1.0224,1.0462,1.0949,1.1194,0.0443,-0.0242,-0.094,-0.1263,-0.2019,-0.2768,-0.3066,-0.316,-0.3201,-0.3258,-0.3342,-0.3478,-0.356,-0.3732,-0.3875,-0.3932,-0.4071,-0.4234,-0.4364,-0.4514,-0.4606,-0.4698,-0.4783,-0.4784,-0.4784,-0.4918,-0.4998,-0.5059,-0.5151,-0.5228,-0.5292,-0.5322,-0.5339,-0.5339,-0.5367,-0.5382,-0.5382,-0.5382,-0.5367,-0.5339,-0.5339,-0.5353,-0.538,-0.5351,-0.5339,-0.5333,-0.5241,-0.5148,-0.5142,-0.4708,-0.3445,-0.1475,0.0944,0.2462,0.3356,0.3356,0.3356,0.3356,0.3356,0.3356,0.3347,0.3307,0.3293,0.3285,0.3192,0.318,0.318,0.318,0.318,0.3189,0.3282,0.3211,0.318,0.318,0.318,0.318,0.318,0.3195,0.3196,0.3156,0.323,0.3342,0.3319,0.3416,0.3503,0.3522,0.3561,0.3587,0.3587,0.3587,0.3587,0.3587,0.3587,0.3571,0.3529,0.4021,0.4494,0.4872,0.4922,0.5167,0.5693,0.6061,0.6273,0.6273,0.7167,0.7703,0.7865,0.8991,0.9752,1.0196,1.0743,1.1143,-0.0101,-0.0454,-0.0855,-0.1835,-0.2411,-0.2787,-0.3111,-0.3156,-0.3144,-0.3362,-0.344,-0.3556,-0.3769,-0.3804,-0.3866,-0.3964,-0.4114,-0.4234,-0.4366,-0.4514,-0.4606,-0.4698,-0.4783,-0.4784,-0.4784,-0.4916,-0.5023,-0.5023,-0.5055,-0.5106,-0.5108,-0.514,-0.5188,-0.5188,-0.5331,-0.538,-0.538,-0.538,-0.5333,-0.5188,-0.5188,-0.529,-0.5375,-0.5284,-0.5188,-0.5184,-0.5147,-0.5106,-0.5106,-0.5053,-0.3416,-0.0723,0.066,0.2017,0.318,0.318,0.318,0.318,0.318,0.318,0.318,0.318,0.318,0.318,0.318,0.318,0.318,0.318,0.318,0.318,0.318,0.318,0.318,0.318,0.3181,0.3181,0.3181,0.3279,0.3322,0.3322,0.3372,0.3431,0.3486,0.3497,0.3518,0.3578,0.3587,0.3587,0.3587,0.3587,0.3587,0.3587,0.3587,0.3587,0.3587,0.4145,0.448,0.448,0.565,0.6446,0.6762,0.6804,0.6804,0.6804,0.6804,0.7173,0.8013,0.8013,0.8849,1.0468,1.0521,1.0988,0.007,-0.0578,-0.1216,-0.1698,-0.2368,-0.295,-0.3091,-0.3209,-0.3368,-0.3511,-0.3622,-0.374,-0.3793,-0.396,-0.4048,-0.3996,-0.4163,-0.4302,-0.4372,-0.4514,-0.4606,-0.4698,-0.4783,-0.4784,-0.4784,-0.4859,-0.4902,-0.5019,-0.4998,-0.5041,-0.5104,-0.5135,-0.5149,-0.5149,-0.5175,-0.519,-0.519,-0.519,-0.5175,-0.5149,-0.5149,-0.5163,-0.5188,-0.5161,-0.5149,-0.5143,-0.5051,-0.5012,-0.4902,-0.3498,-0.1326,0.1168,0.1616,0.2371,0.318,0.318,0.318,0.318,0.318,0.318,0.318,0.318,0.318,0.318,0.318,0.318,0.318,0.318,0.318,0.318,0.318,0.318,0.318,0.318,0.3212,0.3294,0.3294,0.3342,0.3386,0.3386,0.3432,0.3477,0.3493,0.3531,0.3567,0.3585,0.3587,0.3587,0.3587,0.3587,0.3587,0.3587,0.3587,0.3587,0.3587,0.3755,0.4033,0.4479,0.526,0.5901,0.6449,0.6446,0.6665,0.7051,0.6665,0.6738,0.7305,0.7886,0.8683,0.9679,1.0256,1.0988,-0.0304,-0.0938,-0.157,-0.2159,-0.2639,-0.3038,-0.3207,-0.3365,-0.3509,-0.365,-0.3752,-0.3868,-0.3865,-0.4036,-0.4165,-0.4144,-0.423,-0.433,-0.4376,-0.4514,-0.4606,-0.4698,-0.4783,-0.4784,-0.4784,-0.4784,-0.4857,-0.4912,-0.4916,-0.4941,-0.4996,-0.5035,-0.5053,-0.5053,-0.509,-0.5108,-0.5108,-0.5108,-0.509,-0.5053,-0.5053,-0.5035,-0.5,-0.5039,-0.5053,-0.5049,-0.4751,-0.4459,-0.4148,-0.2074,-0.0252,0.131,0.2169,0.2775,0.318,0.318,0.318,0.318,0.318,0.318,0.318,0.318,0.318,0.318,0.318,0.318,0.318,0.318,0.318,0.318,0.318,0.318,0.318,0.318,0.3208,0.3285,0.3285,0.3352,0.3413,0.3413,0.3477,0.3533,0.3533,0.3563,0.3587,0.3587,0.3587,0.3587,0.3587,0.3587,0.3587,0.3587,0.3587,0.3587,0.3587,0.4033,0.4257,0.4145,0.5148,0.5817,0.5929,0.6429,0.6818,0.721,0.6821,0.6787,0.7109,0.7592,0.8361,0.9503,0.9987,1.0894,-0.0969,-0.1406,-0.1887,-0.2923,-0.3101,-0.3123,-0.3424,-0.3571,-0.3663,-0.3785,-0.3842,-0.3936,-0.3978,-0.4118,-0.421,-0.4285,-0.43,-0.4328,-0.4366,-0.4502,-0.4594,-0.4685,-0.4771,-0.4776,-0.4782,-0.4784,-0.4784,-0.4784,-0.4784,-0.4784,-0.4784,-0.4914,-0.4959,-0.4959,-0.5041,-0.5084,-0.5084,-0.5084,-0.5043,-0.4959,-0.4907,-0.4865,-0.4738,-0.4871,-0.4907,-0.4801,-0.4215,-0.358,-0.2876,-0.0857,0.005,0.0403,0.2422,0.318,0.318,0.318,0.318,0.318,0.318,0.318,0.318,0.318,0.318,0.318,0.318,0.3176,0.3172,0.3172,0.3168,0.3214,0.3214,0.3214,0.3214,0.3214,0.3177,0.3188,0.3188,0.3334,0.342,0.342,0.3511,0.3587,0.3587,0.3587,0.3587,0.3587,0.3587,0.3587,0.3587,0.3587,0.3587,0.3587,0.3587,0.3643,0.3699,0.4646,0.4814,0.3755,0.5204,0.5873,0.5316,0.6429,0.7099,0.721,0.7154,0.7154,0.721,0.721,0.8036,0.9688,0.9743,1.0676,-0.0891,-0.1554,-0.2219,-0.2869,-0.3232,-0.3403,-0.3483,-0.3622,-0.3777,-0.3798,-0.3893,-0.397,-0.399,-0.4165,-0.4277,-0.4295,-0.43,-0.4306,-0.4324,-0.4408,-0.4498,-0.4591,-0.4681,-0.4763,-0.4778,-0.4784,-0.4784,-0.4784,-0.4784,-0.4784,-0.4784,-0.4802,-0.4863,-0.4863,-0.4833,-0.4843,-0.4843,-0.4843,-0.4833,-0.4813,-0.441,-0.4199,-0.4183,-0.4201,-0.4008,-0.3603,-0.3438,-0.2724,-0.1563,-0.0454,0.0605,0.1664,0.2775,0.318,0.318,0.318,0.318,0.318,0.318,0.318,0.318,0.318,0.318,0.318,0.318,0.3146,0.311,0.311,0.3125,0.3137,0.3137,0.3137,0.3137,0.3137,0.3198,0.3301,0.3301,0.3395,0.3478,0.3478,0.3538,0.3587,0.3587,0.3587,0.3587,0.3587,0.3587,0.3587,0.3587,0.3587,0.3587,0.3587,0.3587,0.3811,0.4257,0.4089,0.4089,0.4313,0.4646,0.4814,0.4702,0.5371,0.6207,0.7154,0.6707,0.6707,0.721,0.721,0.7765,0.8813,0.9467,1.0351,-0.0977,-0.1748,-0.2543,-0.2979,-0.3293,-0.3499,-0.3499,-0.3674,-0.3802,-0.3802,-0.391,-0.3994,-0.3994,-0.4179,-0.43,-0.43,-0.43,-0.43,-0.43,-0.4377,-0.4406,-0.45,-0.4626,-0.4726,-0.4769,-0.476,-0.4784,-0.4784,-0.4784,-0.4784,-0.4784,-0.4784,-0.4784,-0.4784,-0.4784,-0.4784,-0.4784,-0.4533,-0.4435,-0.4435,-0.3883,-0.3481,-0.3228,-0.3481,-0.333,-0.2826,-0.2826,-0.227,-0.1312,-0.0504,0.0454,0.1513,0.232,0.2876,0.318,0.318,0.318,0.318,0.318,0.318,0.318,0.318,0.3161,0.3137,0.3137,0.3144,0.3097,0.3097,0.3122,0.3097,0.3097,0.3097,0.3097,0.3097,0.3144,0.3192,0.322,0.3372,0.3465,0.3492,0.3545,0.3587,0.3587,0.3587,0.3587,0.3587,0.3587,0.3587,0.3587,0.3587,0.3587,0.3587,0.3587,0.3699,0.4033,0.4033,0.4033,0.4089,0.4592,0.4925,0.4925,0.5483,0.6151,0.6763,0.6763,0.6874,0.721,0.721,0.7873,0.914,0.9578,1.0515,-0.1087,-0.1954,-0.2815,-0.3111,-0.3365,-0.3499,-0.3499,-0.3674,-0.3802,-0.3802,-0.3895,-0.3974,-0.399,-0.4169,-0.4281,-0.4297,-0.43,-0.43,-0.43,-0.4363,-0.4372,-0.4386,-0.4569,-0.4667,-0.4683,-0.4763,-0.4762,-0.4762,-0.4776,-0.4784,-0.4784,-0.4784,-0.4784,-0.4784,-0.4734,-0.4684,-0.4684,-0.4133,-0.3883,-0.3833,-0.333,-0.2775,-0.227,-0.2716,-0.2667,-0.227,-0.227,-0.2019,-0.1516,-0.0606,0.0202,0.0907,0.1815,0.2623,0.318,0.318,0.318,0.318,0.318,0.3173,0.3165,0.3165,0.3125,0.3124,0.3124,0.3082,0.3081,0.3081,0.3075,0.3066,0.3066,0.3066,0.3066,0.3066,0.3065,0.3079,0.3149,0.3319,0.3427,0.3473,0.354,0.3587,0.3587,0.3587,0.3587,0.3587,0.3587,0.3587,0.3587,0.3587,0.3587,0.3587,0.3587,0.3643,0.3755,0.4145,0.4201,0.3755,0.459,0.5093,0.5093,0.565,0.5984,0.5984,0.6765,0.7154,0.7043,0.7154,0.8039,0.9578,0.9743,1.0621,-0.1039,-0.1968,-0.2999,-0.3175,-0.3365,-0.3499,-0.3499,-0.3674,-0.3802,-0.3802,-0.3846,-0.3942,-0.398,-0.412,-0.4214,-0.4287,-0.43,-0.43,-0.43,-0.431,-0.4346,-0.438,-0.441,-0.4502,-0.4583,-0.4671,-0.4726,-0.4726,-0.4744,-0.4784,-0.4784,-0.4784,-0.4784,-0.4784,-0.4334,-0.4083,-0.4083,-0.3581,-0.3331,-0.3281,-0.2775,-0.2221,-0.1716,-0.1787,-0.179,-0.1718,-0.1718,-0.1667,-0.1465,0.0,0.0706,0.0958,0.2472,0.313,0.318,0.318,0.318,0.318,0.318,0.3146,0.3102,0.3102,0.311,0.3109,0.3109,0.3065,0.3016,0.3016,0.298,0.2943,0.2943,0.2943,0.2943,0.2943,0.2987,0.3014,0.3078,0.3289,0.3414,0.3422,0.3512,0.3587,0.3587,0.3587,0.3587,0.3587,0.3587,0.3587,0.3587,0.3587,0.3587,0.3587,0.3587,0.3811,0.4313,0.3977,0.3923,0.4369,0.4033,0.3866,0.3866,0.4424,0.4758,0.4758,0.6374,0.6932,0.6429,0.6932,0.7709,0.8706,0.9467,1.0351,-0.1763,-0.247,-0.3028,-0.3181,-0.3326,-0.3438,-0.3489,-0.3597,-0.3701,-0.3791,-0.3835,-0.385,-0.3942,-0.4077,-0.4229,-0.4222,-0.4269,-0.43,-0.43,-0.43,-0.4314,-0.4355,-0.4358,-0.4404,-0.4491,-0.4579,-0.4632,-0.4632,-0.4714,-0.4765,-0.4765,-0.476,-0.4784,-0.4784,-0.4284,-0.3982,-0.3982,-0.3177,-0.2624,-0.2323,-0.2048,-0.1839,-0.159,-0.156,-0.1563,-0.159,-0.1573,-0.1566,-0.1469,-0.0346,0.0397,0.0944,0.2109,0.2826,0.318,0.318,0.318,0.3176,0.3141,0.3113,0.3085,0.31,0.3095,0.3044,0.3044,0.3004,0.2957,0.2957,0.2938,0.292,0.292,0.292,0.292,0.292,0.2962,0.3029,0.307,0.3233,0.3391,0.3491,0.3552,0.3587,0.3587,0.3587,0.3587,0.3587,0.3587,0.3587,0.3587,0.3587,0.3587,0.3587,0.3587,0.3699,0.3977,0.3755,0.3699,0.3977,0.4089,0.4089,0.4089,0.4702,0.4869,0.448,0.5929,0.6541,0.6318,0.693,0.7873,0.9251,0.9633,1.0515,-0.2358,-0.2834,-0.2966,-0.314,-0.326,-0.3358,-0.3473,-0.3565,-0.3652,-0.3783,-0.3802,-0.3824,-0.3852,-0.3995,-0.4112,-0.4134,-0.421,-0.4267,-0.4267,-0.4285,-0.43,-0.43,-0.4359,-0.4354,-0.4354,-0.4483,-0.4538,-0.4538,-0.4622,-0.4673,-0.4673,-0.4755,-0.4754,-0.4754,-0.4273,-0.3932,-0.3783,-0.2711,-0.2005,-0.1605,-0.1575,-0.156,-0.1559,-0.1528,-0.1527,-0.1596,-0.1533,-0.1478,-0.1432,-0.0678,0.0097,0.0975,0.1739,0.2504,0.316,0.3175,0.3171,0.3152,0.3106,0.3071,0.3086,0.3088,0.3032,0.2983,0.2983,0.2953,0.292,0.292,0.292,0.292,0.292,0.292,0.292,0.292,0.2951,0.3016,0.3141,0.3237,0.3392,0.3556,0.3587,0.3587,0.3587,0.3575,0.357,0.3585,0.3574,0.357,0.3585,0.3587,0.3587,0.3587,0.3587,0.3587,0.3587,0.3587,0.3587,0.3587,0.4033,0.4257,0.4257,0.4702,0.4758,0.4257,0.5316,0.5929,0.6096,0.6652,0.7925,0.9798,0.9798,1.0731,-0.243,-0.2762,-0.2768,-0.3032,-0.3166,-0.3247,-0.3458,-0.3565,-0.3652,-0.3783,-0.3802,-0.3804,-0.3808,-0.3848,-0.3942,-0.3986,-0.412,-0.4222,-0.4222,-0.4249,-0.43,-0.43,-0.4304,-0.4306,-0.4306,-0.4389,-0.4396,-0.4396,-0.4528,-0.4627,-0.4627,-0.4665,-0.4714,-0.4714,-0.4246,-0.3732,-0.323,-0.2182,-0.1623,-0.1623,-0.1543,-0.1528,-0.1528,-0.1497,-0.1484,-0.1487,-0.1514,-0.1478,-0.1431,-0.062,0.0143,0.0909,0.1754,0.2504,0.3102,0.316,0.3144,0.3094,0.3091,0.3064,0.3014,0.301,0.2971,0.2924,0.2924,0.2921,0.292,0.292,0.292,0.292,0.292,0.292,0.292,0.292,0.2921,0.2958,0.3245,0.336,0.3443,0.3564,0.3587,0.3587,0.3587,0.354,0.3521,0.3579,0.3538,0.3522,0.3579,0.3587,0.3587,0.3587,0.3587,0.3587,0.3587,0.3587,0.3587,0.3587,0.3643,0.3643,0.3643,0.3699,0.3699,0.3643,0.4257,0.4869,0.5427,0.604,0.7534,0.9798,0.9798,1.0731,-0.2458,-0.2715,-0.2742,-0.2981,-0.3115,-0.3225,-0.3385,-0.3524,-0.3652,-0.3783,-0.3802,-0.3802,-0.3802,-0.3838,-0.391,-0.3942,-0.4026,-0.4085,-0.4085,-0.411,-0.4151,-0.421,-0.4218,-0.4238,-0.4293,-0.4328,-0.4349,-0.4349,-0.4432,-0.4485,-0.4485,-0.4571,-0.4622,-0.4622,-0.4118,-0.3451,-0.2581,-0.1886,-0.1543,-0.1542,-0.1511,-0.1497,-0.1496,-0.1466,-0.1452,-0.1452,-0.1418,-0.1422,-0.1377,-0.0605,0.014,0.089,0.1719,0.2454,0.3089,0.315,0.3109,0.3085,0.3095,0.3101,0.3051,0.2975,0.2935,0.292,0.292,0.292,0.292,0.292,0.292,0.292,0.292,0.292,0.292,0.292,0.2947,0.3036,0.3214,0.3342,0.3447,0.3564,0.3587,0.3587,0.3587,0.3537,0.3504,0.3526,0.3511,0.3504,0.3526,0.3563,0.3587,0.3587,0.3587,0.3587,0.3587,0.3587,0.3587,0.3587,0.3587,0.3587,0.3587,0.3587,0.3587,0.3587,0.3811,0.4201,0.4814,0.5817,0.7313,0.9237,0.9629,1.0731,-0.2435,-0.2691,-0.2728,-0.2904,-0.3024,-0.3175,-0.3364,-0.3479,-0.3618,-0.3777,-0.3802,-0.3802,-0.3802,-0.3851,-0.3852,-0.3852,-0.393,-0.3948,-0.3948,-0.3974,-0.4017,-0.412,-0.4126,-0.4148,-0.4206,-0.4238,-0.4257,-0.4257,-0.4338,-0.4344,-0.4344,-0.4477,-0.4493,-0.4379,-0.3808,-0.3095,-0.2241,-0.1753,-0.151,-0.151,-0.148,-0.1466,-0.1465,-0.1399,-0.1391,-0.1391,-0.1391,-0.1391,-0.1347,-0.0865,-0.0229,0.0459,0.1263,0.2028,0.2743,0.2991,0.3109,0.3101,0.3087,0.3065,0.305,0.2951,0.292,0.292,0.292,0.292,0.292,0.292,0.292,0.292,0.292,0.292,0.292,0.292,0.2962,0.3044,0.3139,0.3282,0.3422,0.3561,0.3587,0.358,0.356,0.3507,0.3469,0.3469,0.3451,0.3451,0.3492,0.3531,0.3565,0.3585,0.3587,0.3587,0.3587,0.3587,0.3587,0.3587,0.3587,0.3587,0.3587,0.3587,0.3587,0.3587,0.3587,0.3923,0.448,0.5483,0.6977,0.8906,0.9519,1.0731,0.0,0.0,0.0,-0.2772,-0.2891,-0.3059,-0.3329,-0.3432,-0.3552,-0.3762,-0.38,-0.3802,-0.3802,-0.3802,-0.3802,-0.3802,-0.3838,-0.3895,-0.3895,-0.3971,-0.3986,-0.399,-0.399,-0.399,-0.3994,-0.4118,-0.4212,-0.4216,-0.4249,-0.4295,-0.43,-0.4338,-0.4237,-0.3892,-0.328,-0.2757,-0.2282,-0.1773,-0.1479,-0.1479,-0.1449,-0.1391,-0.1391,-0.1391,-0.1391,-0.1391,-0.1391,-0.1391,-0.139,-0.139,-0.0987,-0.0269,0.0504,0.1294,0.2039,0.2789,0.3094,0.3086,0.3027,0.3005,0.2996,0.2939,0.2921,0.292,0.292,0.292,0.292,0.292,0.292,0.292,0.292,0.292,0.292,0.292,0.2961,0.3019,0.3083,0.3189,0.3369,0.3548,0.3585,0.3568,0.3507,0.345,0.3412,0.341,0.336,0.3362,0.3477,0.3495,0.3519,0.3578,0.3586,0.3587,0.3587,0.3587,0.3587,0.3587,0.3587,0.3587,0.3587,0.3587,0.3587,0.3587,0.3587,0.3923,0.448,0.5093,0.6589,0.8851,0.9519,1.0735,-0.1946,0.0,0.0,0.0,0.0,0.0,-0.3181,-0.3387,-0.3605,-0.3652,-0.3716,-0.3802,-0.3802,-0.3802,-0.3802,-0.3802,-0.3824,-0.3841,-0.3841,-0.3864,-0.3863,-0.3928,-0.3936,-0.3963,-0.3988,-0.4017,-0.4102,0.0,-0.4239,-0.4234,-0.4295,-0.401,-0.3626,-0.3188,-0.2692,-0.2373,-0.2236,-0.1679,-0.1448,-0.1448,-0.1395,-0.1391,-0.1391,-0.1391,-0.1391,-0.1391,-0.1391,-0.1121,-0.0673,-0.0673,-0.0269,0.0448,0.1219,0.1991,0.2678,0.2916,0.303,0.3034,0.3062,0.3041,0.3001,0.2986,0.2953,0.292,0.292,0.292,0.292,0.292,0.292,0.292,0.292,0.292,0.292,0.292,0.2931,0.2971,0.3075,0.3123,0.3193,0.3425,0.3529,0.3568,0.3507,0.345,0.3398,0.3353,0.3332,0.3334,0.3365,0.3444,0.3503,0.3519,0.3561,0.3587,0.3587,0.3587,0.3587,0.3587,0.3587,0.3587,0.3587,0.3587,0.3587,0.3587,0.3587,0.3923,0.448,0.5093,0.6258,0.8033,0.9856,1.1345,0.0,0.0,-0.238,-0.2635,0.0,0.0,-0.313,-0.3369,-0.3595,-0.3669,-0.3765,-0.3802,-0.3802,-0.3802,-0.3802,-0.3802,-0.3802,-0.3802,-0.3802,-0.3802,-0.3822,-0.3836,-0.3842,-0.3865,-0.3918,-0.3957,-0.4018,-0.4108,-0.3976,-0.3858,-0.3714,-0.3451,-0.3093,-0.2645,-0.2333,-0.2109,-0.1884,-0.157,-0.1391,-0.1391,-0.1121,-0.0987,-0.0987,-0.0673,-0.0538,-0.0538,-0.0538,-0.0314,0.009,0.0403,0.0583,0.0762,0.1525,0.2064,0.2472,0.2819,0.2983,0.301,0.3045,0.3034,0.3004,0.3004,0.2965,0.292,0.292,0.292,0.292,0.292,0.292,0.292,0.292,0.292,0.292,0.292,0.292,0.2938,0.3008,0.3063,0.3144,0.3376,0.3486,0.353,0.3471,0.3435,0.3383,0.3296,0.3232,0.3293,0.3318,0.3382,0.3441,0.3492,0.3527,0.3559,0.3585,0.3587,0.3587,0.3587,0.3587,0.3587,0.3587,0.3587,0.3587,0.3587,0.3587,0.4033,0.4869,0.5204,0.648,0.8585,1.03,1.1564,0.0,0.0,0.0,-0.2352,-0.2698,0.0,-0.3013,-0.3255,-0.3499,-0.3694,-0.3736,-0.3742,-0.3742,-0.3742,-0.3742,-0.3742,-0.376,-0.3779,-0.38,-0.3802,-0.3802,-0.3802,-0.3802,-0.3802,-0.3802,-0.3836,-0.3922,-0.3972,-0.3676,-0.3319,-0.2899,-0.2814,-0.2593,-0.2109,-0.2109,-0.1885,-0.1391,-0.1345,-0.13,-0.13,-0.0583,-0.0269,-0.0269,0.0403,0.0718,0.0718,0.0718,0.0762,0.0852,0.1525,0.1436,0.0897,0.1615,0.193,0.2019,0.2649,0.2951,0.2996,0.3003,0.3004,0.3004,0.3004,0.2971,0.2928,0.2921,0.292,0.292,0.292,0.292,0.292,0.292,0.292,0.292,0.292,0.292,0.292,0.292,0.3003,0.3122,0.3347,0.3444,0.3476,0.3413,0.3409,0.3371,0.3197,0.318,0.3199,0.3305,0.3318,0.3361,0.3466,0.3489,0.3518,0.3572,0.3583,0.3587,0.3587,0.3587,0.3587,0.3587,0.3587,0.3587,0.3587,0.3755,0.4313,0.5427,0.5539,0.7033,0.9798,1.0574,1.1455,-0.0227,-0.0699,-0.1118,-0.1229,-0.17,0.0,-0.2138,-0.2693,-0.3179,-0.3213,-0.3281,-0.3332,-0.3332,-0.3332,-0.3332,-0.3332,-0.3454,-0.3601,-0.3781,-0.3802,-0.3802,-0.3802,-0.3802,-0.3802,-0.3802,-0.3818,-0.3828,-0.392,-0.3591,-0.3203,-0.2752,-0.2448,-0.2027,-0.1569,-0.157,-0.1525,-0.1391,-0.0852,-0.0583,-0.0583,0.0134,0.0493,0.0493,0.0628,0.0718,0.0718,0.0718,0.1031,0.1615,0.1749,0.1705,0.166,0.2379,0.2694,0.2694,0.2829,0.2926,0.2943,0.2989,0.3004,0.3004,0.3004,0.2997,0.2979,0.2933,0.292,0.292,0.292,0.292,0.292,0.292,0.292,0.292,0.292,0.292,0.292,0.292,0.2983,0.3033,0.3117,0.3357,0.3463,0.3357,0.338,0.3371,0.3197,0.318,0.3184,0.3196,0.3292,0.3331,0.3353,0.344,0.3501,0.3514,0.3559,0.3587,0.3587,0.3587,0.3587,0.3587,0.3587,0.3587,0.3587,0.4534,0.5148,0.5427,0.6374,0.7867,0.9798,0.9962,1.0899,0.0343,-0.0084,-0.0392,-0.0587,-0.1003,0.0,0.0,-0.1777,-0.2133,-0.223,-0.2262,-0.2319,-0.2319,-0.2319,-0.2319,-0.2319,-0.2356,-0.2439,-0.2586,-0.3307,-0.3802,-0.3802,-0.3802,-0.3802,-0.3802,-0.3802,-0.372,-0.3566,-0.3237,-0.2831,-0.2393,-0.1924,-0.1599,-0.1412,-0.1412,-0.1242,-0.0897,-0.0583,-0.0224,0.0179,0.0897,0.1256,0.1256,0.1615,0.1794,0.1794,0.1794,0.2019,0.2334,0.2334,0.2334,0.2379,0.2739,0.292,0.292,0.292,0.292,0.2928,0.2985,0.3004,0.301,0.304,0.3029,0.2998,0.2971,0.2942,0.292,0.292,0.292,0.292,0.292,0.292,0.292,0.292,0.292,0.292,0.292,0.2964,0.3023,0.3037,0.3219,0.3356,0.3326,0.3346,0.3337,0.3193,0.318,0.318,0.318,0.3207,0.339,0.368,0.3531,0.3648,0.4308,0.3854,0.3721,0.4032,0.3755,0.3587,0.3587,0.3587,0.3755,0.4033,0.4925,0.5539,0.5873,0.6763,0.8091,0.9798,1.0241,1.1177,0.0745,0.0505,0.0336,0.0,-0.0314,-0.0586,0.0,0.0,0.0,-0.1165,-0.1203,-0.1203,-0.1203,-0.1203,-0.1203,-0.1203,-0.1193,-0.1217,-0.1264,-0.241,-0.3277,-0.3317,-0.3449,-0.3476,-0.3326,-0.3284,-0.3127,-0.2774,-0.2442,-0.2059,-0.1627,-0.117,-0.0972,-0.1035,-0.104,-0.0745,-0.0223,-0.0045,0.0314,0.0942,0.166,0.2019,0.2019,0.2649,0.292,0.292,0.292,0.292,0.292,0.292,0.292,0.292,0.292,0.292,0.292,0.292,0.292,0.2925,0.2972,0.3003,0.3029,0.3066,0.3044,0.3004,0.3004,0.2964,0.292,0.292,0.292,0.292,0.292,0.292,0.292,0.292,0.292,0.292,0.292,0.2956,0.299,0.3003,0.3076,0.3202,0.3274,0.3307,0.33,0.3189,0.318,0.318,0.318,0.3281,0.3501,0.3863,0.3725,0.3941,0.4772,0.4091,0.3851,0.4308,0.3866,0.3587,0.3587,0.3699,0.3977,0.448,0.5204,0.5817,0.6318,0.7099,0.8257,0.9798,1.0519,1.14,0.1306,0.1178,0.115,0.1122,0.0674,0.0254,0.0255,0.0,-0.0483,-0.0514,0.0,-0.0514,-0.0514,0.0,0.0,-0.0514,-0.0664,-0.0783,-0.0778,-0.1084,-0.1401,-0.1644,-0.2269,-0.2351,-0.1657,-0.1466,-0.1346,-0.1176,-0.0757,-0.0419,-0.0244,0.0163,0.0371,0.0295,0.0344,0.0391,0.0479,0.1199,0.157,0.1705,0.2424,0.2784,0.2784,0.2873,0.292,0.292,0.292,0.292,0.292,0.292,0.292,0.292,0.292,0.292,0.292,0.292,0.292,0.292,0.2926,0.2998,0.3079,0.303,0.301,0.3004,0.3004,0.2964,0.292,0.292,0.292,0.292,0.292,0.292,0.292,0.292,0.292,0.292,0.292,0.2924,0.2944,0.2994,0.3022,0.3026,0.3091,0.3199,0.33,0.3189,0.318,0.318,0.318,0.3632,0.3736,0.3341,0.4157,0.4441,0.3682,0.3957,0.4074,0.3751,0.3643,0.3587,0.3587,0.4089,0.4424,0.448,0.5594,0.6207,0.6318,0.7706,0.8868,0.9798,0.9908,1.0844,0.1762,0.1562,0.1449,0.1601,0.1317,0.0999,0.1076,0.0,0.0728,0.0616,0.0,0.0,0.0,0.0,0.0,0.0,0.0562,0.0518,0.0469,0.0444,0.0034,-0.104,-0.1503,-0.1585,-0.1161,-0.0933,-0.0804,-0.0743,-0.0346,-0.0077,0.0,0.0398,0.0604,0.0576,0.0582,0.0799,0.1193,0.1505,0.1914,0.238,0.269,0.2884,0.292,0.292,0.292,0.292,0.292,0.292,0.292,0.292,0.292,0.292,0.292,0.292,0.292,0.292,0.292,0.292,0.292,0.2997,0.3098,0.306,0.304,0.3051,0.3015,0.2964,0.292,0.292,0.292,0.292,0.292,0.292,0.292,0.292,0.292,0.292,0.292,0.292,0.2926,0.295,0.2982,0.3032,0.3072,0.3158,0.3169,0.3179,0.3482,0.3682,0.3682,0.4133,0.4483,0.4583,0.4465,0.4642,0.5307,0.4716,0.4412,0.4639,0.3977,0.3755,0.4089,0.4367,0.4814,0.5539,0.604,0.6707,0.7595,0.7709,0.8478,0.9798,1.0296,1.0958,0.1939,0.1732,0.1606,0.0,0.0,0.0,0.0,0.0,0.0,0.1459,0.1431,0.0,0.0,0.0,0.0,0.0,0.0,0.1482,0.1441,0.152,0.109,-0.0224,-0.0454,-0.0536,0.0,-0.0221,0.0076,0.0115,0.0423,0.0657,0.0665,0.098,0.1107,0.1126,0.1133,0.1391,0.1874,0.1885,0.2205,0.2758,0.2758,0.2782,0.2826,0.2885,0.2893,0.2895,0.2911,0.292,0.292,0.292,0.292,0.292,0.292,0.292,0.292,0.292,0.292,0.292,0.292,0.2997,0.3106,0.312,0.3109,0.3111,0.3048,0.2989,0.2939,0.2924,0.292,0.292,0.292,0.292,0.292,0.292,0.292,0.292,0.292,0.292,0.292,0.292,0.3056,0.3257,0.3323,0.3341,0.3357,0.3422,0.3883,0.4234,0.4234,0.4684,0.5135,0.5336,0.4935,0.5112,0.6255,0.5373,0.4861,0.5137,0.4479,0.4201,0.4479,0.4814,0.5427,0.6262,0.6485,0.7207,0.8484,0.7654,0.7983,0.9471,1.0355,1.0852,0.0,0.0,0.0,0.1939,0.0,0.0,0.0,0.0,0.1797,0.0,0.0,0.0,0.0,0.0,0.0,0.0,0.0,0.0,0.0,0.1776,0.1639,0.1271,0.1284,0.1046,0.0335,0.1148,0.1764,0.1893,0.2122,0.2278,0.2426,0.2431,0.2433,0.2434,0.2489,0.2562,0.2563,0.2621,0.2692,0.2695,0.2695,0.2696,0.27,0.2759,0.2786,0.2789,0.2893,0.292,0.292,0.292,0.292,0.292,0.292,0.292,0.292,0.292,0.292,0.292,0.292,0.2997,0.3106,0.312,0.3089,0.3077,0.3112,0.3051,0.299,0.2935,0.292,0.292,0.292,0.292,0.292,0.292,0.292,0.292,0.292,0.292,0.292,0.292,0.3378,0.3817,0.3842,0.3869,0.3897,0.3971,0.4435,0.4784,0.4784,0.5233,0.5386,0.4885,0.5734,0.6027,0.5197,0.5585,0.5452,0.4582,0.5037,0.5093,0.4536,0.5594,0.6262,0.6318,0.6877,0.7598,0.8484,0.7654,0.7654,0.854,0.9416,1.0296,0.0,0.0,0.1989,0.204,0.0,0.0,0.0,0.0,0.0,0.0,0.0,0.0,0.0,0.0,0.0,0.0,0.0,0.0,0.0,0.1797,0.1769,0.1657,0.1723,0.1648,0.1267,0.1769,0.2147,0.2187,0.2332,0.2469,0.2508,0.2511,0.2511,0.2511,0.253,0.2541,0.2541,0.2561,0.2593,0.2632,0.2632,0.2653,0.2694,0.2714,0.2745,0.2785,0.2805,0.2837,0.292,0.292,0.292,0.292,0.292,0.292,0.292,0.292,0.292,0.2925,0.2962,0.3029,0.3106,0.312,0.309,0.3086,0.3115,0.3038,0.3,0.298,0.2949,0.292,0.292,0.292,0.292,0.292,0.292,0.292,0.292,0.3142,0.3379,0.3472,0.3913,0.4297,0.4388,0.4778,0.4931,0.4572,0.4985,0.5334,0.5334,0.5787,0.6034,0.5887,0.5887,0.5976,0.62,0.6187,0.6024,0.5701,0.5483,0.5483,0.5706,0.6096,0.6485,0.6874,0.7099,0.7928,0.9361,0.8481,0.8481,0.9361,0.9688,0.9962,0.2188,0.2157,0.0,0.2165,0.2056,0.0,0.1902,0.0,0.186,0.0,0.0,0.0,0.0,0.0,0.0,0.0,0.0,0.0,0.0,0.1797,0.1797,0.1797,0.1864,0.1896,0.1814,0.2047,0.2206,0.2293,0.2367,0.2466,0.2508,0.2511,0.2511,0.2511,0.2511,0.2511,0.2511,0.2511,0.253,0.257,0.257,0.259,0.2628,0.265,0.2694,0.2752,0.2774,0.2818,0.292,0.292,0.292,0.292,0.292,0.292,0.292,0.292,0.292,0.2924,0.2961,0.3014,0.3073,0.3087,0.3123,0.309,0.309,0.307,0.3033,0.3011,0.2962,0.292,0.292,0.292,0.292,0.292,0.3008,0.3141,0.3141,0.3497,0.3879,0.4007,0.4463,0.4859,0.5017,0.5515,0.5711,0.5177,0.5536,0.5884,0.5884,0.6187,0.6387,0.6387,0.6123,0.619,0.6794,0.6715,0.6541,0.6318,0.6151,0.6096,0.6318,0.6485,0.6818,0.721,0.721,0.8036,0.9798,0.8923,0.9089,1.0241,0.9962,0.9962]},{"header":{"parameterUnit":"m.s-1","parameterCategory":1,"la1":30.6,"la2":29.2853,"lo1":-89.7004,"lo2":-87.6739,"dy":0.0162,"dx":0.0183,"nx":112,"ny":82,"refTime":"2023-09-16T18:00:00:Z","depth":0,"parameterNumber":3,"parameterNumberName":"V-component_of_WINDS"},"data":[0.0,0.0,0.0,0.0,0.0,0.0,0.0,0.0,0.0,0.0,0.0,0.0,0.0,0.0,0.0,0.0,0.0,0.0,0.0,0.0,0.0,0.0,0.0,0.0,0.0,0.0,0.0,0.0,0.0,0.0,0.0,0.0,0.0,0.0,0.0,0.0,0.0,0.0,0.0,0.0,0.0,0.0,0.0,0.0,0.0,0.0,0.0,0.0,0.0,0.0,0.0,0.0,0.0,0.0,0.0,0.0,0.0,0.0,0.0,0.0,0.0,0.0,0.0,0.0,0.0,0.0,0.0,0.0,0.0,0.0,0.0,0.0,0.0,0.0,0.0,0.0,0.0,0.0,0.0,0.0,0.0,0.0,0.0,0.0,0.0,0.0,0.0,0.0,0.0,0.0,2.325,2.4232,2.6126,2.7299,2.7299,2.7299,2.6613,2.4991,0.0,0.0,0.0,0.0,0.0,0.0,0.0,0.0,0.0,0.0,0.0,0.0,0.0,0.0,0.0,0.0,0.0,0.0,0.0,0.0,0.0,0.0,0.0,0.0,0.0,0.0,0.0,0.0,0.0,0.0,0.0,0.0,0.0,0.0,0.0,0.0,0.0,0.0,0.0,0.0,0.0,0.0,0.0,0.0,0.0,0.0,0.0,0.0,0.0,0.0,0.0,0.0,0.0,0.0,0.0,0.0,0.0,0.0,0.0,0.0,0.0,0.0,0.0,0.0,0.0,0.0,0.0,0.0,0.0,0.0,0.0,0.0,0.0,0.0,0.0,0.0,0.0,0.0,0.0,0.0,0.0,0.0,0.0,0.0,0.0,0.0,0.0,0.0,0.0,0.0,0.0,0.0,0.0,0.0,0.0,0.0,0.0,0.0,0.0,0.0,0.0,0.0,0.0,0.0,2.4439,2.654,2.7092,2.7299,2.7299,2.7299,2.6597,2.4917,0.0,0.0,0.0,0.0,0.0,0.0,0.0,0.0,0.0,0.0,0.0,0.0,0.0,0.0,0.0,0.0,0.0,0.0,0.0,0.0,0.0,0.0,0.0,0.0,0.0,0.0,0.0,0.0,0.0,0.0,0.0,0.0,0.0,0.0,0.0,0.0,0.0,0.0,0.0,0.0,0.0,0.0,0.0,0.0,0.0,0.0,0.0,0.0,0.0,0.0,0.0,0.0,0.0,0.0,0.0,0.0,0.0,0.0,0.0,0.0,0.0,0.0,0.0,0.0,0.0,0.0,0.0,0.0,0.0,0.0,0.0,0.0,0.0,0.0,0.0,0.0,0.0,0.0,0.0,0.0,0.0,0.0,0.0,0.0,0.0,0.0,0.0,0.0,0.0,0.0,0.0,0.0,0.0,0.0,0.0,0.0,0.0,0.0,0.0,0.0,0.0,0.0,0.0,2.3529,2.5178,2.7108,2.7299,2.7454,2.7851,2.7902,2.7184,2.5501,2.54,0.0,0.0,0.0,0.0,0.0,0.0,0.0,0.0,0.0,0.0,0.0,0.0,0.0,0.0,0.0,0.0,0.0,0.0,0.0,0.0,0.0,0.0,0.0,0.0,0.0,0.0,0.0,0.0,0.0,0.0,0.0,0.0,0.0,0.0,0.0,0.0,0.0,0.0,0.0,0.0,0.0,0.0,0.0,0.0,0.0,0.0,0.0,0.0,0.0,0.0,0.0,0.0,0.0,0.0,0.0,0.0,0.0,0.0,0.0,0.0,0.0,0.0,0.0,0.0,0.0,0.0,0.0,0.0,0.0,0.0,0.0,0.0,0.0,0.0,0.0,0.0,0.0,0.0,0.0,0.0,0.0,0.0,0.0,0.0,0.0,0.0,0.0,0.0,0.0,0.0,0.0,0.0,0.0,0.0,0.0,0.0,0.0,0.0,0.0,0.0,0.0,0.0,2.4939,2.6057,2.742,2.7558,2.7851,2.861,2.8661,2.7941,2.627,2.5997,0.0,0.0,0.0,0.0,0.0,0.0,0.0,0.0,0.0,0.0,0.0,0.0,0.0,0.0,0.0,0.0,0.0,0.0,0.0,0.0,0.0,0.0,0.0,0.0,0.0,0.0,0.0,0.0,0.0,0.0,0.0,0.0,0.0,0.0,0.0,0.0,0.0,0.0,0.0,0.0,0.0,0.0,0.0,0.0,0.0,0.0,0.0,0.0,0.0,0.0,0.0,0.0,0.0,0.0,0.0,0.0,0.0,0.0,0.0,0.0,0.0,0.0,0.0,0.0,0.0,0.0,0.0,0.0,0.0,0.0,0.0,0.0,0.0,0.0,0.0,0.0,0.0,0.0,0.0,0.0,0.0,0.0,0.0,0.0,0.0,0.0,0.0,0.0,0.0,0.0,0.0,0.0,0.0,0.0,0.0,0.0,0.0,0.0,0.0,0.0,0.0,0.0,2.6212,2.7437,2.823,2.8316,2.8627,2.9368,2.942,2.8715,2.7023,2.6287,0.0,0.0,0.0,0.0,0.0,0.0,0.0,0.0,0.0,0.0,0.0,0.0,0.0,0.0,0.0,0.0,0.0,0.0,0.0,0.0,0.0,0.0,0.0,0.0,0.0,0.0,0.0,0.0,0.0,0.0,0.0,0.0,0.0,0.0,0.0,0.0,0.0,0.0,0.0,0.0,0.0,0.0,0.0,0.0,0.0,0.0,0.0,0.0,0.0,0.0,0.0,0.0,0.0,0.0,0.0,0.0,0.0,0.0,0.0,0.0,0.0,0.0,0.0,0.0,0.0,0.0,0.0,0.0,0.0,0.0,0.0,0.0,0.0,0.0,0.0,0.0,0.0,0.0,0.0,0.0,0.0,0.0,0.0,0.0,0.0,0.0,0.0,0.0,0.0,0.0,0.0,0.0,0.0,0.0,0.0,0.0,0.0,0.0,0.0,0.0,0.0,0.0,2.6626,2.7747,2.8954,2.9092,2.9403,3.0179,3.0248,2.9524,2.7775,0.0,0.0,0.0,0.0,0.0,0.0,0.0,0.0,0.0,0.0,0.0,0.0,0.0,0.0,0.0,0.0,0.0,0.0,0.0,0.0,0.0,0.0,0.0,0.0,0.0,0.0,0.0,0.0,0.0,0.0,0.0,0.0,0.0,0.0,0.0,0.0,0.0,0.0,0.0,0.0,0.0,0.0,0.0,0.0,0.0,0.0,0.0,0.0,0.0,0.0,0.0,0.0,0.0,0.0,0.0,0.0,0.0,0.0,0.0,0.0,0.0,0.0,0.0,0.0,0.0,0.0,0.0,0.0,0.0,0.0,0.0,0.0,0.0,0.0,0.0,0.0,0.0,0.0,0.0,0.0,0.0,0.0,0.0,0.0,0.0,0.0,0.0,0.0,0.0,0.0,0.0,0.0,0.0,0.0,0.0,0.0,0.0,0.0,0.0,0.0,0.0,0.0,2.5887,2.7213,2.8472,2.9748,2.9886,3.0196,3.0972,3.1041,3.0298,2.8579,0.0,0.0,0.0,0.0,0.0,0.0,0.0,0.0,0.0,0.0,0.0,0.0,0.0,0.0,0.0,0.0,0.0,0.0,0.0,0.0,0.0,0.0,0.0,0.0,0.0,0.0,0.0,0.0,0.0,0.0,0.0,0.0,0.0,0.0,0.0,0.0,0.0,0.0,0.0,0.0,0.0,0.0,0.0,0.0,0.0,0.0,0.0,0.0,0.0,0.0,0.0,0.0,0.0,0.0,0.0,0.0,0.0,0.0,0.0,0.0,0.0,0.0,0.0,0.0,0.0,0.0,0.0,0.0,0.0,0.0,0.0,0.0,0.0,0.0,0.0,0.0,0.0,0.0,0.0,0.0,0.0,0.0,0.0,0.0,0.0,0.0,0.0,0.0,0.0,0.0,0.0,0.0,0.0,0.0,0.0,0.0,0.0,0.0,0.0,0.0,0.0,0.0,2.6094,2.8109,2.9817,3.0645,3.0696,3.1007,3.1731,3.18,3.1089,0.0,0.0,0.0,0.0,0.0,0.0,0.0,0.0,0.0,0.0,0.0,0.0,0.0,0.0,0.0,0.0,0.0,0.0,0.0,0.0,0.0,0.0,0.0,0.0,0.0,0.0,0.0,0.0,0.0,0.0,0.0,0.0,0.0,0.0,0.0,0.0,0.0,0.0,0.0,0.0,0.0,0.0,0.0,0.0,0.0,0.0,0.0,0.0,0.0,0.0,0.0,0.0,0.0,0.0,0.0,0.0,0.0,0.0,0.0,0.0,0.0,0.0,0.0,0.0,0.0,0.0,0.0,0.0,0.0,0.0,0.0,0.0,0.0,0.0,0.0,0.0,0.0,0.0,0.0,0.0,0.0,0.0,0.0,0.0,0.0,0.0,0.0,0.0,0.0,0.0,0.0,0.0,0.0,0.0,0.0,0.0,0.0,0.0,0.0,0.0,0.0,0.0,0.0,2.6025,2.8592,3.0627,3.1386,3.1472,3.1558,3.1783,3.18,3.1332,3.0209,0.0,0.0,0.0,0.0,0.0,0.0,0.0,0.0,0.0,0.0,0.0,0.0,0.0,0.0,0.0,0.0,0.0,0.0,0.0,0.0,0.0,0.0,0.0,0.0,0.0,0.0,0.0,0.0,0.0,0.0,0.0,0.0,0.0,0.0,0.0,0.0,0.0,0.0,0.0,0.0,0.0,0.0,0.0,0.0,0.0,0.0,0.0,0.0,0.0,0.0,0.0,0.0,0.0,0.0,0.0,0.0,0.0,0.0,0.0,0.0,0.0,0.0,0.0,0.0,0.0,0.0,0.0,0.0,0.0,0.0,0.0,0.0,0.0,0.0,0.0,0.0,0.0,0.0,0.0,0.0,0.0,0.0,0.0,0.0,0.0,0.0,0.0,0.0,0.0,0.0,0.0,0.0,0.0,0.0,0.0,0.0,0.0,0.0,0.0,0.0,0.0,0.0,2.6971,2.942,3.13,3.1748,3.18,3.18,3.18,3.18,3.1418,3.0571,0.0,0.0,0.0,0.0,0.0,0.0,0.0,0.0,0.0,0.0,0.0,0.0,0.0,0.0,0.0,0.0,0.0,0.0,0.0,0.0,0.0,0.0,0.0,0.0,0.0,0.0,0.0,0.0,0.0,0.0,0.0,0.0,0.0,0.0,0.0,0.0,0.0,0.0,0.0,0.0,0.0,0.0,0.0,0.0,0.0,0.0,0.0,0.0,0.0,0.0,0.0,0.0,0.0,0.0,0.0,0.0,0.0,0.0,0.0,0.0,0.0,0.0,0.0,0.0,0.0,0.0,0.0,0.0,0.0,0.0,0.0,0.0,0.0,0.0,0.0,0.0,0.0,0.0,0.0,0.0,0.0,0.0,0.0,0.0,0.0,0.0,0.0,0.0,0.0,0.0,0.0,0.0,0.0,0.0,0.0,0.0,0.0,0.0,0.0,0.0,0.0,0.0,2.8299,3.0351,3.18,3.18,3.18,3.18,3.18,3.18,3.1453,3.0657,0.0,0.0,0.0,0.0,0.0,0.0,0.0,0.0,0.0,0.0,0.0,0.0,0.0,0.0,0.0,0.0,0.0,0.0,0.0,0.0,0.0,0.0,0.0,0.0,0.0,0.0,0.0,0.0,0.0,0.0,0.0,0.0,0.0,0.0,0.0,0.0,0.0,0.0,0.0,0.0,0.0,0.0,0.0,0.0,0.0,0.0,0.0,0.0,0.0,0.0,0.0,0.0,0.0,0.0,0.0,0.0,0.0,0.0,0.0,0.0,1.852,0.0,0.0,0.0,0.0,0.0,0.0,0.0,0.0,0.0,0.0,0.0,0.0,0.0,0.0,0.0,0.0,0.0,0.0,0.0,0.0,0.0,0.0,0.0,0.0,0.0,0.0,0.0,0.0,0.0,0.0,0.0,0.0,0.0,0.0,0.0,0.0,0.0,0.0,0.0,0.0,0.0,2.7523,3.0024,3.18,3.18,3.18,3.18,3.18,3.18,3.1731,3.154,3.0864,0.0,0.0,0.0,0.0,0.0,0.0,0.0,0.0,0.0,0.0,0.0,0.0,0.0,0.0,0.0,0.0,0.0,0.0,0.0,0.0,0.0,0.0,0.0,0.0,0.0,0.0,0.0,0.0,0.0,0.0,0.0,0.0,0.0,0.0,0.0,0.0,0.0,0.0,0.0,0.0,0.0,0.0,0.0,0.0,0.0,0.0,0.0,0.0,0.0,0.0,0.0,0.0,0.0,0.0,0.0,0.0,0.0,0.0,0.0,0.0,1.9323,0.0,0.0,0.0,0.0,0.0,0.0,0.0,0.0,0.0,0.0,0.0,0.0,0.0,0.0,0.0,0.0,0.0,0.0,0.0,0.0,0.0,0.0,0.0,0.0,0.0,0.0,0.0,0.0,0.0,0.0,0.0,0.0,0.0,0.0,0.0,0.0,0.0,0.0,0.0,0.0,2.8316,3.0368,3.18,3.18,3.18,3.18,3.18,3.18,3.18,3.18,3.1312,0.0,0.0,0.0,0.0,0.0,0.0,0.0,0.0,0.0,0.0,0.0,0.0,0.0,0.0,0.0,0.0,0.0,0.0,0.0,0.0,0.0,0.0,0.0,0.0,0.0,0.0,0.0,0.0,0.0,0.0,0.0,0.0,0.0,0.0,0.0,0.0,0.0,0.0,0.0,0.0,0.0,0.0,0.0,0.0,0.0,0.0,0.0,0.0,0.0,0.0,0.0,0.0,0.0,2.2268,2.2536,2.2842,2.2842,2.3956,2.5805,2.3697,2.3526,2.448,2.121,0.0,0.0,0.0,0.0,0.0,0.0,0.0,0.0,0.0,0.0,0.0,0.0,0.0,0.0,0.0,0.0,0.0,0.0,0.0,0.0,0.0,0.0,0.0,0.0,2.4513,2.562,2.297,0.0,0.0,0.0,0.0,0.0,0.0,0.0,0.0,0.0,0.0,0.0,2.961,3.0956,3.1837,3.18,3.1838,3.1856,3.18,3.1911,3.1912,3.1818,3.1764,3.1691,0.0,0.0,0.0,0.0,0.0,0.0,0.0,0.0,0.0,0.0,0.0,0.0,0.0,0.0,0.0,0.0,0.0,0.0,0.0,0.0,0.0,0.0,0.0,0.0,0.0,0.0,0.0,0.0,0.0,0.0,0.0,0.0,1.9038,1.9131,0.0,0.0,0.0,0.0,0.0,0.0,0.0,0.0,0.0,0.0,0.0,0.0,0.0,2.1936,2.3063,2.4396,2.5188,2.5469,2.6799,2.7818,2.8522,2.8522,2.9062,2.9998,2.9678,0.0,2.4828,2.4307,0.0,0.0,0.0,0.0,0.0,0.0,0.0,0.0,0.0,0.0,0.0,0.0,0.0,0.0,0.0,0.0,0.0,0.0,0.0,0.0,0.0,0.0,2.8588,2.9109,2.9073,2.8788,0.0,2.5985,2.4081,2.4619,2.5275,0.0,0.0,0.0,0.0,0.0,0.0,0.0,3.0455,3.1427,3.1983,3.1818,3.2055,3.2126,3.1837,3.2317,3.2419,3.1837,3.2055,3.202,3.1617,3.1579,0.0,0.0,0.0,0.0,0.0,0.0,0.0,0.0,0.0,0.0,0.0,0.0,0.0,0.0,0.0,0.0,0.0,0.0,0.0,0.0,0.0,0.0,0.0,0.0,0.0,0.0,0.0,0.0,0.0,1.6897,1.7601,1.7773,1.7358,1.6586,0.0,0.0,0.0,0.0,0.0,0.0,0.0,0.0,0.0,2.4354,2.4317,2.4962,2.6423,2.7555,2.8239,2.8532,2.9519,3.0241,3.0722,3.0993,3.1315,3.1677,3.2072,3.101,2.8879,2.745,2.5829,2.4145,0.0,0.0,0.0,0.0,2.226,2.244,2.3631,2.4046,2.3847,2.2684,0.0,0.0,0.0,0.0,0.0,0.0,0.0,0.0,0.0,0.0,2.7692,2.8909,2.9301,2.9512,2.994,2.9223,2.7929,0.0,2.5535,2.5164,2.4217,0.0,0.0,0.0,0.0,3.017,3.0734,3.1568,3.209,3.2073,3.2214,3.2231,3.2091,3.2352,3.23,3.1819,3.1947,3.1929,3.1727,3.1635,3.1201,0.0,0.0,0.0,0.0,0.0,0.0,0.0,0.0,0.0,0.0,0.0,0.0,0.0,0.0,0.0,0.0,0.0,0.0,0.0,0.0,0.0,0.0,0.0,0.0,0.0,0.0,0.0,0.0,1.7518,1.8079,1.7881,1.8675,1.8438,0.0,0.0,0.0,0.0,0.0,0.0,2.3449,2.3858,2.4994,2.695,2.7083,2.7779,2.9198,3.0009,3.0538,3.0783,3.1402,3.1912,3.2342,3.2888,3.3266,3.3473,3.4041,3.3922,3.3159,3.0308,2.8773,2.8086,2.6787,2.5996,2.5529,2.5371,2.5272,2.5413,2.6705,2.7145,2.6976,2.5968,2.517,2.4381,2.3032,0.0,0.0,0.0,0.0,2.4064,2.5877,2.7005,2.8031,2.9415,3.0201,3.0773,3.1314,3.1564,3.0888,0.0,2.7063,2.63,2.5164,0.0,0.0,0.0,2.9185,3.0664,3.1285,3.1916,3.2353,3.2453,3.2503,3.252,3.2437,3.2504,3.2369,3.1965,3.1929,3.1893,3.18,3.1709,3.1378,3.0794,0.0,0.0,0.0,0.0,0.0,0.0,0.0,0.0,0.0,0.0,0.0,0.0,0.0,0.0,0.0,0.0,0.0,0.0,0.0,0.0,0.0,0.0,0.0,0.0,0.0,0.0,0.0,0.0,0.0,2.1986,2.2922,0.0,0.0,0.0,0.0,2.2093,2.2868,2.4102,2.5838,2.5947,2.6795,2.8621,2.9399,2.9966,3.0309,3.1115,3.1611,3.1823,3.2684,3.3507,3.43,3.5079,3.5853,3.6577,3.6614,3.6614,3.6279,3.2656,2.9801,2.768,2.7011,2.5678,2.4286,2.5845,2.6297,2.6506,2.9106,2.9983,2.9731,2.8162,2.5932,2.4129,2.5526,2.4843,0.0,0.0,2.6435,2.7587,2.9898,3.166,3.3009,3.3743,3.3924,3.3944,3.3917,3.2741,3.1867,0.0,3.2525,3.1961,3.031,0.0,3.091,3.0064,3.0774,3.1733,3.2509,3.275,3.2848,3.2856,3.309,3.3124,3.2795,3.3063,3.297,3.2318,3.2266,3.2144,3.1818,3.18,3.171,3.1547,3.147,0.0,0.0,0.0,0.0,0.0,0.0,0.0,0.0,0.0,0.0,0.0,0.0,0.0,0.0,0.0,0.0,0.0,0.0,0.0,0.0,0.0,0.0,0.0,0.0,0.0,0.0,0.0,0.0,2.1406,2.3465,0.0,2.2291,2.3697,2.4759,2.4822,2.617,2.7303,2.799,2.8684,2.9328,2.9939,3.0918,3.1715,3.232,3.3133,3.3907,3.4679,3.5316,3.5881,3.6348,3.6941,3.7372,3.766,3.8134,3.8035,3.7442,3.5778,3.4493,3.3531,3.3325,3.2795,3.218,3.2265,3.2252,3.2249,3.2685,3.2831,3.2732,3.2157,3.1193,3.0344,3.0917,3.0667,3.0275,3.069,3.0974,3.1361,3.2195,3.2799,3.3273,3.3497,3.3964,3.4307,3.4176,3.4269,3.4353,3.4379,3.3152,3.1938,3.1339,3.2305,3.2876,3.2028,3.3182,3.4142,3.4179,3.4031,3.4,3.4175,3.4153,3.4186,3.4327,3.4636,3.4436,3.3467,3.3398,3.2999,3.2161,3.2126,3.2002,3.1727,3.1615,3.1521,0.0,0.0,0.0,0.0,0.0,0.0,0.0,0.0,0.0,0.0,0.0,0.0,0.0,0.0,0.0,0.0,0.0,0.0,0.0,0.0,0.0,0.0,0.0,0.0,0.0,2.1804,2.3598,2.1813,2.4545,2.5792,2.3811,2.5749,2.7267,2.7563,2.8755,2.9639,3.0013,3.0719,3.1133,3.1144,3.2382,3.3346,3.397,3.5038,3.5969,3.6785,3.7413,3.7811,3.8004,3.8885,3.9279,3.9316,4.0066,4.0111,3.9587,3.9242,3.8985,3.8618,3.6583,3.5544,3.5162,3.4611,3.4368,3.4258,3.4054,3.4001,3.4001,3.3997,3.3589,3.3118,3.3118,3.3118,3.308,3.2915,3.3218,3.3583,3.3488,3.4047,3.457,3.4452,3.5033,3.5575,3.5476,3.5971,3.6366,3.6093,3.4393,3.2977,3.29,3.384,3.432,3.3435,3.4691,3.5541,3.4999,3.4952,3.5095,3.5429,3.5238,3.5208,3.5582,3.5076,3.4704,3.4578,3.375,3.3089,3.2721,3.2564,3.2402,3.2179,3.2049,3.1835,3.1498,0.0,0.0,0.0,0.0,0.0,0.0,0.0,0.0,0.0,0.0,0.0,0.0,0.0,0.0,0.0,0.0,0.0,0.0,0.0,0.0,0.0,0.0,0.0,2.2236,2.412,2.5168,2.376,2.6537,2.7979,2.6504,2.814,2.9584,3.0302,3.0415,3.0869,3.185,3.1965,3.2096,3.2288,3.3913,3.4936,3.5221,3.6775,3.7695,3.7988,3.8813,3.9188,3.9246,4.0899,4.1647,4.1676,4.245,4.2794,4.2794,4.2794,4.2794,4.2183,3.6354,3.3473,3.2619,3.2619,3.2467,3.2373,3.3323,3.3646,3.3636,3.3604,3.2914,3.2057,3.2028,3.2028,3.2046,3.2035,3.3141,3.4278,3.4029,3.5693,3.7351,3.6944,3.7458,3.8001,3.7951,3.781,3.7739,3.7721,3.6603,3.5591,3.5326,3.5493,3.5357,3.4378,3.5281,0.0,3.502,3.553,3.6138,3.655,3.6256,3.6142,3.6393,3.4353,3.382,3.5649,3.3371,3.2454,3.3512,3.3166,3.2938,3.2938,3.2876,3.2417,3.1566,0.0,0.0,0.0,0.0,0.0,0.0,0.0,0.0,0.0,0.0,0.0,0.0,0.0,0.0,0.0,0.0,0.0,0.0,0.0,0.0,0.0,2.3206,2.4783,2.4022,2.6098,2.7789,2.8087,2.9156,2.9938,3.0097,3.0746,3.1241,3.1454,3.1652,3.1892,3.2175,3.3532,3.4302,3.4291,3.6069,3.734,3.798,3.844,3.9012,3.9725,4.0588,4.0991,4.1029,4.2074,4.2544,4.2544,4.2784,4.2871,4.2871,4.2871,4.2508,4.1819,4.075,4.0139,3.9841,3.9841,3.9761,3.9612,3.9302,3.9037,3.8773,3.8376,3.7921,3.7525,3.7467,3.7455,3.7389,3.7111,3.735,3.7657,3.7595,3.8049,3.852,3.842,3.8556,3.8651,3.838,3.8426,3.8407,3.8068,3.769,3.7383,3.7248,3.73,3.7294,3.7227,3.7674,0.0,3.7463,3.739,3.7132,3.6596,3.669,3.6737,3.6544,3.6624,3.6757,3.6991,3.6067,3.5273,3.4746,3.4356,3.402,3.3768,3.365,3.3468,0.0,0.0,0.0,0.0,0.0,0.0,0.0,0.0,0.0,0.0,0.0,0.0,0.0,0.0,0.0,0.0,0.0,0.0,0.0,0.0,0.0,0.0,2.5684,2.731,2.7111,2.8354,2.9526,3.0157,3.0739,3.1272,3.1806,3.2009,3.224,3.2549,3.3072,3.358,3.3992,3.5444,3.6272,3.632,3.7729,3.8712,3.9188,3.9514,4.0129,4.0984,4.1502,4.1933,4.2317,4.3125,4.3481,4.35,4.3808,4.3952,4.3952,4.3952,4.3646,0.0,0.0,0.0,0.0,0.0,4.1665,4.1568,4.1081,4.0779,4.055,4.0219,3.9996,3.9794,3.941,3.9304,3.9241,3.8994,3.9158,3.9458,3.9666,3.9981,4.0229,4.0072,3.9784,3.949,3.929,3.9043,3.877,3.8483,3.8405,0.0,3.8428,3.8203,3.7943,3.7766,3.8339,3.8569,3.7974,3.8114,3.8095,3.7635,3.7666,3.7698,3.7601,3.7389,0.0,0.0,0.0,3.5775,3.522,3.4976,0.0,0.0,0.0,3.4289,3.398,0.0,0.0,0.0,3.1698,3.1543,0.0,0.0,0.0,0.0,0.0,0.0,0.0,0.0,0.0,0.0,0.0,0.0,0.0,0.0,0.0,0.0,2.8329,3.0476,3.0602,3.0706,3.082,3.0961,3.1698,3.2305,3.2619,3.2765,3.3161,3.3913,3.4774,3.5633,3.6542,3.7419,0.0,0.0,0.0,3.9477,3.9592,4.03,4.1097,4.1955,4.2075,4.2526,4.3315,4.4111,4.4481,4.4521,4.5167,4.5456,4.5457,4.5457,4.5419,4.5199,4.29,4.1542,4.0855,4.0855,4.0855,4.0836,4.0683,0.0,0.0,4.0442,4.0394,4.0261,3.9556,3.9328,3.9308,3.9248,3.9741,4.039,4.0796,4.1487,4.1969,4.1675,4.1064,4.0533,4.0486,3.9839,3.9226,3.9087,3.8997,3.8983,3.9045,3.8504,3.7832,3.7158,3.8052,3.8471,3.7537,3.8239,3.8855,3.8915,0.0,0.0,3.8777,3.7257,3.6833,3.8107,3.622,3.5159,3.5304,3.5318,3.5007,3.4372,3.499,3.499,3.4355,3.4355,3.4295,3.4126,3.2518,3.2119,0.0,0.0,0.0,0.0,0.0,0.0,0.0,0.0,0.0,0.0,0.0,0.0,0.0,0.0,0.0,2.741,2.9418,3.1013,3.1827,3.2534,3.2929,3.2737,3.3061,3.3828,3.5211,3.552,3.5978,3.6818,3.722,3.7498,3.7674,3.8527,3.9004,3.9046,3.9842,4.0604,4.1316,4.1586,4.2118,4.2942,0.0,0.0,4.4422,4.5231,4.5551,4.5525,4.5712,4.577,4.5715,4.5715,4.564,4.5438,4.4892,4.4526,4.4322,4.4322,4.4322,4.4227,4.35,4.327,4.3156,4.2477,4.2287,4.2248,4.2037,4.1969,0.0,4.1878,4.1971,4.2102,4.2143,4.2272,4.2382,4.2257,4.2119,4.1926,4.1717,4.1533,4.1162,4.0349,4.0039,3.9825,3.9457,3.8905,3.8527,3.8633,3.8737,3.8778,3.8738,3.8906,3.8748,3.7968,3.8208,3.8183,3.7518,3.7511,3.7704,3.8117,3.7238,3.6531,3.6098,3.6094,3.6025,3.587,3.6008,3.6025,3.587,3.587,3.587,3.5814,3.4197,3.3519,0.0,0.0,0.0,0.0,0.0,0.0,0.0,0.0,0.0,0.0,0.0,2.2803,2.4921,0.0,2.7587,2.9833,3.1318,3.2383,3.2881,3.3785,3.4182,3.361,3.4412,3.5373,3.6317,3.6886,3.7394,3.7861,3.8393,3.8737,3.8804,3.9597,4.0062,4.0062,4.0861,4.1519,4.1957,4.2457,4.3131,4.3959,4.4466,4.4919,4.5302,4.573,4.5872,4.5853,4.5897,4.5886,4.5853,4.5853,4.579,4.5703,4.5665,4.5538,4.5348,4.5348,4.5328,4.525,4.48,4.4647,4.459,4.4169,4.4055,4.3959,4.3489,4.3345,4.3335,4.3272,4.3262,4.3346,4.371,4.3779,4.3726,4.3722,4.3365,4.3002,4.2894,4.2498,4.2052,4.1544,4.138,4.1079,4.0377,3.9877,3.9486,3.9115,3.896,3.8921,3.895,3.9031,3.8925,3.8405,3.8497,3.8447,3.8121,3.812,3.813,3.8101,3.7596,3.7071,3.6523,3.6502,3.6444,3.6301,3.6301,3.6301,3.6301,3.6301,3.6301,3.6284,3.5463,3.5098,0.0,0.0,0.0,0.0,0.0,0.0,0.0,2.0744,2.1343,2.3611,2.4429,2.556,2.8188,2.8961,2.9903,3.2081,3.3127,3.3728,3.3933,3.4852,3.5235,3.456,3.5661,3.665,3.717,3.7858,3.8369,3.862,3.9284,3.9716,3.982,4.0441,4.0888,4.1043,4.1733,4.2262,4.2612,4.3311,4.4117,4.4968,4.5006,4.5345,4.5983,4.5983,4.5954,4.5935,4.5935,4.5935,4.5935,4.5935,4.5929,4.5906,4.5906,4.5735,4.5495,4.5438,4.5409,4.5341,4.5319,4.5307,4.5307,4.5307,4.5307,4.5163,4.4475,4.4255,4.4244,4.4183,4.4173,4.4334,4.4946,4.5091,4.5026,4.501,4.4462,4.394,4.3947,4.3379,4.2837,4.2666,4.2647,4.2359,4.142,4.1098,4.0519,3.9286,3.9045,3.8974,3.8906,3.9017,3.9101,3.9101,3.8946,3.8906,3.9031,3.8802,3.8547,3.8354,3.808,3.7742,3.7323,3.7242,3.7099,3.6834,3.6813,3.6792,3.6749,3.6749,3.6749,3.6749,3.6749,3.6594,1.9119,1.9643,2.1414,2.2862,2.3198,2.3991,0.0,2.7317,2.7308,2.9365,3.0428,3.1164,3.1694,3.187,3.2343,3.3511,3.3799,3.4198,3.5149,3.6003,3.6535,3.6565,3.6614,3.7312,3.8942,3.9186,3.9588,4.0437,4.0597,4.0641,4.0655,4.0752,4.1145,4.1927,4.2048,4.284,4.4394,4.4561,4.5082,4.5932,4.605,4.6169,4.6267,4.6267,4.6184,4.6087,4.6087,4.6087,4.6087,4.6087,4.6,4.5899,4.5899,4.5881,4.5828,4.5642,4.5547,4.546,4.54,4.5348,4.5307,4.5307,4.5307,4.5288,4.5182,4.5144,4.5144,4.5163,4.5133,4.5142,4.5184,4.5181,4.5148,4.5033,4.4934,4.4834,4.4775,4.4687,4.4402,4.3682,4.3549,4.3272,4.2389,4.2214,4.1583,3.9715,3.9192,3.9073,3.9219,3.917,3.9101,3.9101,3.9073,3.9003,3.8848,3.9213,3.9389,3.9168,3.9571,3.9687,3.9455,3.9171,3.8898,3.8703,3.8703,3.8573,3.8336,3.8336,3.8336,3.8336,3.8336,3.7594,2.3067,2.2909,2.3222,2.5043,2.5855,2.6605,2.8109,2.8666,2.9349,3.1104,3.1863,3.2411,3.2957,3.3175,3.3587,3.4503,3.4784,3.5226,3.6175,3.6646,3.7278,3.8336,3.8417,3.8681,3.9446,3.9951,4.0407,4.0882,4.0914,4.1146,4.1705,4.1736,4.2122,4.3003,4.3529,4.4133,4.4871,4.5404,4.5865,4.6214,4.6273,4.6573,4.7042,4.6534,4.6271,4.6214,4.6214,4.6214,4.6214,4.6214,4.6181,4.6138,4.6138,4.6131,4.6111,4.5863,4.5736,4.5645,4.5507,4.5437,4.5391,4.5329,4.5307,4.5307,4.5307,4.5307,4.5307,4.5307,4.5307,4.5297,4.5275,4.5224,4.5181,4.5136,4.5068,4.4979,4.4955,4.4919,4.48,4.4459,4.4402,4.4137,4.3303,4.317,4.2718,4.1383,4.0603,4.0176,4.017,4.0119,4.0186,4.0405,4.0584,4.0527,4.0219,4.0548,4.067,4.0427,4.0468,4.0348,3.9975,3.966,3.9394,3.9182,3.9182,3.9118,3.8994,3.8994,3.8947,3.8816,3.8816,3.8404,2.4504,2.4599,2.4644,2.6642,2.8013,2.8921,2.9133,3.0001,3.1119,3.2289,3.2871,3.3363,3.4014,3.4235,3.455,3.5182,3.547,3.5908,3.6772,3.7162,3.793,3.9447,3.9832,3.9988,4.0002,4.0521,4.0896,4.1011,4.1242,4.1688,4.2364,4.2633,4.3159,4.4039,4.4663,4.5112,4.5366,4.5971,4.642,4.6651,4.6651,4.712,4.79,4.7042,4.6651,4.6651,4.6397,4.63,4.63,4.63,4.63,4.63,4.63,4.63,4.6273,4.6072,4.5949,4.5828,4.5648,4.5544,4.5472,4.5381,4.5329,4.5307,4.5307,4.5307,4.5307,4.5307,4.5307,4.5307,4.5307,4.5256,4.5213,4.5203,4.5125,4.5057,4.5026,4.4967,4.4919,4.4919,4.4907,4.4706,4.4137,4.4023,4.3739,4.2886,4.2179,4.1611,4.1224,4.1136,4.1226,4.1524,4.1731,4.1722,4.14,4.1761,4.1891,4.1659,4.1522,4.1305,4.096,4.0558,4.0235,4.0007,4.0025,3.9986,3.994,3.994,3.9855,3.9717,3.9717,3.9613,2.158,2.3281,2.5171,2.765,2.9642,3.1218,3.1993,3.2843,3.3549,3.3783,3.4522,3.5173,3.54,3.5455,3.5449,3.5496,3.5544,3.5905,3.6779,3.7698,3.8622,3.9572,4.0445,4.097,4.1055,4.1025,4.1013,4.1087,4.1875,4.2364,4.2396,4.3196,4.406,4.4925,4.4983,4.5414,4.6254,4.6293,4.6718,4.7567,4.7567,4.7978,4.874,4.7939,4.7567,4.7508,4.6671,4.63,4.63,4.63,4.63,4.63,4.63,4.63,4.63,4.6298,4.615,4.5978,4.585,4.5667,4.549,4.5509,4.541,4.5307,4.5307,4.5307,4.5307,4.5307,4.5307,4.5307,4.5307,4.5297,4.5286,4.5233,4.5192,4.517,4.5114,4.5038,4.501,4.501,4.4943,4.4895,4.4876,4.4857,4.4592,4.3777,4.3644,4.3256,4.2271,4.2033,4.1974,4.198,4.198,4.1946,4.1777,4.2492,4.2901,4.276,4.2982,4.3123,4.3123,4.2539,4.2095,4.1825,4.1825,4.1735,4.1534,4.1534,4.1534,4.1512,4.1512,4.1512,2.3382,2.554,2.7777,2.9674,3.1474,3.2823,3.3107,3.3935,3.4674,3.4756,3.4215,3.3769,3.3884,3.3909,3.392,3.3969,3.5006,3.6294,3.7696,3.8241,3.9037,4.0467,4.0891,4.1087,4.1098,4.107,4.109,4.1101,4.1917,4.2625,4.3164,4.4023,4.4883,4.5694,4.5732,4.589,4.6226,4.6752,4.7206,4.7555,4.8711,4.9109,4.8818,4.9128,4.864,4.7586,4.7295,4.6827,4.63,4.63,4.63,4.63,4.63,4.63,4.63,4.63,4.6262,4.6161,4.5987,4.5897,4.5809,4.5667,4.553,4.5438,4.5438,4.538,4.5307,4.5307,4.5307,4.5307,4.5307,4.5307,4.5297,4.5275,4.5224,4.5192,4.517,4.5114,4.508,4.508,4.5003,4.4955,4.4955,4.4919,4.4819,4.4535,4.4042,4.3576,4.3244,4.3623,4.3882,4.3811,4.3798,4.3646,4.329,4.3423,4.3512,4.3476,4.3104,4.2976,4.3178,4.2611,4.2267,4.2184,4.2184,4.2124,4.2061,4.2061,4.1956,4.1805,4.1805,4.1719,2.5665,2.7678,2.9703,3.1616,3.2967,3.389,3.4203,3.4825,3.5254,3.4942,3.3898,3.2943,3.2687,3.2917,3.2944,3.2375,3.3785,3.5561,3.7271,3.7591,3.8527,4.0838,4.1091,4.1091,4.1074,4.1348,4.1543,4.156,4.2343,4.3183,4.3987,4.485,4.5566,4.6084,4.6126,4.6288,4.6624,4.7131,4.7732,4.8414,4.9879,5.026,4.9734,4.9994,4.9519,4.8484,4.8152,4.7705,4.7178,4.6885,4.6768,4.6729,4.6417,4.63,4.63,4.63,4.6296,4.6286,4.6154,4.6056,4.5988,4.5852,4.5696,4.5555,4.5516,4.5473,4.5438,4.5381,4.5361,4.5361,4.5361,4.5339,4.5307,4.5307,4.5275,4.5243,4.5243,4.5181,4.5136,4.5136,4.5049,4.4991,4.4991,4.4943,4.4895,4.4895,4.4459,4.4137,4.4137,4.4573,4.4858,4.477,4.4757,4.464,4.4273,4.4166,4.403,4.3798,4.3373,4.3142,4.3214,4.271,4.2452,4.2452,4.2348,4.2308,4.2308,4.2308,4.2225,4.204,4.204,4.1977,2.8129,2.9577,3.0962,3.3325,3.408,3.4488,3.5316,3.5521,3.5295,3.4415,3.3522,3.2653,3.179,3.2377,3.2486,3.0875,3.2179,3.3986,3.5788,3.6085,3.7363,4.0681,4.1088,4.1098,4.1064,4.1803,4.2352,4.2517,4.3234,4.3985,4.4751,4.5614,4.6099,4.6084,4.6153,4.6587,4.7384,4.7484,4.8372,5.0063,5.0972,5.1386,5.1367,5.0535,5.0149,5.0049,4.923,4.8839,4.874,4.7978,4.7664,4.7586,4.6749,4.6436,4.6436,4.6436,4.6436,4.6436,4.6427,4.6252,4.6012,4.6008,4.5875,4.5696,4.5613,4.5669,4.5752,4.5673,4.5633,4.5633,4.5633,4.5525,4.543,4.543,4.5392,4.5364,4.5364,4.5273,4.5184,4.5145,4.5007,4.4889,4.4934,4.4887,4.4857,4.4895,4.4895,4.4895,4.4895,4.4895,4.4895,4.4895,4.4895,4.4833,4.4712,4.468,4.4426,4.3871,4.3788,4.361,4.3232,4.2902,4.2713,4.2711,4.2452,4.2328,4.2328,4.2308,4.2308,4.2308,4.2308,4.2308,2.9621,3.1584,3.339,3.3968,3.4687,3.5296,3.5527,3.5129,3.4453,3.3587,3.1763,3.0085,2.9277,2.9831,3.0534,3.0784,3.2801,3.5153,3.7518,3.785,3.8627,4.0701,4.1,4.1254,4.1837,4.2107,4.2746,4.4014,4.4354,4.4562,4.4721,4.5547,4.6037,4.6032,4.6037,4.6455,4.7325,4.8604,4.9806,5.0901,5.1195,5.133,5.131,5.1103,5.0662,5.0096,4.9861,4.9405,4.8779,4.8584,4.8486,4.8466,4.8252,4.8154,4.8154,4.8154,4.8154,4.8154,4.8152,4.7316,4.6212,4.6167,4.6059,4.6039,4.6608,4.672,4.6793,4.7414,4.7497,4.7441,4.7441,4.7298,4.7169,4.7169,4.6672,4.6194,4.6194,4.5706,4.5084,4.4425,4.3743,4.3458,4.3996,4.4087,4.4272,4.4819,4.4895,4.4895,4.4895,4.4895,4.4895,4.4895,4.4895,4.4777,4.4503,4.4435,4.4322,4.4117,4.3815,4.3555,4.3355,4.3266,4.3051,4.2711,4.2634,4.2595,4.2595,4.2391,4.2308,4.2308,4.2308,4.2308,3.1377,3.3152,3.4858,3.4783,3.5216,3.5438,3.4687,3.4192,3.3448,3.1817,3.0083,2.8618,2.7776,2.8682,2.9568,2.9662,3.1852,3.4449,3.7006,3.7359,3.8247,4.0616,4.1276,4.1692,4.2124,4.2859,4.368,4.4597,4.4724,4.4893,4.5205,4.5726,4.6007,4.5997,4.6377,4.7165,4.8425,4.979,5.0714,5.1201,5.1229,5.1263,5.1263,5.1288,5.1054,5.0639,0.0,5.0371,4.9912,4.9522,4.9377,4.9325,4.8954,4.8798,4.8798,4.8798,4.8798,4.8798,4.8798,4.817,4.7381,4.7354,4.7294,4.7298,4.766,4.7784,4.7878,4.827,4.8333,4.828,4.828,4.8102,4.793,4.793,4.7493,4.6978,4.6577,4.587,4.4934,4.367,4.3028,4.2938,4.3665,4.3795,4.4037,4.4793,4.4895,4.4895,4.4895,4.4895,4.4895,4.4895,4.4895,4.4814,4.4642,4.4584,4.4462,4.4265,4.414,4.3955,4.367,4.3654,4.3471,4.3051,4.2903,4.275,4.2611,4.2468,4.2405,4.2405,4.2409,4.243,3.3064,3.432,3.5584,3.5534,3.5532,3.512,3.3501,3.3041,3.2262,2.9764,2.8606,2.7778,2.6894,2.8105,2.906,2.8532,3.0491,3.3002,3.5678,3.6153,3.7344,4.0361,4.1587,4.2214,4.2278,4.3729,4.473,4.4776,4.4827,4.5175,4.5879,4.596,4.6055,4.6177,4.7132,4.8366,4.9887,5.0755,5.1202,5.1202,5.1201,5.1202,5.1206,5.1255,5.1282,5.1288,5.1288,5.1331,5.1348,5.0586,5.0268,5.0202,4.9442,4.915,4.915,4.915,4.915,4.915,4.915,4.915,4.9105,4.8889,4.8791,4.8782,4.873,4.8831,4.8951,4.8891,4.8854,4.8844,4.8844,4.8653,4.8459,4.8432,4.82,4.7794,4.6997,4.5946,4.4618,4.2886,4.2446,4.2644,4.3506,4.3635,4.3935,4.4775,4.4895,4.4895,4.4895,4.4895,4.4895,4.4895,4.4895,4.4895,4.4895,4.4895,4.4751,4.4407,4.4595,4.4522,4.4061,4.4076,4.394,4.357,4.3248,4.292,4.2627,4.2546,4.2524,4.2506,4.2568,4.2609,3.3801,3.4775,3.5618,3.5645,3.5189,3.4455,3.3485,3.2216,3.0705,2.881,2.7761,2.6934,2.6067,2.671,2.8009,2.9936,3.1235,3.3137,3.6366,3.7486,3.8416,3.9594,4.1147,4.2394,4.3111,4.4104,4.4975,4.5628,4.5735,4.583,4.5986,4.5991,4.6338,4.7054,4.8619,4.9596,4.9906,5.0755,5.1202,5.1202,5.12,5.1192,5.1192,5.1214,5.121,5.1222,5.1222,0.0,5.1387,5.123,5.1167,5.116,5.1004,5.0945,5.0945,5.0945,5.0945,5.0945,5.0945,5.0959,5.0718,4.9269,4.8808,4.8925,4.962,4.9804,4.9933,5.0622,5.0734,5.0658,5.0658,5.0486,5.0292,5.0192,4.9577,4.897,4.8704,4.6328,4.372,4.2039,4.117,4.115,4.2561,4.2816,4.3285,4.468,4.4895,4.4895,4.4895,4.4895,4.4895,4.4895,4.4895,4.4895,4.4895,4.4895,4.487,4.4789,4.4846,4.4668,4.4275,4.4467,4.4365,4.3906,4.357,4.3386,4.3335,4.2844,4.257,4.257,4.2589,4.2609,3.3581,3.4594,3.5543,3.5121,3.4784,3.3979,3.1813,3.0737,2.9544,2.7356,2.6582,2.6183,2.5731,2.6331,2.7425,2.9039,3.0817,3.2866,3.5351,3.7238,3.8646,3.9464,4.1466,4.2939,4.3367,4.4599,4.5547,4.5916,4.5983,4.5994,4.5997,4.6435,4.7287,4.8619,4.946,5.012,5.0561,5.0989,5.1202,5.1202,5.1202,5.1202,5.1202,5.1202,5.1192,5.1206,5.1206,5.1246,5.1295,5.1334,5.1367,5.1397,5.1402,5.1394,5.1394,5.1394,5.1394,5.1394,5.1394,5.1408,5.1262,5.0423,5.0135,5.0189,5.0598,5.0704,5.0755,5.1183,5.1248,5.1191,5.1191,5.1092,5.0932,5.0879,4.974,4.8414,4.7444,4.5197,4.2889,4.1208,4.0559,4.0797,4.2366,4.262,4.3137,4.4709,4.4919,4.4895,4.4895,4.4895,4.4895,4.4895,4.4895,4.4895,4.4895,4.4895,4.4895,4.4895,4.4895,4.4802,4.4616,4.4745,4.4616,4.4227,4.4016,4.3831,4.3654,4.337,4.3142,4.2976,4.2995,4.292,3.2861,3.3931,3.5001,3.4346,3.4113,3.3276,3.0216,2.943,2.8633,2.6191,2.5697,2.5679,2.5598,2.6135,2.6904,2.7842,2.9773,3.1883,3.3929,3.6251,3.8142,3.9209,4.174,4.3397,4.3397,4.4977,4.6003,4.6003,4.6161,4.6283,4.6274,4.7287,4.8483,4.9868,5.0081,5.0503,5.1183,5.1202,5.1202,5.1202,5.1202,5.1202,5.1202,5.1202,5.1202,5.1202,5.1202,5.121,5.1207,5.1277,5.1337,5.1406,5.1408,5.1394,5.1394,5.1394,5.1394,5.1394,5.1394,5.1406,5.1394,5.1394,5.1355,5.131,5.1292,5.1304,5.13,5.13,5.13,5.13,5.13,5.1225,5.1095,5.0872,4.9574,4.7831,4.5748,4.415,4.2575,4.07,4.0319,4.0797,4.2427,4.2671,4.3159,4.4756,4.4962,4.4926,4.4895,4.4895,4.4895,4.4895,4.4895,4.4895,4.4895,4.4895,4.4895,4.4895,4.4895,4.4895,4.4895,4.4895,4.4777,4.4511,4.4388,4.4184,4.3943,4.3865,4.3691,4.3424,4.3491,4.3371,3.1727,3.2656,3.3446,3.3483,3.2915,3.185,3.0018,2.8984,2.791,2.6084,2.5708,2.5653,2.5532,2.5571,2.6149,2.7733,2.8252,2.959,3.2856,3.4831,3.6571,3.8214,4.1377,4.3391,4.3391,4.4971,4.5997,4.5997,4.6735,4.7176,4.7176,4.8755,4.9732,4.9887,5.0678,5.1125,5.1202,5.1202,5.1202,5.1202,5.1202,5.1202,5.1202,5.1202,5.1202,5.1202,5.1202,5.121,0.0,5.1277,5.1337,5.1406,5.1408,5.1394,5.1394,5.1394,5.1394,5.1394,5.1394,5.1399,5.1397,5.1397,5.1346,5.1294,5.1291,5.1296,5.13,5.13,5.13,5.13,5.13,5.1292,5.1053,5.0137,4.9639,4.8489,4.5269,4.4376,4.3425,4.0954,4.037,4.0797,4.2427,4.2683,4.3213,4.4767,4.4991,4.4967,4.4907,4.4895,4.4895,4.4895,4.4895,4.4895,4.4895,4.4895,4.4895,4.4895,4.4895,4.4895,4.4895,4.4895,4.4883,4.4858,4.4557,4.4388,4.4341,4.405,4.3881,4.3849,4.3849,4.3833,3.167,3.2587,3.3164,3.2734,3.1993,3.0931,2.9218,2.8104,2.7122,2.5943,2.5641,2.5556,2.551,2.5496,2.5885,2.7024,2.771,2.8764,3.066,3.3678,3.5975,3.6716,4.0703,4.3419,4.3451,4.5001,4.621,4.6735,4.7589,4.8308,4.8832,4.9518,5.014,5.0678,5.1027,5.1202,5.1202,5.1202,5.1202,5.1202,5.1202,5.1202,5.1202,5.1202,5.1202,5.1202,5.1202,5.1211,0.0,5.1238,5.1282,5.1339,5.1386,5.1393,5.1394,5.1394,5.139,5.1406,5.1406,5.1369,5.1343,5.1343,5.133,5.1292,5.1292,5.1308,5.13,5.13,5.13,5.13,5.13,5.13,5.1078,5.0144,4.9393,4.8115,4.5231,4.4098,4.304,4.1021,4.0504,4.0931,4.2592,4.2775,4.3245,4.4878,4.5038,4.4979,4.4955,4.4919,4.4895,4.4895,4.4895,4.4895,4.4895,4.4895,4.4895,4.4895,4.4895,4.4895,4.4895,4.4895,4.4895,4.4895,4.4777,4.4694,4.4694,4.4557,4.4402,4.4198,4.4198,4.4095,3.097,3.1897,3.2448,3.1891,3.1125,3.0136,2.8632,2.7572,2.6662,2.5849,2.5604,2.5601,2.5835,2.588,2.6157,0.0,2.766,2.8481,2.9606,3.2535,3.4778,3.5344,3.9039,4.1847,4.2651,4.4715,4.6463,4.7609,4.825,4.9085,5.0212,5.027,5.0561,5.1183,5.1202,5.1202,5.1202,5.1202,5.1202,5.1202,5.1202,5.1202,5.1202,5.1202,5.1202,5.1202,5.1202,5.1202,0.0,5.1204,5.1245,5.1301,5.1365,5.1401,5.1394,5.1394,5.1408,5.1399,5.1399,5.1361,5.1294,5.1294,5.13,5.13,5.13,5.13,5.13,5.13,5.13,5.13,5.13,5.1106,5.0696,4.9859,4.8918,4.7568,4.5254,4.3965,4.2826,4.1393,4.0803,4.1081,4.2712,4.2879,4.3329,4.4955,4.5103,4.5014,4.4991,4.4931,4.4895,4.4895,4.4895,4.4895,4.4895,4.4895,4.4895,4.4895,4.4895,4.4895,4.4895,4.4895,4.4895,4.4895,4.4895,4.4895,4.4895,4.4895,4.4777,4.4557,4.4557,4.4416,2.919,3.0162,3.0929,3.0915,3.0252,2.9375,2.8491,2.7566,2.6655,2.5782,2.5595,2.5834,2.6644,2.6799,2.7048,2.7864,2.8047,2.8679,3.0347,3.137,3.2589,3.4299,3.6073,3.8166,4.0674,4.3996,4.6721,4.8463,4.858,4.9357,5.1086,5.1183,5.1183,5.1202,5.1202,5.1202,5.1202,5.1202,5.1202,5.1202,5.1202,5.1202,5.1202,5.1202,5.1202,5.1202,5.1202,5.1202,0.0,5.1204,5.1245,5.1301,5.1365,5.1401,5.1394,5.1394,5.1408,5.1399,5.1399,5.1361,5.1294,5.1294,5.13,5.13,5.13,5.13,5.13,5.13,5.13,5.13,5.13,5.0657,4.982,4.9001,4.8144,4.7033,4.528,4.4109,4.3146,4.2267,4.1325,4.1183,4.2728,4.3002,4.35,4.4987,4.5148,4.5061,4.5022,4.4931,4.4895,4.4895,4.4895,4.4895,4.4895,4.4895,4.4895,4.4895,4.4895,4.4895,4.4895,4.4895,4.4895,4.4895,4.4895,4.4895,4.4895,4.4895,4.4895,4.4883,4.4883,4.4883,2.8382,2.887,2.9113,2.9117,2.8476,2.7754,2.7477,2.7159,2.6821,2.6542,2.6931,2.7394,2.7644,2.7694,2.7965,2.8815,2.8462,2.85,2.9621,3.1529,3.3206,3.4357,3.863,4.2024,4.3433,4.5589,4.7356,4.8502,4.9143,4.9978,5.1144,5.1202,5.1202,5.1202,5.1202,5.1202,5.1202,5.1202,5.1202,5.1202,5.1202,5.1202,5.1202,5.1202,5.1202,5.1202,5.1202,5.1202,5.1202,5.1203,5.1238,5.1299,5.1328,5.1367,5.1394,5.1406,5.1396,5.138,5.1352,5.1314,5.1292,5.1292,5.1304,5.13,5.13,5.13,5.13,5.13,5.13,5.13,5.13,5.0657,4.98,4.8982,4.8125,4.7014,4.5283,4.4171,4.3276,4.2416,4.1474,4.1366,4.2993,4.3122,4.3543,4.516,4.527,4.5148,4.508,4.5003,4.4943,4.4895,4.4895,4.4895,4.4895,4.4895,4.4895,4.4895,4.4895,4.4895,4.4895,4.4895,4.4895,4.4895,4.4895,4.4895,4.4895,4.4895,4.4895,4.4895,4.4895,4.4895,2.6615,2.7059,2.7317,2.7319,2.6914,2.6501,2.6477,2.6692,2.6901,2.6893,2.7537,2.8202,2.8531,2.8585,2.8876,2.9722,2.9393,2.9342,3.0211,3.1963,3.3746,3.5297,3.966,4.2869,4.3724,4.5938,4.7667,4.8522,4.9421,5.027,5.1144,5.1202,5.1202,5.1202,5.1202,5.1202,5.1202,5.1202,5.1202,5.1202,5.1202,5.1202,5.1202,5.1202,5.1202,5.1202,5.1202,5.1202,0.0,5.1202,5.121,5.1252,5.1291,5.1344,5.1391,5.141,5.1408,5.1391,5.1317,5.13,5.13,5.13,5.13,5.13,5.13,5.13,5.13,5.13,5.13,5.1222,5.0891,5.019,4.9333,4.8514,4.7637,4.6706,4.5615,4.4442,4.3445,4.29,4.1813,4.1492,4.3122,4.3259,4.3697,4.5329,4.5399,4.5251,4.522,4.5109,4.5014,4.4967,4.4943,4.4931,4.4931,4.4907,4.4895,4.4895,4.4895,4.4895,4.4895,4.4895,4.4895,4.4895,4.4895,4.4895,4.4895,4.4895,4.4895,4.4895,4.4895,4.4895,0.0,2.4762,2.5521,2.5523,2.5566,2.5597,2.5524,2.6283,0.0,2.6986,2.7686,2.8526,2.9338,2.9492,2.9744,3.0482,3.0559,3.0834,3.1786,3.2768,3.4337,3.6881,3.9495,4.1374,4.2126,4.535,4.7725,4.8541,4.946,5.0348,5.1163,5.1202,5.1202,5.1202,5.1202,5.1202,5.1202,5.1202,5.1202,5.1202,5.1202,5.1202,5.1202,5.1202,5.1202,0.0,5.1202,5.1202,5.1202,5.1202,5.119,5.1211,5.1277,5.1337,5.1406,5.1398,5.1408,5.1391,5.1317,5.1296,5.13,5.13,5.13,5.13,5.13,5.13,5.13,5.13,5.13,5.1106,5.0229,4.9391,4.8573,4.7715,4.6823,4.6199,4.6199,4.4832,4.3601,4.3601,4.2257,4.159,4.3156,4.3403,4.3929,4.5486,4.5552,4.5426,4.5407,4.5253,4.514,4.5117,4.5061,4.5014,4.5022,4.4931,4.4895,4.4895,4.4895,4.4895,4.4895,4.4895,4.4895,4.4895,4.4895,4.4895,4.4895,4.4895,4.4895,4.4895,4.4895,4.4895,2.1615,0.0,2.3719,2.3703,2.4218,2.4693,0.0,2.6314,2.7822,2.7812,2.9036,3.0143,3.0357,3.0399,3.0457,3.0641,3.0129,3.0226,3.1767,3.4399,3.6609,3.7806,4.0868,4.2694,4.2169,4.5867,4.8386,4.858,5.0037,5.0989,5.1183,5.1202,5.1202,5.1202,5.1202,5.1202,5.1202,5.1202,5.1202,5.1202,5.1202,5.1202,5.1202,5.1202,5.1202,5.1202,5.1202,5.1202,5.1202,5.1202,5.119,5.1211,5.1277,5.1337,5.1406,5.1408,5.1397,5.1391,5.1319,5.1304,5.13,5.13,5.13,5.13,5.13,5.13,5.13,5.13,5.13,5.1106,5.0229,4.9391,4.8573,4.7715,4.6823,4.6199,4.6199,4.4832,4.3601,4.3601,4.2257,4.163,4.3265,4.3475,4.3975,4.5667,4.5764,4.5603,4.5553,4.5505,4.5423,4.5275,4.5235,4.5182,4.5084,4.4955,4.4895,4.4895,4.4895,4.4895,4.4895,4.4895,4.4895,4.4895,4.4895,4.4895,4.4895,4.4895,4.4895,4.4895,4.4895,4.4895,2.0799,2.1259,2.1943,2.1912,2.2868,2.3807,2.3758,2.6004,2.81,2.81,2.9486,3.0694,3.0694,3.102,3.1169,3.0715,3.0902,3.1553,3.286,3.4972,3.7123,3.9152,4.1094,4.2687,4.3788,4.6752,4.8599,4.8599,5.0212,5.1202,5.1202,5.1202,5.1202,5.1202,5.1202,5.1202,5.1202,5.1202,5.1202,5.1202,5.1202,5.1202,5.1202,5.1202,5.1202,5.1202,5.1202,5.1202,5.1202,5.1202,5.1197,5.121,5.1277,5.1315,5.1346,5.1347,5.1346,5.134,5.1312,5.13,5.13,5.13,5.13,5.13,5.13,5.13,5.13,5.13,5.13,5.1008,4.9761,4.9138,4.8475,4.7209,4.655,4.6199,4.6199,4.5144,4.4072,4.3679,4.2549,4.2062,4.3367,4.3545,4.4076,4.5836,4.5942,4.5815,4.5796,4.5698,4.5592,4.55,4.5466,4.5414,4.5343,4.5182,4.5038,4.4943,4.4962,4.4931,4.4895,4.4895,4.4895,4.4895,4.4895,4.4895,4.4895,4.4895,4.4895,4.4895,4.4895,4.4895,2.0778,2.0791,2.0894,2.0586,2.1711,2.2923,2.2973,2.5556,2.7948,2.8065,2.9486,3.0733,3.0869,3.139,3.1585,3.0912,3.2225,3.3602,3.4417,3.5566,3.7444,4.0436,4.1156,4.2521,4.532,4.7409,4.8599,4.8599,5.0212,5.1202,5.1202,5.1202,5.1202,5.1202,5.1202,5.1202,5.1202,5.1202,5.1202,5.1202,5.1202,5.1202,5.1202,5.1202,5.1202,5.1202,0.0,0.0,5.1202,5.1202,5.1202,5.1206,5.1272,5.1291,5.13,5.131,5.1314,5.131,5.1308,5.13,5.13,5.13,5.13,5.13,5.13,5.13,5.13,5.13,5.13,5.0911,4.9235,4.8806,4.8358,4.6608,4.6199,4.6199,4.6199,4.5517,4.4637,4.3776,4.2997,4.2724,4.3465,4.3718,4.4345,4.5962,4.6098,4.6027,4.6027,4.5883,4.5764,4.5744,4.5691,4.5643,4.5621,4.5456,4.5275,4.5094,4.503,4.4991,4.4955,4.4931,4.4919,4.4962,4.4926,4.4895,4.4895,4.4895,4.4895,4.4895,4.4895,4.4895,2.0627,2.1639,2.2363,2.0879,2.1264,2.2183,2.2856,2.5112,2.7272,2.7968,2.9486,3.0923,3.1658,3.1312,3.1095,3.1685,3.3184,3.4598,3.5439,3.8176,4.0257,4.0732,4.2804,4.4062,4.3753,4.6682,4.8599,4.8599,5.0212,5.1202,5.1202,5.1202,5.1202,5.1202,5.1202,5.1202,5.1202,5.1202,5.1202,5.1202,5.1202,5.1202,5.1202,5.1202,5.1202,5.1202,0.0,5.1202,5.1202,5.1202,5.1202,5.1206,5.1277,5.1304,5.1319,5.1357,5.1343,5.131,5.1308,5.13,5.13,5.13,5.13,5.13,5.13,5.13,5.13,5.13,5.13,5.0911,4.9235,4.8806,4.8358,4.6608,4.6199,4.6199,4.6199,4.5517,4.4637,4.3776,4.3484,4.3445,4.3582,4.4208,4.505,4.6043,4.6189,4.6162,4.6162,4.615,4.6074,4.5966,4.5931,4.5865,4.571,4.5648,4.5603,4.5514,4.5244,4.5117,4.5148,4.5042,4.5045,4.5159,4.4998,4.4895,4.4895,4.4895,4.4895,4.4895,4.4895,4.4895,2.0589,2.1131,2.1737,2.187,2.3238,2.465,2.5022,2.6746,2.8359,2.8725,2.9816,3.0962,3.1833,3.2069,3.2691,3.4478,3.4923,3.5374,3.6328,3.8141,3.9733,4.0693,4.2297,4.3715,4.4672,4.7087,4.8599,4.8599,5.0212,5.1202,5.1202,5.1202,5.1202,5.1202,5.1202,5.1202,5.1202,5.1202,5.1202,5.1202,5.1202,5.1202,5.1202,5.1202,5.1202,5.1202,0.0,5.1202,5.1202,5.1202,5.1189,5.1194,5.1228,5.1264,5.1307,5.133,5.1323,5.1292,5.1304,5.13,5.1222,5.0755,5.0599,5.0521,5.0073,4.9956,4.9956,4.9956,5.0268,5.0326,4.9118,4.8456,4.7774,4.6511,4.6199,4.6199,4.6199,4.5887,4.5202,4.3854,4.3971,4.415,4.3679,4.4715,4.5907,4.6764,4.7306,4.7599,4.7599,4.7599,4.7587,4.7527,4.7503,4.7485,4.7383,4.6832,4.6242,4.5633,4.546,4.5371,4.5417,4.5323,4.5293,4.5362,4.5154,4.5049,4.5049,4.4943,4.4895,4.4895,4.4895,4.4895,2.059,2.0858,2.1481,2.303,2.4719,2.6143,2.6762,2.8049,2.9152,2.9369,3.0263,3.1215,3.1871,3.271,3.3992,3.6148,3.6139,3.63,3.7467,3.8626,3.9873,4.1277,4.2374,4.3793,4.5802,4.757,4.8599,4.8599,5.0212,5.1202,5.1202,5.1202,5.1202,5.1202,5.1202,5.1202,5.1202,5.1202,5.1202,5.1202,5.1202,5.1202,5.1202,5.1202,5.1202,5.1202,5.1202,5.1202,5.1202,5.1202,5.1074,5.0899,5.091,5.084,5.0709,5.0706,5.0716,5.0716,5.0716,5.0716,5.0599,4.9937,4.9722,4.9605,4.8982,4.8806,4.8806,4.8806,4.9099,4.9274,4.8651,4.8008,4.7287,4.6414,4.6199,4.6199,4.6199,4.6199,4.5748,4.4208,4.4618,4.4988,4.4325,4.5494,4.6803,4.7676,4.8378,4.8806,4.8806,4.8806,4.8806,4.8806,4.8806,4.8806,4.8806,4.8048,4.7215,4.637,4.5862,4.5607,4.5623,4.5533,4.5509,4.5526,4.5341,4.5235,4.5192,4.5057,4.4962,4.4895,4.4895,4.4895,2.0593,2.1738,2.3144,2.4077,2.3787,2.3928,2.6354,2.7563,2.8414,2.9233,3.0745,3.193,3.1988,3.271,3.3604,3.454,3.5985,3.7573,3.9267,4.1592,4.3165,4.3287,4.4729,4.5783,4.5982,4.757,4.8599,4.8599,5.0212,5.1202,5.1202,5.1202,5.1202,5.1202,5.1202,5.1202,5.1202,5.1202,5.1202,5.1202,5.1202,5.1202,5.1202,5.1202,5.1202,5.1202,5.1202,5.1202,5.1202,5.1202,5.0722,5.0003,5.0062,4.9627,4.8974,4.8973,4.8982,4.8982,4.8982,4.8982,4.8962,4.8904,4.8884,4.8884,4.8826,4.8806,4.8806,4.8806,4.8261,4.7676,4.7618,4.754,4.7287,4.6414,4.6199,4.6199,4.6199,4.6199,4.5926,4.4991,4.5517,4.6082,4.602,4.678,4.7696,4.8573,4.8768,4.8806,4.8806,4.8806,4.8806,4.8806,4.8806,4.8806,4.8806,4.8725,4.8623,4.8487,4.6675,4.5618,4.568,4.5565,4.553,4.5596,4.5447,4.5311,4.5192,4.5181,4.5091,4.4895,4.4895,4.4895,2.0594,2.1816,2.3181,2.3513,2.4101,2.5293,2.7877,2.9117,2.9816,3.0146,3.1156,3.2163,3.271,3.4361,3.576,3.6071,3.7586,3.9315,4.1024,4.2558,4.3704,4.4248,4.5317,4.6002,4.6002,4.7084,4.8017,4.8561,4.9707,5.0619,5.1163,5.1202,5.1202,5.1202,5.1202,5.1202,5.1202,5.1202,5.1202,5.1202,5.1202,5.1202,5.1202,5.1202,5.1202,5.1163,5.0619,5.0386,5.0353,4.9842,4.9454,4.9166,4.9238,4.9068,4.8798,4.8791,4.8806,4.8806,4.8806,4.8806,4.8709,4.8164,4.7988,4.7891,4.7345,4.717,4.717,4.717,4.6959,4.6823,4.7365,4.7092,4.6608,4.6277,4.6199,4.6199,4.6199,4.6199,4.5946,4.5069,4.6043,4.6842,4.6297,4.7793,4.9177,4.9508,5.0014,5.0346,5.0346,5.0346,5.0346,5.0346,5.0346,5.0131,4.9586,4.9543,4.9294,4.8676,4.7944,4.752,4.7501,4.742,4.7383,4.7393,4.7221,4.6847,4.6253,4.6054,4.5646,4.5091,4.4955,4.4895,2.1382,2.2225,2.3282,2.4107,2.4957,2.6339,2.9175,3.0069,3.0457,3.1001,3.1797,3.2745,3.3876,3.5507,3.6867,3.7411,3.8732,4.0286,4.1961,4.2947,4.3821,4.4695,4.5511,4.6002,4.6002,4.6793,4.755,4.8133,4.9007,4.9745,5.0348,5.0639,5.0794,5.0794,5.1066,5.1202,5.1202,5.1202,5.1066,5.0794,5.0794,5.093,5.1183,5.0911,5.0794,5.0736,4.9862,4.9499,4.944,4.8895,4.8511,4.8278,4.8057,4.7984,4.7988,4.7988,4.7988,4.7988,4.7988,4.7988,4.7871,4.7287,4.7092,4.6975,4.6375,4.6199,4.6199,4.6199,4.6199,4.6336,4.6936,4.6647,4.6199,4.6199,4.6199,4.6199,4.6199,4.6414,4.6433,4.5848,4.692,4.7793,4.7462,4.8845,5.0092,5.0365,5.093,5.13,5.13,5.13,5.13,5.13,5.13,5.1067,5.0463,5.0387,5.0111,4.9468,4.9423,4.9163,4.8554,4.849,4.8463,4.8463,4.8319,4.7959,4.7319,4.7079,4.6628,4.5993,4.5848,4.5752,2.3086,2.3101,2.3735,2.6244,2.6237,2.6514,2.9917,3.003,2.9913,3.1658,3.273,3.3837,3.5484,3.5814,3.6397,3.8115,3.914,4.0286,4.1981,4.2947,4.3821,4.4695,4.5511,4.6002,4.6002,4.6773,4.7293,4.7293,4.8094,4.858,4.8599,4.9421,4.9887,4.9887,5.0717,5.1183,5.1183,5.1183,5.0736,4.9887,4.9887,5.0328,5.1144,5.027,4.9887,4.9848,4.8968,4.858,4.858,4.8585,4.8101,4.7319,4.6519,4.6206,4.6199,4.6199,4.6199,4.6199,4.6199,4.6199,4.6199,4.6199,4.6199,4.6199,4.6199,4.6199,4.6199,4.6199,4.6199,4.6199,4.6199,4.6199,4.6199,4.6199,4.6219,4.6219,4.6219,4.6897,4.7501,4.7501,4.8222,4.906,4.9859,5.0014,5.0307,5.1164,5.13,5.13,5.13,5.13,5.13,5.13,5.13,5.13,5.13,5.1239,5.1211,5.1211,5.1075,5.0233,4.8496,4.8411,4.8411,4.8411,4.8411,4.8357,4.8206,4.8206,4.8039,4.7713,4.7701,4.7596,2.1289,2.304,2.4755,2.4277,2.577,2.7773,2.9408,3.0535,3.1716,3.341,3.4459,3.5212,3.5717,3.729,3.8518,3.8425,3.9606,4.0927,4.2039,4.2947,4.3821,4.4695,4.5511,4.6002,4.6002,4.623,4.6638,4.7254,4.755,4.7958,4.8561,4.8852,4.8988,4.8988,4.924,4.9376,4.9376,4.9376,4.924,4.8988,4.8988,4.9124,4.9357,4.9104,4.8988,4.893,4.8055,4.7686,4.7639,4.7077,4.6739,4.6528,4.628,4.6209,4.6199,4.6199,4.6199,4.6199,4.6199,4.6199,4.6199,4.6199,4.6199,4.6199,4.6199,4.6199,4.6199,4.6199,4.6199,4.6199,4.6199,4.6199,4.6199,4.6199,4.6667,4.7111,4.7111,4.7793,4.8417,4.8417,4.9079,4.9722,4.9956,5.0502,5.1008,5.1261,5.13,5.13,5.13,5.13,5.13,5.13,5.13,5.13,5.13,5.1288,5.1248,5.1191,5.1117,5.0811,5.0252,5.0233,5.0204,5.0171,5.0204,4.9918,4.9246,4.9097,4.8625,4.7839,4.7739,4.7596,2.3201,2.4552,2.5675,2.5985,2.7098,2.8609,3.0515,3.2011,3.339,3.473,3.5702,3.6416,3.677,3.8402,3.9625,3.9431,4.0247,4.1199,4.2078,4.2947,4.3821,4.4695,4.5511,4.6002,4.6002,4.6002,4.621,4.6735,4.6773,4.7007,4.7531,4.79,4.8075,4.8075,4.8425,4.8599,4.8599,4.8599,4.8425,4.8075,4.8075,4.79,4.757,4.7939,4.8075,4.8036,4.7183,4.6839,4.6828,4.634,4.6152,4.6192,4.6199,4.6206,4.6199,4.6199,4.6199,4.6199,4.6199,4.6199,4.6199,4.6199,4.6199,4.6199,4.6199,4.6199,4.6199,4.6199,4.6199,4.6199,4.6199,4.6199,4.6199,4.6199,4.6608,4.6975,4.6975,4.793,4.8806,4.8806,4.9722,5.0521,5.0521,5.095,5.13,5.13,5.13,5.13,5.13,5.13,5.13,5.13,5.13,5.13,5.13,5.1248,5.123,5.1239,5.1128,5.1056,5.1043,5.0983,5.0932,5.0898,5.0952,5.07,5.0183,5.0052,4.9633,4.889,4.8813,4.8638,2.6897,2.6819,2.6574,2.9681,2.9505,2.9405,3.2574,3.3973,3.4847,3.5639,3.6556,3.745,3.8251,3.9179,4.0053,4.0771,4.0907,4.1179,4.1981,4.283,4.3704,4.4579,4.5394,4.5924,4.5982,4.6002,4.6002,4.6002,4.6002,4.6002,4.6002,4.6754,4.7181,4.7181,4.7958,4.8366,4.8366,4.8366,4.7978,4.7181,4.7187,4.6779,4.6046,4.6837,4.7187,4.7159,4.643,4.6131,4.62,4.6203,4.6191,4.6209,4.6206,4.6199,4.6199,4.6199,4.6199,4.6199,4.6199,4.6199,4.6199,4.6199,4.6199,4.6199,4.6199,4.6141,4.6082,4.6082,4.6024,4.5962,4.5962,4.5962,4.5962,4.5962,4.616,4.6316,4.6316,4.7676,4.8904,4.8904,5.0209,5.13,5.13,5.13,5.13,5.13,5.13,5.13,5.13,5.13,5.13,5.13,5.13,5.1296,5.1292,5.1176,5.1161,5.1288,5.1122,5.105,5.1111,5.0983,5.0914,5.0898,5.0906,5.0906,5.0898,5.0898,5.0735,5.0425,5.0415,5.0225,2.4007,2.5871,2.7802,2.8489,3.0434,3.238,3.3138,3.4459,3.5562,3.5756,3.7042,3.8173,3.8367,3.9625,4.0694,4.0869,4.0907,4.0966,4.114,4.1937,4.2792,4.3685,4.454,4.5317,4.5944,4.6002,4.6002,4.6002,4.6002,4.6002,4.6002,4.6177,4.6268,4.6268,4.6468,4.6565,4.6565,4.6565,4.6468,4.6274,4.6333,4.6255,4.608,4.6274,4.639,4.6423,4.6259,4.6189,4.6204,4.6209,4.6207,4.62,4.6206,4.6199,4.6199,4.6199,4.6199,4.6199,4.6199,4.6199,4.6199,4.6199,4.6199,4.6199,4.6199,4.5712,4.5186,4.5186,4.4695,4.4166,4.4166,4.4166,4.4166,4.4166,4.5728,4.7209,4.7209,4.8553,4.9742,4.9742,5.0599,5.13,5.13,5.13,5.13,5.13,5.13,5.13,5.13,5.13,5.13,5.13,5.13,5.1284,5.123,5.1243,5.1243,5.1225,5.1176,5.1161,5.1171,5.1105,5.101,5.0906,5.0947,5.0947,5.0898,5.0898,5.0816,5.0625,5.0467,5.0313,2.4864,2.6231,2.7343,2.8949,3.1331,3.3293,3.3293,3.4591,3.5795,3.5795,3.7197,3.8406,3.8406,3.9761,4.0907,4.0907,4.0907,4.0907,4.0907,4.1646,4.2369,4.2811,4.4015,4.4967,4.5375,4.5769,4.6002,4.6002,4.6002,4.6002,4.6002,4.6002,4.6002,4.6002,4.6002,4.6002,4.6002,4.6027,4.6056,4.6056,4.6126,4.6158,4.6157,4.6158,4.6169,4.6203,4.6203,4.6214,4.6251,4.6247,4.6228,4.6206,4.6192,4.62,4.6199,4.6199,4.6199,4.6199,4.6199,4.6199,4.6199,4.6199,4.5926,4.5576,4.5576,4.4968,4.4286,4.4286,4.3952,4.3601,4.3601,4.3601,4.3601,4.3601,4.4968,4.6375,4.6784,4.8222,4.9547,4.9937,5.0696,5.13,5.13,5.13,5.13,5.13,5.13,5.13,5.13,5.13,5.13,5.13,5.13,5.1292,5.1248,5.1248,5.1248,5.1243,5.1201,5.115,5.115,5.1093,5.1017,5.094,5.094,5.0925,5.0898,5.0898,5.078,5.0547,5.0446,5.0279,2.6208,2.6686,2.6786,2.9917,3.2011,3.3293,3.3293,3.4591,3.5795,3.5795,3.7061,3.8212,3.8367,3.9664,4.0733,4.0888,4.0907,4.0907,4.0907,4.151,4.2039,4.2175,4.3471,4.4404,4.4559,4.5317,4.5788,4.5788,4.5924,4.6002,4.6002,4.6002,4.6002,4.6002,4.6007,4.6012,4.6012,4.6084,4.6126,4.613,4.6169,4.6206,4.6214,4.6053,4.6075,4.6214,4.6214,4.6245,4.6303,4.6285,4.6249,4.6202,4.6195,4.6195,4.6199,4.6199,4.6199,4.6199,4.6199,4.6102,4.5985,4.5985,4.54,4.4676,4.4676,4.4072,4.3387,4.3387,4.3289,4.3172,4.3172,4.3172,4.3172,4.3172,4.3838,4.4738,4.5751,4.7462,4.9001,4.9664,5.0618,5.13,5.13,5.13,5.13,5.13,5.13,5.13,5.13,5.13,5.13,5.13,5.13,5.1296,5.1288,5.1239,5.1234,5.1288,5.1181,5.1134,5.1134,5.1075,5.1037,5.1037,5.0959,5.0906,5.0921,5.0906,5.0754,5.0446,5.0415,5.0237,2.3805,2.5726,2.824,3.0205,3.2011,3.3293,3.3293,3.4591,3.5795,3.5795,3.6595,3.7508,3.827,3.9198,4.0092,4.0791,4.0907,4.0907,4.0907,4.1005,4.1354,4.2116,4.2408,4.283,4.3607,4.4443,4.4967,4.4967,4.5613,4.6002,4.6002,4.6002,4.6002,4.6002,4.6066,4.6089,4.6089,4.615,4.6189,4.6192,4.6206,4.6236,4.6257,4.5492,4.557,4.6296,4.6296,4.6298,4.6305,4.623,4.6205,4.6201,4.6203,4.6203,4.6199,4.6199,4.6199,4.6199,4.6199,4.5712,4.5069,4.5069,4.4481,4.3776,4.3776,4.3153,4.2471,4.2471,4.1965,4.1438,4.1438,4.1438,4.1438,4.1438,4.2062,4.3098,4.4718,4.7033,4.8826,4.8943,5.0229,5.13,5.13,5.13,5.13,5.13,5.13,5.13,5.13,5.13,5.13,5.13,5.13,5.1284,5.1225,5.1252,5.1276,5.122,5.1248,5.1261,5.1261,5.1215,5.1166,5.1166,5.099,5.0937,5.0983,5.0937,5.0825,5.0664,5.0467,5.0313,2.4076,2.6251,2.8511,3.0263,3.1642,3.271,3.3196,3.4225,3.5216,3.5698,3.6105,3.6634,3.7508,3.879,3.9815,4.0169,4.0616,4.0907,4.0907,4.0907,4.1043,4.1432,4.1903,4.235,4.2733,4.3569,4.4074,4.4074,4.4851,4.5336,4.5336,4.5769,4.6002,4.6002,4.6071,4.6098,4.6098,4.616,4.6215,4.625,4.5755,4.5549,4.5539,4.468,4.4758,4.5539,4.5051,4.4836,4.4878,4.5331,4.5506,4.5517,4.6006,4.6203,4.6199,4.6199,4.6199,4.6141,4.5634,4.5225,4.4816,4.4325,4.3582,4.2861,4.2861,4.2296,4.1633,4.1633,4.1361,4.1107,4.1107,4.1107,4.1107,4.1107,4.1711,4.2646,4.3897,4.6235,4.8495,4.9917,5.0794,5.13,5.13,5.13,5.13,5.13,5.13,5.13,5.13,5.13,5.13,5.13,5.13,5.1292,5.1252,5.1288,5.1292,5.1252,5.1243,5.1243,5.1243,5.1171,5.1155,5.1211,5.1043,5.0969,5.0997,5.0917,5.078,5.0527,5.0436,5.0279,2.5065,2.6686,2.7929,2.9874,3.102,3.1953,3.3041,3.3915,3.475,3.562,3.5795,3.6008,3.6653,3.8013,3.912,3.9334,4.0053,4.0597,4.0597,4.0771,4.0907,4.0907,4.1471,4.1864,4.1864,4.2656,4.318,4.318,4.3976,4.4462,4.4462,4.5239,4.571,4.571,4.5954,4.6102,4.6134,4.5975,4.5913,4.5968,4.509,4.468,4.4641,4.3762,4.3723,4.4327,4.3899,4.3705,4.3746,4.4409,4.4648,4.4677,4.5533,4.5869,4.5907,4.6121,4.6063,4.579,4.5127,4.4621,4.413,4.3484,4.2685,4.2003,4.2003,4.1575,4.1107,4.1107,4.1107,4.1107,4.1107,4.1107,4.1107,4.1107,4.1555,4.2471,4.4224,4.6293,4.8514,5.0852,5.13,5.13,5.13,5.1125,5.1047,5.1261,5.1106,5.1047,5.1261,5.13,5.13,5.13,5.13,5.13,5.13,5.13,5.13,5.13,5.1248,5.123,5.123,5.1171,5.1166,5.123,5.1111,5.1043,5.1024,5.0954,5.0752,5.0404,5.0404,5.0214,2.6137,2.6281,2.6339,2.8845,3.0127,3.1218,3.2905,3.3915,3.475,3.562,3.5795,3.5814,3.5853,3.6615,3.7508,3.8328,3.9198,3.9757,3.9757,4.0422,4.0907,4.0907,4.0946,4.0966,4.0966,4.1762,4.2272,4.2272,4.3083,4.3563,4.3563,4.4384,4.4851,4.4851,4.5662,4.6138,4.6196,4.5436,4.5068,4.5068,4.4172,4.3762,4.3743,4.2864,4.2494,4.2572,4.3352,4.3705,4.3707,4.3745,4.3769,4.3838,4.4653,4.4969,4.5069,4.5907,4.5673,4.4952,4.4913,4.3819,4.2432,4.2374,4.1828,4.1166,4.1166,4.1127,4.1107,4.1107,4.1107,4.1107,4.1107,4.1107,4.1107,4.1107,4.1127,4.2299,4.641,4.8047,4.9235,5.0969,5.13,5.13,5.13,5.0618,5.0346,5.1183,5.0599,5.0365,5.1183,5.13,5.13,5.13,5.13,5.13,5.13,5.13,5.13,5.13,5.1296,5.1296,5.1296,5.1292,5.1292,5.1296,5.123,5.1155,5.1099,5.103,5.0792,5.0404,5.0404,5.0214,2.5526,2.5834,2.6087,2.8065,2.9641,3.1005,3.2205,3.3526,3.475,3.562,3.5795,3.5795,3.5795,3.6518,3.7197,3.7508,3.8305,3.8868,3.8868,3.9101,3.9489,4.0053,4.013,4.0325,4.0849,4.1179,4.1374,4.1374,4.217,4.2675,4.2675,4.3491,4.3976,4.3976,4.4282,4.4476,4.4593,4.4315,4.4172,4.4153,4.3274,4.2864,4.2845,4.1967,4.1576,4.1576,4.191,4.2027,4.2067,4.2632,4.2871,4.2959,4.3755,4.4072,4.4169,4.5046,4.5166,4.4816,4.4267,4.3659,4.2958,4.1887,4.1322,4.1107,4.1107,4.1107,4.1107,4.1107,4.1107,4.1107,4.1107,4.1107,4.1107,4.1107,4.1497,4.2744,4.5962,4.7793,4.9294,5.0969,5.13,5.13,5.13,5.0579,5.0112,5.0424,5.0209,5.0112,5.0424,5.095,5.13,5.13,5.13,5.13,5.13,5.13,5.13,5.13,5.13,5.13,5.13,5.13,5.13,5.13,5.1284,5.1234,5.1161,5.1056,5.0824,5.045,5.0417,5.0214,2.5293,2.5601,2.5951,2.7346,2.8767,3.0205,3.1677,3.3099,3.442,3.5562,3.5795,3.5795,3.5795,3.6261,3.6653,3.6653,3.7392,3.7959,3.7959,3.8212,3.862,3.9198,3.9256,3.947,4.0014,4.0325,4.0499,4.0499,4.1276,4.1767,4.1767,4.2597,4.3204,4.3491,4.3525,4.3582,4.3673,4.3402,4.3255,4.3255,4.2376,4.1967,4.1947,4.1363,4.1109,4.1109,4.1109,4.1109,4.115,4.1729,4.1952,4.2048,4.2872,4.3195,4.3292,4.4157,4.4462,4.4345,4.3465,4.3153,4.2939,4.1555,4.1107,4.1107,4.1107,4.1107,4.1107,4.1107,4.1107,4.1107,4.1107,4.1107,4.1107,4.1107,4.1711,4.2861,4.489,4.6936,4.8943,5.093,5.13,5.1203,5.0911,5.0151,4.9605,4.9605,4.9352,4.9352,4.9937,5.0502,5.0989,5.1261,5.13,5.13,5.13,5.13,5.13,5.13,5.13,5.13,5.13,5.13,5.13,5.13,5.13,5.1276,5.1211,5.1093,5.0852,5.051,5.0438,5.0214,0.0,0.0,0.0,2.6653,2.7505,2.8803,3.1347,3.2652,3.3798,3.5426,3.5775,3.5795,3.5795,3.5795,3.5795,3.5795,3.6518,3.7061,3.7061,3.778,3.8328,3.8367,3.8367,3.8367,3.8406,3.9179,3.966,3.9699,4.0422,4.0869,4.0907,4.1709,4.2543,4.34,4.349,4.3526,4.3534,4.2756,4.2357,4.2357,4.1498,4.1109,4.1109,4.1109,4.1109,4.1109,4.1109,4.1109,4.109,4.109,4.1101,4.1171,4.2028,4.2363,4.2451,4.327,4.3562,4.3445,4.2627,4.2315,4.2179,4.138,4.1127,4.1107,4.1107,4.1107,4.1107,4.1107,4.1107,4.1107,4.1107,4.1107,4.1107,4.1107,4.1692,4.251,4.3406,4.5611,4.8183,5.0735,5.1261,5.1028,5.0151,4.9333,4.8787,4.8768,4.8047,4.8086,4.9722,4.9976,5.0326,5.1164,5.1281,5.13,5.13,5.13,5.13,5.13,5.13,5.13,5.13,5.13,5.13,5.13,5.13,5.1276,5.1211,5.1134,5.0903,5.0519,5.0438,5.0233,2.5433,0.0,0.0,0.0,0.0,0.0,2.9949,3.2225,3.4303,3.475,3.5352,3.5795,3.5795,3.5795,3.5795,3.5795,3.6008,3.6164,3.6164,3.6377,3.6751,3.7372,3.745,3.7702,3.8348,3.862,3.9023,0.0,3.9912,4.0286,4.0869,4.1172,4.1443,4.1675,4.1769,4.1788,4.1796,4.1568,4.1459,4.1459,4.1226,4.1109,4.1109,4.1109,4.1109,4.1109,4.1109,4.1098,4.1108,4.1108,4.1093,4.1111,4.1369,4.1456,4.1554,4.2361,4.2666,4.2724,4.3114,4.2822,4.2257,4.2042,4.1575,4.1107,4.1107,4.1107,4.1107,4.1107,4.1107,4.1107,4.1107,4.1107,4.1107,4.1107,4.1263,4.1828,4.3289,4.4656,4.6394,4.8982,5.0463,5.1028,5.0151,4.9333,4.8592,4.7949,4.7657,4.7676,4.8125,4.9255,5.0092,5.0326,5.093,5.13,5.13,5.13,5.13,5.13,5.13,5.13,5.13,5.13,5.13,5.13,5.13,5.1276,5.1211,5.1134,5.0965,5.0715,5.0413,5.0139,0.0,0.0,2.5593,2.5607,0.0,0.0,2.9777,3.205,3.4206,3.4905,3.5445,3.5795,3.5795,3.5795,3.5795,3.5795,3.5795,3.5795,3.5795,3.5795,3.5989,3.6498,3.6556,3.677,3.7275,3.7644,3.8227,3.9082,3.9488,4.0068,4.0906,4.0988,4.1016,4.1048,4.1086,4.1098,4.109,4.1103,4.1109,4.1109,4.1098,4.1101,4.1101,4.1108,4.109,4.109,4.109,4.1092,4.1094,4.1092,4.1109,4.1106,4.1104,4.11,4.1156,4.1623,4.2003,4.2374,4.288,4.2724,4.2296,4.2296,4.175,4.1107,4.1107,4.1107,4.1107,4.1107,4.1107,4.1107,4.1107,4.1107,4.1107,4.1107,4.1107,4.1361,4.2354,4.3799,4.5673,4.828,4.9859,5.0482,4.9644,4.9118,4.8378,4.7131,4.6959,4.7092,4.7443,4.8358,4.9216,4.9937,5.0443,5.0891,5.1261,5.13,5.13,5.13,5.13,5.13,5.13,5.13,5.13,5.13,5.13,5.1248,5.1155,5.1122,5.0937,5.0625,5.0344,5.0089,0.0,0.0,0.0,2.5595,2.6798,0.0,2.9927,3.163,3.3293,3.4785,3.5173,3.5231,3.5231,3.5231,3.5231,3.5231,3.5406,3.5581,3.5775,3.5795,3.5795,3.5795,3.5795,3.5795,3.5795,3.6498,3.7314,3.8192,3.9066,3.994,4.0815,4.088,4.0933,4.1098,4.1098,4.1109,4.1109,4.1091,4.1093,4.1093,4.1109,4.1093,4.1093,4.1092,4.1107,4.1107,4.1107,4.1106,4.1104,4.1104,4.1108,4.1103,4.1101,4.1107,4.1103,4.1106,4.1555,4.2179,4.2276,4.2296,4.2296,4.2296,4.1828,4.1224,4.1127,4.1107,4.1107,4.1107,4.1107,4.1107,4.1107,4.1107,4.1107,4.1107,4.1107,4.1107,4.1107,4.2942,4.5361,4.7871,4.9255,4.9703,4.8806,4.8748,4.8202,4.6452,4.6199,4.6472,4.7267,4.7443,4.8066,4.9566,4.9898,5.0307,5.1086,5.1242,5.13,5.13,5.13,5.13,5.13,5.13,5.13,5.13,5.1288,5.1225,5.1099,5.1087,5.0844,5.0404,5.0287,5.0114,2.6054,2.5635,2.5601,2.5595,2.6371,0.0,2.7554,2.8957,3.0243,3.0574,3.1215,3.17,3.17,3.17,3.17,3.17,3.2866,3.4264,3.56,3.5795,3.5795,3.5795,3.5795,3.5795,3.5795,3.595,3.642,3.7294,3.8171,3.9068,3.9983,4.0023,4.0359,4.1083,4.1103,4.1104,4.1109,4.1104,4.1109,4.1109,4.1093,4.1091,4.1091,4.1108,4.1107,4.1107,4.1107,4.11,4.1101,4.1095,4.1097,4.1099,4.1103,4.1103,4.1103,4.1094,4.1205,4.1438,4.2081,4.2296,4.2296,4.2296,4.2198,4.1945,4.1302,4.1107,4.1107,4.1107,4.1107,4.1107,4.1107,4.1107,4.1107,4.1107,4.1107,4.1107,4.1107,4.2003,4.3371,4.5283,4.8008,4.9527,4.8008,4.8339,4.8202,4.6452,4.6199,4.6258,4.6433,4.7072,4.7637,4.7949,4.9196,5.0073,5.0248,5.0891,5.13,5.13,5.13,5.13,5.13,5.13,5.13,5.13,5.1186,5.1128,5.1099,5.099,5.0741,5.0404,5.0372,5.0197,2.617,2.5683,2.5641,2.5618,2.625,0.0,0.0,2.8538,2.9572,3.0015,3.0443,3.0752,3.0752,3.0752,3.0752,3.0752,3.2179,3.3309,3.3318,3.4745,3.5795,3.5795,3.5795,3.5795,3.5795,3.5795,3.6157,3.7036,3.7948,3.8666,3.9126,3.9171,3.9597,4.0424,4.0444,4.0665,4.1103,4.1109,4.1093,4.1093,4.1103,4.1094,4.1094,4.1101,4.1094,4.1094,4.1094,4.1103,4.1106,4.1106,4.1106,4.1103,4.11,4.1107,4.1107,4.1107,4.1107,4.1224,4.2023,4.2296,4.2374,4.2802,4.2646,4.2218,4.1828,4.1419,4.1107,4.1107,4.1107,4.1107,4.1107,4.1107,4.1107,4.1107,4.1107,4.1107,4.1107,4.1731,4.2568,4.3429,4.604,4.7988,4.756,4.7852,4.7715,4.6394,4.6199,4.6199,4.6199,4.6589,4.7007,4.7416,4.823,4.9083,4.9873,5.038,5.0821,5.1228,5.1288,5.13,5.13,5.13,5.1288,5.1248,5.115,5.1087,5.105,5.094,5.0726,5.0404,5.0336,5.0156,2.6259,2.5698,2.5681,2.5625,2.615,2.6849,0.0,0.0,0.0,2.9645,2.98,2.98,2.98,2.98,2.98,2.98,3.1227,3.1852,3.0482,3.292,3.4827,3.4842,3.5418,3.569,3.5352,3.5316,3.5742,3.679,3.7264,3.7717,3.8227,3.8302,3.8718,3.9518,3.9713,4.0149,4.0839,4.1016,4.1092,4.1102,4.1099,4.1103,4.1103,4.1106,4.1107,4.1107,4.1107,4.1107,4.1107,4.1107,4.1107,4.1107,4.1107,4.1107,4.1107,4.1107,4.1107,4.1185,4.1848,4.2276,4.2646,4.3172,4.2861,4.2296,4.2296,4.1731,4.1107,4.1107,4.1107,4.1107,4.1107,4.1107,4.1107,4.1107,4.1107,4.1107,4.1107,4.1614,4.2101,4.2276,4.3994,4.5787,4.6819,4.7287,4.7189,4.6336,4.6199,4.6199,4.6199,4.6192,4.6431,4.7107,4.7334,4.8061,4.9556,4.9891,5.0341,5.1167,5.1261,5.13,5.13,5.1292,5.1252,5.1211,5.1122,5.1056,5.0997,5.0914,5.0699,5.0404,5.0298,5.0126,2.6589,2.5696,2.5697,2.5698,2.5753,2.5858,2.5956,0.0,2.607,2.6167,0.0,2.6186,2.6186,0.0,0.0,2.6186,2.7648,2.87,2.8524,3.0098,3.1297,3.1363,3.4046,3.5273,3.3729,3.3581,3.427,3.5918,3.4699,3.49,3.7226,3.7343,3.7752,3.8612,3.9393,3.9842,3.9958,4.0705,4.1103,4.1097,4.11,4.1097,4.1097,4.1091,4.1107,4.1107,4.1107,4.1107,4.1107,4.1107,4.1107,4.1107,4.1107,4.1107,4.1107,4.1107,4.1107,4.1107,4.1205,4.2218,4.3348,4.2666,4.2374,4.2296,4.2296,4.1731,4.1107,4.1107,4.1107,4.1107,4.1107,4.1107,4.1107,4.1107,4.1107,4.1107,4.1107,4.1166,4.1458,4.2159,4.2549,4.3273,4.4913,4.6472,4.7189,4.6336,4.6199,4.6199,4.6199,4.6146,4.6177,4.6325,4.6925,4.7763,4.8826,4.9588,5.0363,5.123,5.1296,5.13,5.13,5.1243,5.1215,5.1211,5.1081,5.101,5.0997,5.0805,5.0616,5.0404,5.0383,5.0209,2.7815,2.7514,2.7657,2.6651,2.6804,2.6935,2.5935,0.0,2.5654,2.5657,0.0,0.0,0.0,0.0,0.0,0.0,2.7123,2.7905,2.689,2.9059,3.0742,3.0744,3.2015,3.2989,3.3261,3.4206,3.5108,3.5832,3.5213,3.5293,3.6387,3.6482,3.689,3.771,3.8101,3.8527,3.9044,3.9405,3.9856,4.0359,4.036,4.0601,4.1107,4.1107,4.1107,4.1107,4.1107,4.1107,4.1107,4.1107,4.1107,4.1107,4.1107,4.1107,4.1107,4.1107,4.1107,4.1107,4.1107,4.2198,4.362,4.376,4.3468,4.2958,4.2452,4.1731,4.1107,4.1107,4.1107,4.1107,4.1107,4.1107,4.1107,4.1107,4.1107,4.1107,4.1107,4.1107,4.1205,4.1536,4.1984,4.2685,4.3936,4.5163,4.6043,4.618,4.6177,4.6142,4.6142,4.6084,4.6032,4.6022,4.6367,4.7135,4.846,4.8973,4.9805,5.1098,5.1252,5.1288,5.1243,5.1201,5.1161,5.1087,5.103,5.0947,5.0822,5.0825,5.0663,5.0404,5.0325,5.0205,2.9096,2.8835,2.8842,0.0,0.0,0.0,0.0,0.0,0.0,2.5701,2.5702,0.0,0.0,0.0,0.0,0.0,0.0,2.7147,2.5878,2.7849,2.9374,2.9335,2.9743,3.0718,0.0,3.3769,3.4707,3.5176,3.5212,3.5424,3.5873,3.5944,3.6233,3.6838,3.7072,3.7494,3.8138,3.8372,3.8824,3.9435,3.9435,3.9786,4.0409,4.062,4.0737,4.0757,4.099,4.1107,4.1107,4.1107,4.1107,4.1107,4.1107,4.1107,4.1107,4.1107,4.1107,4.1107,4.1107,4.2198,4.3737,4.4618,4.4462,4.3796,4.2919,4.2081,4.138,4.1166,4.1107,4.1107,4.1107,4.1107,4.1107,4.1107,4.1107,4.1107,4.1107,4.1107,4.1107,4.1107,4.1744,4.2571,4.3428,4.4308,4.5168,4.6045,4.6126,4.6075,4.6075,4.6012,4.5964,4.5941,4.5986,4.6674,4.8327,4.8571,4.9351,5.1011,5.1191,5.1234,5.1191,5.1161,5.1099,5.1004,5.0976,5.0879,5.0701,5.0833,5.0763,5.0486,5.0333,5.0248,0.0,0.0,0.0,2.8175,0.0,0.0,0.0,0.0,2.5699,0.0,0.0,0.0,0.0,0.0,0.0,0.0,0.0,0.0,0.0,2.5798,2.5866,2.5867,2.7353,2.9044,3.0721,3.0936,3.167,3.3345,3.3487,3.4182,3.5816,3.5894,3.5914,3.5933,3.6752,3.7217,3.7236,3.8074,3.85,3.8539,3.8539,3.8558,3.8617,3.9454,3.9844,3.9883,4.0737,4.1107,4.1107,4.1107,4.1107,4.1107,4.1107,4.1107,4.1107,4.1107,4.1107,4.1107,4.1107,4.2198,4.3737,4.4618,4.4874,4.4699,4.3815,4.2958,4.2101,4.1322,4.1107,4.1107,4.1107,4.1107,4.1107,4.1107,4.1107,4.1107,4.1107,4.1107,4.1107,4.1107,4.1758,4.2563,4.3365,4.4225,4.5105,4.5962,4.6056,4.6002,4.6002,4.5933,4.5935,4.5991,4.5873,4.6565,4.8433,4.8547,4.9289,5.1084,5.1139,5.1134,5.1206,5.1081,5.1004,5.0997,5.0944,5.0841,5.0701,5.0833,5.0833,5.0692,5.0497,5.0325,0.0,0.0,3.195,2.9637,0.0,0.0,0.0,0.0,0.0,0.0,0.0,0.0,0.0,0.0,0.0,0.0,0.0,0.0,0.0,2.5699,2.5701,2.5708,2.7192,2.8468,2.9015,3.1161,3.2762,3.3366,3.4433,3.5304,3.5869,3.5908,3.5908,3.5908,3.6181,3.6337,3.6337,3.6629,3.7077,3.7642,3.7642,3.7935,3.8519,3.8811,3.926,3.9825,4.0117,4.0565,4.1107,4.1107,4.1107,4.1107,4.1107,4.1107,4.1107,4.1107,4.1107,4.1185,4.1711,4.2646,4.3737,4.4618,4.4894,4.4835,4.454,4.3448,4.2237,4.1965,4.1516,4.1107,4.1107,4.1107,4.1107,4.1107,4.1107,4.1107,4.1107,4.1071,4.1209,4.1789,4.2084,4.2675,4.4059,4.4529,4.5024,4.5906,4.598,4.5922,4.5922,4.5886,4.5835,4.5874,4.5874,4.6571,4.8315,4.9497,5.0423,5.103,5.1093,5.1093,5.1069,5.1024,5.0976,5.0925,5.0914,5.0771,5.0507,5.0682,5.0682,5.0507,5.0425,5.0372,3.3953,3.4053,0.0,3.1449,3.0849,0.0,2.763,0.0,2.6595,0.0,0.0,0.0,0.0,0.0,0.0,0.0,0.0,0.0,0.0,2.5699,2.5699,2.5699,2.6654,2.7552,2.8145,3.0224,3.2053,3.332,3.4391,3.5265,3.5869,3.5908,3.5908,3.5908,3.5908,3.5908,3.5908,3.5908,3.6181,3.6746,3.6746,3.7038,3.7584,3.7896,3.8519,3.9357,3.9669,4.0292,4.1107,4.1107,4.1107,4.1107,4.1107,4.1107,4.1107,4.1107,4.1107,4.1166,4.1692,4.2432,4.327,4.415,4.4656,4.4894,4.4894,4.3897,4.2705,4.2393,4.1711,4.1107,4.1107,4.1107,4.1107,4.1107,4.1081,4.1052,4.1052,4.1003,4.1224,4.2095,4.2461,4.3066,4.4464,4.4916,4.5286,4.5881,4.5917,4.5854,4.5854,4.5834,4.5807,4.5807,4.6119,4.7016,4.8728,5.0158,5.0969,5.0997,5.1017,5.1024,5.0997,5.0976,5.0932,5.0898,5.0898,5.0735,5.0404,5.0606,5.0576,5.0336,5.0372,5.0372]}]]